<?xml version="1.0" encoding="UTF-8" standalone="no" ?>
<gpx xmlns="http://www.topografix.com/GPX/1/1" xmlns:xsi="http://www.w3.org/2001/XMLSchema-instance" xsi:schemaLocation="http://www.topografix.com/GPX/1/1 http://www.topografix.com/GPX/1/1/gpx.xsd" version="1.1" creator="VisuGPX - https://www.visugpx.com">
  <metadata>
    <name>pr10 avec variante pr11</name>
    <desc><![CDATA[nettoyage entre le cros et la combe en vtt section difficile et revoir le balisage]]></desc>
  </metadata>
  <trk>
    <name><![CDATA[Tracé 7 déc. 2015 08:19:46]]></name>
    <trkseg>
      <trkpt lat="44.99504" lon="4.51649">
        <ele>448</ele>
        <time>2015-12-07T07:19:46Z</time>
      </trkpt>
      <trkpt lat="44.99504" lon="4.51649">
        <ele>448</ele>
        <time>2015-12-07T07:20:56Z</time>
      </trkpt>
      <trkpt lat="44.9948" lon="4.51646">
        <ele>407</ele>
        <time>2015-12-07T07:21:19Z</time>
      </trkpt>
      <trkpt lat="44.9948" lon="4.51646">
        <ele>410</ele>
        <time>2015-12-07T07:21:26Z</time>
      </trkpt>
      <trkpt lat="44.99466" lon="4.51641">
        <ele>385</ele>
        <time>2015-12-07T07:21:30Z</time>
      </trkpt>
      <trkpt lat="44.99475" lon="4.51638">
        <ele>381</ele>
        <time>2015-12-07T07:21:51Z</time>
      </trkpt>
      <trkpt lat="44.99481" lon="4.51634">
        <ele>380</ele>
        <time>2015-12-07T07:22:38Z</time>
      </trkpt>
      <trkpt lat="44.9947" lon="4.5163">
        <ele>382</ele>
        <time>2015-12-07T07:22:42Z</time>
      </trkpt>
      <trkpt lat="44.99478" lon="4.51634">
        <ele>375</ele>
        <time>2015-12-07T07:23:03Z</time>
      </trkpt>
      <trkpt lat="44.99483" lon="4.51625">
        <ele>377</ele>
        <time>2015-12-07T07:23:07Z</time>
      </trkpt>
      <trkpt lat="44.99486" lon="4.51619">
        <ele>377</ele>
        <time>2015-12-07T07:23:09Z</time>
      </trkpt>
      <trkpt lat="44.99489" lon="4.51607">
        <ele>377</ele>
        <time>2015-12-07T07:23:13Z</time>
      </trkpt>
      <trkpt lat="44.99491" lon="4.51592">
        <ele>377</ele>
        <time>2015-12-07T07:23:17Z</time>
      </trkpt>
      <trkpt lat="44.99497" lon="4.51581">
        <ele>379</ele>
        <time>2015-12-07T07:23:21Z</time>
      </trkpt>
      <trkpt lat="44.995" lon="4.51563">
        <ele>382</ele>
        <time>2015-12-07T07:23:26Z</time>
      </trkpt>
      <trkpt lat="44.99499" lon="4.51549">
        <ele>382</ele>
        <time>2015-12-07T07:23:30Z</time>
      </trkpt>
      <trkpt lat="44.99499" lon="4.51537">
        <ele>383</ele>
        <time>2015-12-07T07:23:33Z</time>
      </trkpt>
      <trkpt lat="44.99502" lon="4.51517">
        <ele>382</ele>
        <time>2015-12-07T07:23:38Z</time>
      </trkpt>
      <trkpt lat="44.99501" lon="4.51499">
        <ele>382</ele>
        <time>2015-12-07T07:23:43Z</time>
      </trkpt>
      <trkpt lat="44.99495" lon="4.5148">
        <ele>384</ele>
        <time>2015-12-07T07:23:48Z</time>
      </trkpt>
      <trkpt lat="44.99497" lon="4.51477">
        <ele>384</ele>
        <time>2015-12-07T07:23:50Z</time>
      </trkpt>
      <trkpt lat="44.99496" lon="4.51466">
        <ele>385</ele>
        <time>2015-12-07T07:23:54Z</time>
      </trkpt>
      <trkpt lat="44.99508" lon="4.5146">
        <ele>384</ele>
        <time>2015-12-07T07:23:59Z</time>
      </trkpt>
      <trkpt lat="44.99517" lon="4.51455">
        <ele>384</ele>
        <time>2015-12-07T07:24:04Z</time>
      </trkpt>
      <trkpt lat="44.99526" lon="4.51458">
        <ele>385</ele>
        <time>2015-12-07T07:24:09Z</time>
      </trkpt>
      <trkpt lat="44.99532" lon="4.51461">
        <ele>386</ele>
        <time>2015-12-07T07:24:15Z</time>
      </trkpt>
      <trkpt lat="44.99539" lon="4.51464">
        <ele>386</ele>
        <time>2015-12-07T07:24:20Z</time>
      </trkpt>
      <trkpt lat="44.99548" lon="4.51468">
        <ele>386</ele>
        <time>2015-12-07T07:24:24Z</time>
      </trkpt>
      <trkpt lat="44.99556" lon="4.51466">
        <ele>387</ele>
        <time>2015-12-07T07:24:31Z</time>
      </trkpt>
      <trkpt lat="44.99562" lon="4.51456">
        <ele>389</ele>
        <time>2015-12-07T07:24:36Z</time>
      </trkpt>
      <trkpt lat="44.99564" lon="4.51449">
        <ele>390</ele>
        <time>2015-12-07T07:24:39Z</time>
      </trkpt>
      <trkpt lat="44.99567" lon="4.51442">
        <ele>391</ele>
        <time>2015-12-07T07:24:42Z</time>
      </trkpt>
      <trkpt lat="44.99569" lon="4.5143">
        <ele>391</ele>
        <time>2015-12-07T07:24:47Z</time>
      </trkpt>
      <trkpt lat="44.99573" lon="4.51419">
        <ele>391</ele>
        <time>2015-12-07T07:24:52Z</time>
      </trkpt>
      <trkpt lat="44.99584" lon="4.51409">
        <ele>409</ele>
        <time>2015-12-07T07:24:57Z</time>
      </trkpt>
      <trkpt lat="44.99602" lon="4.51408">
        <ele>435</ele>
        <time>2015-12-07T07:25:01Z</time>
      </trkpt>
      <trkpt lat="44.99603" lon="4.51398">
        <ele>440</ele>
        <time>2015-12-07T07:25:05Z</time>
      </trkpt>
      <trkpt lat="44.99604" lon="4.51389">
        <ele>442</ele>
        <time>2015-12-07T07:25:09Z</time>
      </trkpt>
      <trkpt lat="44.99609" lon="4.51378">
        <ele>445</ele>
        <time>2015-12-07T07:25:14Z</time>
      </trkpt>
      <trkpt lat="44.99613" lon="4.51368">
        <ele>447</ele>
        <time>2015-12-07T07:25:19Z</time>
      </trkpt>
      <trkpt lat="44.99615" lon="4.5136">
        <ele>447</ele>
        <time>2015-12-07T07:25:23Z</time>
      </trkpt>
      <trkpt lat="44.99615" lon="4.5135">
        <ele>448</ele>
        <time>2015-12-07T07:25:27Z</time>
      </trkpt>
      <trkpt lat="44.99617" lon="4.51337">
        <ele>449</ele>
        <time>2015-12-07T07:25:32Z</time>
      </trkpt>
      <trkpt lat="44.99619" lon="4.51324">
        <ele>450</ele>
        <time>2015-12-07T07:25:37Z</time>
      </trkpt>
      <trkpt lat="44.99616" lon="4.51313">
        <ele>451</ele>
        <time>2015-12-07T07:25:42Z</time>
      </trkpt>
      <trkpt lat="44.99607" lon="4.51308">
        <ele>452</ele>
        <time>2015-12-07T07:25:47Z</time>
      </trkpt>
      <trkpt lat="44.99599" lon="4.51313">
        <ele>453</ele>
        <time>2015-12-07T07:25:53Z</time>
      </trkpt>
      <trkpt lat="44.99592" lon="4.51317">
        <ele>453</ele>
        <time>2015-12-07T07:25:57Z</time>
      </trkpt>
      <trkpt lat="44.99587" lon="4.51323">
        <ele>454</ele>
        <time>2015-12-07T07:26:01Z</time>
      </trkpt>
      <trkpt lat="44.99579" lon="4.51326">
        <ele>455</ele>
        <time>2015-12-07T07:26:09Z</time>
      </trkpt>
      <trkpt lat="44.99571" lon="4.51328">
        <ele>457</ele>
        <time>2015-12-07T07:26:15Z</time>
      </trkpt>
      <trkpt lat="44.99564" lon="4.51327">
        <ele>458</ele>
        <time>2015-12-07T07:26:21Z</time>
      </trkpt>
      <trkpt lat="44.99558" lon="4.5132">
        <ele>459</ele>
        <time>2015-12-07T07:26:27Z</time>
      </trkpt>
      <trkpt lat="44.99551" lon="4.51315">
        <ele>461</ele>
        <time>2015-12-07T07:26:34Z</time>
      </trkpt>
      <trkpt lat="44.99544" lon="4.51311">
        <ele>462</ele>
        <time>2015-12-07T07:26:40Z</time>
      </trkpt>
      <trkpt lat="44.99538" lon="4.51303">
        <ele>464</ele>
        <time>2015-12-07T07:26:48Z</time>
      </trkpt>
      <trkpt lat="44.99536" lon="4.51292">
        <ele>467</ele>
        <time>2015-12-07T07:26:57Z</time>
      </trkpt>
      <trkpt lat="44.99531" lon="4.51286">
        <ele>468</ele>
        <time>2015-12-07T07:27:01Z</time>
      </trkpt>
      <trkpt lat="44.99528" lon="4.51276">
        <ele>470</ele>
        <time>2015-12-07T07:27:06Z</time>
      </trkpt>
      <trkpt lat="44.99523" lon="4.51265">
        <ele>472</ele>
        <time>2015-12-07T07:27:15Z</time>
      </trkpt>
      <trkpt lat="44.9952" lon="4.51256">
        <ele>474</ele>
        <time>2015-12-07T07:27:22Z</time>
      </trkpt>
      <trkpt lat="44.99519" lon="4.51244">
        <ele>476</ele>
        <time>2015-12-07T07:27:29Z</time>
      </trkpt>
      <trkpt lat="44.99517" lon="4.51234">
        <ele>477</ele>
        <time>2015-12-07T07:27:35Z</time>
      </trkpt>
      <trkpt lat="44.99512" lon="4.51225">
        <ele>479</ele>
        <time>2015-12-07T07:27:38Z</time>
      </trkpt>
      <trkpt lat="44.99509" lon="4.51215">
        <ele>480</ele>
        <time>2015-12-07T07:27:43Z</time>
      </trkpt>
      <trkpt lat="44.99502" lon="4.51209">
        <ele>482</ele>
        <time>2015-12-07T07:27:49Z</time>
      </trkpt>
      <trkpt lat="44.99498" lon="4.512">
        <ele>485</ele>
        <time>2015-12-07T07:27:55Z</time>
      </trkpt>
      <trkpt lat="44.99493" lon="4.51191">
        <ele>487</ele>
        <time>2015-12-07T07:28:03Z</time>
      </trkpt>
      <trkpt lat="44.99487" lon="4.51185">
        <ele>487</ele>
        <time>2015-12-07T07:28:10Z</time>
      </trkpt>
      <trkpt lat="44.9948" lon="4.51179">
        <ele>487</ele>
        <time>2015-12-07T07:28:17Z</time>
      </trkpt>
      <trkpt lat="44.99473" lon="4.51176">
        <ele>487</ele>
        <time>2015-12-07T07:28:22Z</time>
      </trkpt>
      <trkpt lat="44.99465" lon="4.51174">
        <ele>488</ele>
        <time>2015-12-07T07:28:28Z</time>
      </trkpt>
      <trkpt lat="44.99458" lon="4.51172">
        <ele>489</ele>
        <time>2015-12-07T07:28:37Z</time>
      </trkpt>
      <trkpt lat="44.99452" lon="4.51171">
        <ele>490</ele>
        <time>2015-12-07T07:28:42Z</time>
      </trkpt>
      <trkpt lat="44.99446" lon="4.51169">
        <ele>492</ele>
        <time>2015-12-07T07:28:46Z</time>
      </trkpt>
      <trkpt lat="44.99438" lon="4.51166">
        <ele>493</ele>
        <time>2015-12-07T07:28:52Z</time>
      </trkpt>
      <trkpt lat="44.9943" lon="4.51163">
        <ele>494</ele>
        <time>2015-12-07T07:28:57Z</time>
      </trkpt>
      <trkpt lat="44.99422" lon="4.51159">
        <ele>495</ele>
        <time>2015-12-07T07:29:02Z</time>
      </trkpt>
      <trkpt lat="44.99415" lon="4.51154">
        <ele>497</ele>
        <time>2015-12-07T07:29:11Z</time>
      </trkpt>
      <trkpt lat="44.9941" lon="4.51147">
        <ele>498</ele>
        <time>2015-12-07T07:29:16Z</time>
      </trkpt>
      <trkpt lat="44.99404" lon="4.51138">
        <ele>500</ele>
        <time>2015-12-07T07:29:22Z</time>
      </trkpt>
      <trkpt lat="44.994" lon="4.51131">
        <ele>500</ele>
        <time>2015-12-07T07:29:26Z</time>
      </trkpt>
      <trkpt lat="44.99397" lon="4.51122">
        <ele>501</ele>
        <time>2015-12-07T07:29:30Z</time>
      </trkpt>
      <trkpt lat="44.99394" lon="4.51112">
        <ele>502</ele>
        <time>2015-12-07T07:29:34Z</time>
      </trkpt>
      <trkpt lat="44.99391" lon="4.51101">
        <ele>503</ele>
        <time>2015-12-07T07:29:39Z</time>
      </trkpt>
      <trkpt lat="44.99386" lon="4.51091">
        <ele>503</ele>
        <time>2015-12-07T07:29:44Z</time>
      </trkpt>
      <trkpt lat="44.99382" lon="4.5108">
        <ele>504</ele>
        <time>2015-12-07T07:29:49Z</time>
      </trkpt>
      <trkpt lat="44.99378" lon="4.5107">
        <ele>504</ele>
        <time>2015-12-07T07:29:54Z</time>
      </trkpt>
      <trkpt lat="44.99373" lon="4.51061">
        <ele>504</ele>
        <time>2015-12-07T07:29:59Z</time>
      </trkpt>
      <trkpt lat="44.99369" lon="4.51054">
        <ele>504</ele>
        <time>2015-12-07T07:30:02Z</time>
      </trkpt>
      <trkpt lat="44.99366" lon="4.51045">
        <ele>505</ele>
        <time>2015-12-07T07:30:06Z</time>
      </trkpt>
      <trkpt lat="44.99362" lon="4.51033">
        <ele>506</ele>
        <time>2015-12-07T07:30:11Z</time>
      </trkpt>
      <trkpt lat="44.9936" lon="4.51024">
        <ele>507</ele>
        <time>2015-12-07T07:30:15Z</time>
      </trkpt>
      <trkpt lat="44.99357" lon="4.51012">
        <ele>509</ele>
        <time>2015-12-07T07:30:20Z</time>
      </trkpt>
      <trkpt lat="44.99354" lon="4.51002">
        <ele>511</ele>
        <time>2015-12-07T07:30:25Z</time>
      </trkpt>
      <trkpt lat="44.99351" lon="4.50992">
        <ele>512</ele>
        <time>2015-12-07T07:30:30Z</time>
      </trkpt>
      <trkpt lat="44.99347" lon="4.50981">
        <ele>513</ele>
        <time>2015-12-07T07:30:34Z</time>
      </trkpt>
      <trkpt lat="44.99348" lon="4.5097">
        <ele>512</ele>
        <time>2015-12-07T07:30:39Z</time>
      </trkpt>
      <trkpt lat="44.99351" lon="4.5096">
        <ele>512</ele>
        <time>2015-12-07T07:30:45Z</time>
      </trkpt>
      <trkpt lat="44.99358" lon="4.50949">
        <ele>513</ele>
        <time>2015-12-07T07:30:49Z</time>
      </trkpt>
      <trkpt lat="44.99364" lon="4.50939">
        <ele>514</ele>
        <time>2015-12-07T07:30:54Z</time>
      </trkpt>
      <trkpt lat="44.99368" lon="4.5093">
        <ele>515</ele>
        <time>2015-12-07T07:30:58Z</time>
      </trkpt>
      <trkpt lat="44.99373" lon="4.5092">
        <ele>517</ele>
        <time>2015-12-07T07:31:02Z</time>
      </trkpt>
      <trkpt lat="44.99376" lon="4.50913">
        <ele>518</ele>
        <time>2015-12-07T07:31:05Z</time>
      </trkpt>
      <trkpt lat="44.9938" lon="4.50906">
        <ele>520</ele>
        <time>2015-12-07T07:31:08Z</time>
      </trkpt>
      <trkpt lat="44.99384" lon="4.509">
        <ele>521</ele>
        <time>2015-12-07T07:31:11Z</time>
      </trkpt>
      <trkpt lat="44.99389" lon="4.50891">
        <ele>522</ele>
        <time>2015-12-07T07:31:15Z</time>
      </trkpt>
      <trkpt lat="44.99395" lon="4.50881">
        <ele>522</ele>
        <time>2015-12-07T07:31:19Z</time>
      </trkpt>
      <trkpt lat="44.994" lon="4.50872">
        <ele>523</ele>
        <time>2015-12-07T07:31:23Z</time>
      </trkpt>
      <trkpt lat="44.99406" lon="4.50863">
        <ele>525</ele>
        <time>2015-12-07T07:31:30Z</time>
      </trkpt>
      <trkpt lat="44.9941" lon="4.50854">
        <ele>527</ele>
        <time>2015-12-07T07:31:39Z</time>
      </trkpt>
      <trkpt lat="44.99416" lon="4.50844">
        <ele>530</ele>
        <time>2015-12-07T07:31:48Z</time>
      </trkpt>
      <trkpt lat="44.99422" lon="4.50835">
        <ele>532</ele>
        <time>2015-12-07T07:31:56Z</time>
      </trkpt>
      <trkpt lat="44.99428" lon="4.50826">
        <ele>534</ele>
        <time>2015-12-07T07:32:04Z</time>
      </trkpt>
      <trkpt lat="44.99433" lon="4.50818">
        <ele>534</ele>
        <time>2015-12-07T07:32:09Z</time>
      </trkpt>
      <trkpt lat="44.99436" lon="4.5081">
        <ele>535</ele>
        <time>2015-12-07T07:32:16Z</time>
      </trkpt>
      <trkpt lat="44.99441" lon="4.50801">
        <ele>536</ele>
        <time>2015-12-07T07:32:20Z</time>
      </trkpt>
      <trkpt lat="44.99445" lon="4.5079">
        <ele>536</ele>
        <time>2015-12-07T07:32:28Z</time>
      </trkpt>
      <trkpt lat="44.99451" lon="4.50782">
        <ele>538</ele>
        <time>2015-12-07T07:32:35Z</time>
      </trkpt>
      <trkpt lat="44.99455" lon="4.50774">
        <ele>539</ele>
        <time>2015-12-07T07:32:40Z</time>
      </trkpt>
      <trkpt lat="44.99462" lon="4.50768">
        <ele>540</ele>
        <time>2015-12-07T07:32:45Z</time>
      </trkpt>
      <trkpt lat="44.99467" lon="4.5076">
        <ele>541</ele>
        <time>2015-12-07T07:32:51Z</time>
      </trkpt>
      <trkpt lat="44.99471" lon="4.50752">
        <ele>543</ele>
        <time>2015-12-07T07:32:58Z</time>
      </trkpt>
      <trkpt lat="44.99475" lon="4.50743">
        <ele>545</ele>
        <time>2015-12-07T07:33:03Z</time>
      </trkpt>
      <trkpt lat="44.99477" lon="4.50734">
        <ele>546</ele>
        <time>2015-12-07T07:33:08Z</time>
      </trkpt>
      <trkpt lat="44.99482" lon="4.50725">
        <ele>548</ele>
        <time>2015-12-07T07:33:15Z</time>
      </trkpt>
      <trkpt lat="44.99485" lon="4.50713">
        <ele>550</ele>
        <time>2015-12-07T07:33:22Z</time>
      </trkpt>
      <trkpt lat="44.99487" lon="4.50703">
        <ele>551</ele>
        <time>2015-12-07T07:33:28Z</time>
      </trkpt>
      <trkpt lat="44.99487" lon="4.50692">
        <ele>552</ele>
        <time>2015-12-07T07:33:34Z</time>
      </trkpt>
      <trkpt lat="44.99486" lon="4.50681">
        <ele>554</ele>
        <time>2015-12-07T07:33:40Z</time>
      </trkpt>
      <trkpt lat="44.99485" lon="4.50669">
        <ele>555</ele>
        <time>2015-12-07T07:33:47Z</time>
      </trkpt>
      <trkpt lat="44.99486" lon="4.50657">
        <ele>557</ele>
        <time>2015-12-07T07:33:55Z</time>
      </trkpt>
      <trkpt lat="44.99487" lon="4.50645">
        <ele>559</ele>
        <time>2015-12-07T07:34:03Z</time>
      </trkpt>
      <trkpt lat="44.99488" lon="4.50634">
        <ele>561</ele>
        <time>2015-12-07T07:34:09Z</time>
      </trkpt>
      <trkpt lat="44.9949" lon="4.50623">
        <ele>562</ele>
        <time>2015-12-07T07:34:14Z</time>
      </trkpt>
      <trkpt lat="44.99492" lon="4.50613">
        <ele>563</ele>
        <time>2015-12-07T07:34:19Z</time>
      </trkpt>
      <trkpt lat="44.99495" lon="4.50601">
        <ele>564</ele>
        <time>2015-12-07T07:34:25Z</time>
      </trkpt>
      <trkpt lat="44.99495" lon="4.5059">
        <ele>565</ele>
        <time>2015-12-07T07:34:32Z</time>
      </trkpt>
      <trkpt lat="44.99495" lon="4.50579">
        <ele>567</ele>
        <time>2015-12-07T07:34:39Z</time>
      </trkpt>
      <trkpt lat="44.99493" lon="4.50568">
        <ele>568</ele>
        <time>2015-12-07T07:34:43Z</time>
      </trkpt>
      <trkpt lat="44.99488" lon="4.50558">
        <ele>570</ele>
        <time>2015-12-07T07:34:49Z</time>
      </trkpt>
      <trkpt lat="44.99483" lon="4.50548">
        <ele>571</ele>
        <time>2015-12-07T07:34:54Z</time>
      </trkpt>
      <trkpt lat="44.99482" lon="4.50537">
        <ele>573</ele>
        <time>2015-12-07T07:35:01Z</time>
      </trkpt>
      <trkpt lat="44.99488" lon="4.50529">
        <ele>573</ele>
        <time>2015-12-07T07:35:09Z</time>
      </trkpt>
      <trkpt lat="44.99494" lon="4.5052">
        <ele>574</ele>
        <time>2015-12-07T07:35:16Z</time>
      </trkpt>
      <trkpt lat="44.99499" lon="4.50512">
        <ele>575</ele>
        <time>2015-12-07T07:35:24Z</time>
      </trkpt>
      <trkpt lat="44.99503" lon="4.50506">
        <ele>577</ele>
        <time>2015-12-07T07:35:29Z</time>
      </trkpt>
      <trkpt lat="44.99506" lon="4.50496">
        <ele>577</ele>
        <time>2015-12-07T07:35:33Z</time>
      </trkpt>
      <trkpt lat="44.99511" lon="4.50486">
        <ele>578</ele>
        <time>2015-12-07T07:35:40Z</time>
      </trkpt>
      <trkpt lat="44.99515" lon="4.50478">
        <ele>580</ele>
        <time>2015-12-07T07:35:47Z</time>
      </trkpt>
      <trkpt lat="44.99521" lon="4.5047">
        <ele>581</ele>
        <time>2015-12-07T07:35:55Z</time>
      </trkpt>
      <trkpt lat="44.99525" lon="4.50461">
        <ele>582</ele>
        <time>2015-12-07T07:36:01Z</time>
      </trkpt>
      <trkpt lat="44.99528" lon="4.5045">
        <ele>583</ele>
        <time>2015-12-07T07:36:07Z</time>
      </trkpt>
      <trkpt lat="44.99531" lon="4.50439">
        <ele>584</ele>
        <time>2015-12-07T07:36:13Z</time>
      </trkpt>
      <trkpt lat="44.99533" lon="4.50427">
        <ele>585</ele>
        <time>2015-12-07T07:36:18Z</time>
      </trkpt>
      <trkpt lat="44.99536" lon="4.50417">
        <ele>586</ele>
        <time>2015-12-07T07:36:22Z</time>
      </trkpt>
      <trkpt lat="44.99537" lon="4.50407">
        <ele>586</ele>
        <time>2015-12-07T07:36:27Z</time>
      </trkpt>
      <trkpt lat="44.99538" lon="4.50396">
        <ele>587</ele>
        <time>2015-12-07T07:36:33Z</time>
      </trkpt>
      <trkpt lat="44.99537" lon="4.50384">
        <ele>589</ele>
        <time>2015-12-07T07:36:41Z</time>
      </trkpt>
      <trkpt lat="44.99534" lon="4.50373">
        <ele>591</ele>
        <time>2015-12-07T07:36:47Z</time>
      </trkpt>
      <trkpt lat="44.99536" lon="4.50362">
        <ele>592</ele>
        <time>2015-12-07T07:36:52Z</time>
      </trkpt>
      <trkpt lat="44.99534" lon="4.5035">
        <ele>592</ele>
        <time>2015-12-07T07:37:00Z</time>
      </trkpt>
      <trkpt lat="44.99535" lon="4.50338">
        <ele>594</ele>
        <time>2015-12-07T07:37:11Z</time>
      </trkpt>
      <trkpt lat="44.99535" lon="4.50327">
        <ele>594</ele>
        <time>2015-12-07T07:37:15Z</time>
      </trkpt>
      <trkpt lat="44.99538" lon="4.5031">
        <ele>594</ele>
        <time>2015-12-07T07:37:19Z</time>
      </trkpt>
      <trkpt lat="44.99543" lon="4.50289">
        <ele>592</ele>
        <time>2015-12-07T07:37:24Z</time>
      </trkpt>
      <trkpt lat="44.99548" lon="4.50277">
        <ele>591</ele>
        <time>2015-12-07T07:37:27Z</time>
      </trkpt>
      <trkpt lat="44.99555" lon="4.50262">
        <ele>591</ele>
        <time>2015-12-07T07:37:31Z</time>
      </trkpt>
      <trkpt lat="44.99562" lon="4.50242">
        <ele>592</ele>
        <time>2015-12-07T07:37:36Z</time>
      </trkpt>
      <trkpt lat="44.99564" lon="4.50223">
        <ele>591</ele>
        <time>2015-12-07T07:37:40Z</time>
      </trkpt>
      <trkpt lat="44.99567" lon="4.50196">
        <ele>591</ele>
        <time>2015-12-07T07:37:45Z</time>
      </trkpt>
      <trkpt lat="44.99569" lon="4.50167">
        <ele>592</ele>
        <time>2015-12-07T07:37:49Z</time>
      </trkpt>
      <trkpt lat="44.99573" lon="4.50129">
        <ele>591</ele>
        <time>2015-12-07T07:37:54Z</time>
      </trkpt>
      <trkpt lat="44.99574" lon="4.50101">
        <ele>591</ele>
        <time>2015-12-07T07:37:59Z</time>
      </trkpt>
      <trkpt lat="44.99575" lon="4.50082">
        <ele>590</ele>
        <time>2015-12-07T07:38:03Z</time>
      </trkpt>
      <trkpt lat="44.99574" lon="4.50065">
        <ele>590</ele>
        <time>2015-12-07T07:38:07Z</time>
      </trkpt>
      <trkpt lat="44.99575" lon="4.50054">
        <ele>589</ele>
        <time>2015-12-07T07:38:11Z</time>
      </trkpt>
      <trkpt lat="44.99577" lon="4.50037">
        <ele>590</ele>
        <time>2015-12-07T07:38:16Z</time>
      </trkpt>
      <trkpt lat="44.99577" lon="4.50025">
        <ele>590</ele>
        <time>2015-12-07T07:38:20Z</time>
      </trkpt>
      <trkpt lat="44.99578" lon="4.50008">
        <ele>591</ele>
        <time>2015-12-07T07:38:25Z</time>
      </trkpt>
      <trkpt lat="44.9958" lon="4.4999">
        <ele>591</ele>
        <time>2015-12-07T07:38:30Z</time>
      </trkpt>
      <trkpt lat="44.99581" lon="4.49977">
        <ele>592</ele>
        <time>2015-12-07T07:38:34Z</time>
      </trkpt>
      <trkpt lat="44.99581" lon="4.49963">
        <ele>592</ele>
        <time>2015-12-07T07:38:37Z</time>
      </trkpt>
      <trkpt lat="44.99583" lon="4.49937">
        <ele>591</ele>
        <time>2015-12-07T07:38:42Z</time>
      </trkpt>
      <trkpt lat="44.99586" lon="4.49922">
        <ele>591</ele>
        <time>2015-12-07T07:38:45Z</time>
      </trkpt>
      <trkpt lat="44.99589" lon="4.49901">
        <ele>591</ele>
        <time>2015-12-07T07:38:49Z</time>
      </trkpt>
      <trkpt lat="44.99592" lon="4.49874">
        <ele>591</ele>
        <time>2015-12-07T07:38:53Z</time>
      </trkpt>
      <trkpt lat="44.99596" lon="4.49855">
        <ele>590</ele>
        <time>2015-12-07T07:38:57Z</time>
      </trkpt>
      <trkpt lat="44.996" lon="4.49843">
        <ele>590</ele>
        <time>2015-12-07T07:39:00Z</time>
      </trkpt>
      <trkpt lat="44.99606" lon="4.49824">
        <ele>590</ele>
        <time>2015-12-07T07:39:04Z</time>
      </trkpt>
      <trkpt lat="44.99606" lon="4.49802">
        <ele>590</ele>
        <time>2015-12-07T07:39:07Z</time>
      </trkpt>
      <trkpt lat="44.99604" lon="4.49779">
        <ele>590</ele>
        <time>2015-12-07T07:39:11Z</time>
      </trkpt>
      <trkpt lat="44.99602" lon="4.49767">
        <ele>590</ele>
        <time>2015-12-07T07:39:16Z</time>
      </trkpt>
      <trkpt lat="44.996" lon="4.49757">
        <ele>590</ele>
        <time>2015-12-07T07:39:21Z</time>
      </trkpt>
      <trkpt lat="44.99599" lon="4.49745">
        <ele>591</ele>
        <time>2015-12-07T07:39:27Z</time>
      </trkpt>
      <trkpt lat="44.99596" lon="4.49736">
        <ele>592</ele>
        <time>2015-12-07T07:39:31Z</time>
      </trkpt>
      <trkpt lat="44.99594" lon="4.49724">
        <ele>592</ele>
        <time>2015-12-07T07:39:36Z</time>
      </trkpt>
      <trkpt lat="44.99594" lon="4.49713">
        <ele>593</ele>
        <time>2015-12-07T07:39:46Z</time>
      </trkpt>
      <trkpt lat="44.99593" lon="4.49701">
        <ele>594</ele>
        <time>2015-12-07T07:40:01Z</time>
      </trkpt>
      <trkpt lat="44.99594" lon="4.4969">
        <ele>594</ele>
        <time>2015-12-07T07:40:09Z</time>
      </trkpt>
      <trkpt lat="44.99595" lon="4.49684">
        <ele>595</ele>
        <time>2015-12-07T07:40:12Z</time>
      </trkpt>
      <trkpt lat="44.99597" lon="4.49673">
        <ele>595</ele>
        <time>2015-12-07T07:40:16Z</time>
      </trkpt>
      <trkpt lat="44.99602" lon="4.49664">
        <ele>595</ele>
        <time>2015-12-07T07:40:23Z</time>
      </trkpt>
      <trkpt lat="44.99605" lon="4.49654">
        <ele>595</ele>
        <time>2015-12-07T07:40:29Z</time>
      </trkpt>
      <trkpt lat="44.99604" lon="4.49643">
        <ele>595</ele>
        <time>2015-12-07T07:40:38Z</time>
      </trkpt>
      <trkpt lat="44.99606" lon="4.49631">
        <ele>595</ele>
        <time>2015-12-07T07:40:49Z</time>
      </trkpt>
      <trkpt lat="44.99608" lon="4.4962">
        <ele>597</ele>
        <time>2015-12-07T07:40:57Z</time>
      </trkpt>
      <trkpt lat="44.99613" lon="4.4961">
        <ele>599</ele>
        <time>2015-12-07T07:41:06Z</time>
      </trkpt>
      <trkpt lat="44.99614" lon="4.49605">
        <ele>601</ele>
        <time>2015-12-07T07:41:45Z</time>
      </trkpt>
      <trkpt lat="44.99621" lon="4.49593">
        <ele>601</ele>
        <time>2015-12-07T07:41:49Z</time>
      </trkpt>
      <trkpt lat="44.99628" lon="4.49585">
        <ele>601</ele>
        <time>2015-12-07T07:41:57Z</time>
      </trkpt>
      <trkpt lat="44.99632" lon="4.49578">
        <ele>601</ele>
        <time>2015-12-07T07:42:03Z</time>
      </trkpt>
      <trkpt lat="44.99637" lon="4.4957">
        <ele>602</ele>
        <time>2015-12-07T07:42:10Z</time>
      </trkpt>
      <trkpt lat="44.99641" lon="4.4956">
        <ele>602</ele>
        <time>2015-12-07T07:42:16Z</time>
      </trkpt>
      <trkpt lat="44.99644" lon="4.49551">
        <ele>603</ele>
        <time>2015-12-07T07:42:23Z</time>
      </trkpt>
      <trkpt lat="44.99649" lon="4.49543">
        <ele>603</ele>
        <time>2015-12-07T07:42:27Z</time>
      </trkpt>
      <trkpt lat="44.99654" lon="4.49536">
        <ele>604</ele>
        <time>2015-12-07T07:42:34Z</time>
      </trkpt>
      <trkpt lat="44.99657" lon="4.49527">
        <ele>604</ele>
        <time>2015-12-07T07:42:41Z</time>
      </trkpt>
      <trkpt lat="44.99662" lon="4.49516">
        <ele>605</ele>
        <time>2015-12-07T07:42:49Z</time>
      </trkpt>
      <trkpt lat="44.99664" lon="4.49507">
        <ele>605</ele>
        <time>2015-12-07T07:42:55Z</time>
      </trkpt>
      <trkpt lat="44.99667" lon="4.49496">
        <ele>606</ele>
        <time>2015-12-07T07:43:01Z</time>
      </trkpt>
      <trkpt lat="44.99668" lon="4.49484">
        <ele>606</ele>
        <time>2015-12-07T07:43:07Z</time>
      </trkpt>
      <trkpt lat="44.9967" lon="4.49473">
        <ele>606</ele>
        <time>2015-12-07T07:43:13Z</time>
      </trkpt>
      <trkpt lat="44.9967" lon="4.49462">
        <ele>607</ele>
        <time>2015-12-07T07:43:21Z</time>
      </trkpt>
      <trkpt lat="44.9967" lon="4.49452">
        <ele>607</ele>
        <time>2015-12-07T07:43:27Z</time>
      </trkpt>
      <trkpt lat="44.99669" lon="4.49441">
        <ele>608</ele>
        <time>2015-12-07T07:43:34Z</time>
      </trkpt>
      <trkpt lat="44.99665" lon="4.49431">
        <ele>609</ele>
        <time>2015-12-07T07:43:42Z</time>
      </trkpt>
      <trkpt lat="44.99665" lon="4.49419">
        <ele>610</ele>
        <time>2015-12-07T07:43:50Z</time>
      </trkpt>
      <trkpt lat="44.99663" lon="4.49409">
        <ele>610</ele>
        <time>2015-12-07T07:43:59Z</time>
      </trkpt>
      <trkpt lat="44.99664" lon="4.49396">
        <ele>611</ele>
        <time>2015-12-07T07:44:04Z</time>
      </trkpt>
      <trkpt lat="44.99662" lon="4.49387">
        <ele>611</ele>
        <time>2015-12-07T07:44:09Z</time>
      </trkpt>
      <trkpt lat="44.99658" lon="4.49376">
        <ele>612</ele>
        <time>2015-12-07T07:44:16Z</time>
      </trkpt>
      <trkpt lat="44.99655" lon="4.49367">
        <ele>613</ele>
        <time>2015-12-07T07:44:22Z</time>
      </trkpt>
      <trkpt lat="44.99653" lon="4.49359">
        <ele>614</ele>
        <time>2015-12-07T07:44:27Z</time>
      </trkpt>
      <trkpt lat="44.9965" lon="4.4935">
        <ele>615</ele>
        <time>2015-12-07T07:44:31Z</time>
      </trkpt>
      <trkpt lat="44.99648" lon="4.49341">
        <ele>616</ele>
        <time>2015-12-07T07:44:36Z</time>
      </trkpt>
      <trkpt lat="44.99647" lon="4.49332">
        <ele>617</ele>
        <time>2015-12-07T07:44:42Z</time>
      </trkpt>
      <trkpt lat="44.99644" lon="4.49322">
        <ele>619</ele>
        <time>2015-12-07T07:44:47Z</time>
      </trkpt>
      <trkpt lat="44.99645" lon="4.49309">
        <ele>621</ele>
        <time>2015-12-07T07:44:57Z</time>
      </trkpt>
      <trkpt lat="44.99647" lon="4.49296">
        <ele>621</ele>
        <time>2015-12-07T07:45:01Z</time>
      </trkpt>
      <trkpt lat="44.99652" lon="4.49272">
        <ele>622</ele>
        <time>2015-12-07T07:45:06Z</time>
      </trkpt>
      <trkpt lat="44.99656" lon="4.49254">
        <ele>623</ele>
        <time>2015-12-07T07:45:10Z</time>
      </trkpt>
      <trkpt lat="44.9966" lon="4.49236">
        <ele>623</ele>
        <time>2015-12-07T07:45:14Z</time>
      </trkpt>
      <trkpt lat="44.99664" lon="4.49219">
        <ele>624</ele>
        <time>2015-12-07T07:45:17Z</time>
      </trkpt>
      <trkpt lat="44.9967" lon="4.4919">
        <ele>624</ele>
        <time>2015-12-07T07:45:22Z</time>
      </trkpt>
      <trkpt lat="44.99673" lon="4.49166">
        <ele>626</ele>
        <time>2015-12-07T07:45:26Z</time>
      </trkpt>
      <trkpt lat="44.99673" lon="4.49148">
        <ele>630</ele>
        <time>2015-12-07T07:45:29Z</time>
      </trkpt>
      <trkpt lat="44.99677" lon="4.49124">
        <ele>632</ele>
        <time>2015-12-07T07:45:33Z</time>
      </trkpt>
      <trkpt lat="44.99683" lon="4.49091">
        <ele>632</ele>
        <time>2015-12-07T07:45:38Z</time>
      </trkpt>
      <trkpt lat="44.99685" lon="4.49064">
        <ele>631</ele>
        <time>2015-12-07T07:45:42Z</time>
      </trkpt>
      <trkpt lat="44.99686" lon="4.49035">
        <ele>630</ele>
        <time>2015-12-07T07:45:46Z</time>
      </trkpt>
      <trkpt lat="44.99682" lon="4.49006">
        <ele>630</ele>
        <time>2015-12-07T07:45:50Z</time>
      </trkpt>
      <trkpt lat="44.99677" lon="4.48979">
        <ele>629</ele>
        <time>2015-12-07T07:45:54Z</time>
      </trkpt>
      <trkpt lat="44.99674" lon="4.48966">
        <ele>629</ele>
        <time>2015-12-07T07:45:56Z</time>
      </trkpt>
      <trkpt lat="44.99669" lon="4.48933">
        <ele>628</ele>
        <time>2015-12-07T07:46:01Z</time>
      </trkpt>
      <trkpt lat="44.99666" lon="4.48913">
        <ele>627</ele>
        <time>2015-12-07T07:46:04Z</time>
      </trkpt>
      <trkpt lat="44.99661" lon="4.48887">
        <ele>627</ele>
        <time>2015-12-07T07:46:08Z</time>
      </trkpt>
      <trkpt lat="44.99658" lon="4.48862">
        <ele>628</ele>
        <time>2015-12-07T07:46:12Z</time>
      </trkpt>
      <trkpt lat="44.99657" lon="4.48846">
        <ele>629</ele>
        <time>2015-12-07T07:46:15Z</time>
      </trkpt>
      <trkpt lat="44.99655" lon="4.48828">
        <ele>630</ele>
        <time>2015-12-07T07:46:19Z</time>
      </trkpt>
      <trkpt lat="44.99653" lon="4.48817">
        <ele>630</ele>
        <time>2015-12-07T07:46:22Z</time>
      </trkpt>
      <trkpt lat="44.99648" lon="4.48796">
        <ele>630</ele>
        <time>2015-12-07T07:46:26Z</time>
      </trkpt>
      <trkpt lat="44.99644" lon="4.48774">
        <ele>631</ele>
        <time>2015-12-07T07:46:30Z</time>
      </trkpt>
      <trkpt lat="44.99637" lon="4.48747">
        <ele>632</ele>
        <time>2015-12-07T07:46:35Z</time>
      </trkpt>
      <trkpt lat="44.99634" lon="4.48729">
        <ele>632</ele>
        <time>2015-12-07T07:46:39Z</time>
      </trkpt>
      <trkpt lat="44.99629" lon="4.48712">
        <ele>633</ele>
        <time>2015-12-07T07:46:43Z</time>
      </trkpt>
      <trkpt lat="44.99627" lon="4.48695">
        <ele>634</ele>
        <time>2015-12-07T07:46:47Z</time>
      </trkpt>
      <trkpt lat="44.99628" lon="4.48676">
        <ele>634</ele>
        <time>2015-12-07T07:46:51Z</time>
      </trkpt>
      <trkpt lat="44.99629" lon="4.48658">
        <ele>634</ele>
        <time>2015-12-07T07:46:55Z</time>
      </trkpt>
      <trkpt lat="44.99631" lon="4.48639">
        <ele>633</ele>
        <time>2015-12-07T07:46:59Z</time>
      </trkpt>
      <trkpt lat="44.99635" lon="4.48621">
        <ele>632</ele>
        <time>2015-12-07T07:47:03Z</time>
      </trkpt>
      <trkpt lat="44.99641" lon="4.48606">
        <ele>633</ele>
        <time>2015-12-07T07:47:07Z</time>
      </trkpt>
      <trkpt lat="44.99643" lon="4.48592">
        <ele>634</ele>
        <time>2015-12-07T07:47:10Z</time>
      </trkpt>
      <trkpt lat="44.99654" lon="4.4857">
        <ele>634</ele>
        <time>2015-12-07T07:47:15Z</time>
      </trkpt>
      <trkpt lat="44.99663" lon="4.48551">
        <ele>635</ele>
        <time>2015-12-07T07:47:19Z</time>
      </trkpt>
      <trkpt lat="44.99673" lon="4.48531">
        <ele>636</ele>
        <time>2015-12-07T07:47:24Z</time>
      </trkpt>
      <trkpt lat="44.99681" lon="4.48516">
        <ele>637</ele>
        <time>2015-12-07T07:47:29Z</time>
      </trkpt>
      <trkpt lat="44.99685" lon="4.48508">
        <ele>638</ele>
        <time>2015-12-07T07:47:33Z</time>
      </trkpt>
      <trkpt lat="44.99692" lon="4.485">
        <ele>639</ele>
        <time>2015-12-07T07:47:38Z</time>
      </trkpt>
      <trkpt lat="44.99696" lon="4.48494">
        <ele>639</ele>
        <time>2015-12-07T07:47:41Z</time>
      </trkpt>
      <trkpt lat="44.99696" lon="4.48481">
        <ele>640</ele>
        <time>2015-12-07T07:47:51Z</time>
      </trkpt>
      <trkpt lat="44.99696" lon="4.48469">
        <ele>641</ele>
        <time>2015-12-07T07:48:01Z</time>
      </trkpt>
      <trkpt lat="44.99694" lon="4.48459">
        <ele>641</ele>
        <time>2015-12-07T07:48:09Z</time>
      </trkpt>
      <trkpt lat="44.99688" lon="4.4845">
        <ele>641</ele>
        <time>2015-12-07T07:48:17Z</time>
      </trkpt>
      <trkpt lat="44.99684" lon="4.48445">
        <ele>642</ele>
        <time>2015-12-07T07:48:23Z</time>
      </trkpt>
      <trkpt lat="44.99677" lon="4.48443">
        <ele>642</ele>
        <time>2015-12-07T07:48:28Z</time>
      </trkpt>
      <trkpt lat="44.99668" lon="4.4844">
        <ele>643</ele>
        <time>2015-12-07T07:48:33Z</time>
      </trkpt>
      <trkpt lat="44.9966" lon="4.48435">
        <ele>644</ele>
        <time>2015-12-07T07:48:45Z</time>
      </trkpt>
      <trkpt lat="44.99651" lon="4.48431">
        <ele>645</ele>
        <time>2015-12-07T07:48:58Z</time>
      </trkpt>
      <trkpt lat="44.99644" lon="4.48429">
        <ele>646</ele>
        <time>2015-12-07T07:49:03Z</time>
      </trkpt>
      <trkpt lat="44.99637" lon="4.48424">
        <ele>647</ele>
        <time>2015-12-07T07:49:13Z</time>
      </trkpt>
      <trkpt lat="44.99633" lon="4.48424">
        <ele>647</ele>
        <time>2015-12-07T07:49:16Z</time>
      </trkpt>
      <trkpt lat="44.99622" lon="4.48424">
        <ele>648</ele>
        <time>2015-12-07T07:49:21Z</time>
      </trkpt>
      <trkpt lat="44.99613" lon="4.48422">
        <ele>648</ele>
        <time>2015-12-07T07:49:29Z</time>
      </trkpt>
      <trkpt lat="44.99607" lon="4.48415">
        <ele>653</ele>
        <time>2015-12-07T07:49:51Z</time>
      </trkpt>
      <trkpt lat="44.996" lon="4.48413">
        <ele>655</ele>
        <time>2015-12-07T07:50:02Z</time>
      </trkpt>
      <trkpt lat="44.99592" lon="4.48411">
        <ele>656</ele>
        <time>2015-12-07T07:50:06Z</time>
      </trkpt>
      <trkpt lat="44.99583" lon="4.48409">
        <ele>657</ele>
        <time>2015-12-07T07:50:11Z</time>
      </trkpt>
      <trkpt lat="44.99576" lon="4.48404">
        <ele>657</ele>
        <time>2015-12-07T07:50:18Z</time>
      </trkpt>
      <trkpt lat="44.9957" lon="4.48396">
        <ele>659</ele>
        <time>2015-12-07T07:50:25Z</time>
      </trkpt>
      <trkpt lat="44.99563" lon="4.4839">
        <ele>660</ele>
        <time>2015-12-07T07:50:31Z</time>
      </trkpt>
      <trkpt lat="44.99557" lon="4.48382">
        <ele>662</ele>
        <time>2015-12-07T07:50:37Z</time>
      </trkpt>
      <trkpt lat="44.9955" lon="4.48375">
        <ele>663</ele>
        <time>2015-12-07T07:50:43Z</time>
      </trkpt>
      <trkpt lat="44.99545" lon="4.48366">
        <ele>664</ele>
        <time>2015-12-07T07:50:49Z</time>
      </trkpt>
      <trkpt lat="44.99541" lon="4.48356">
        <ele>666</ele>
        <time>2015-12-07T07:50:56Z</time>
      </trkpt>
      <trkpt lat="44.99539" lon="4.48343">
        <ele>668</ele>
        <time>2015-12-07T07:51:03Z</time>
      </trkpt>
      <trkpt lat="44.99547" lon="4.48345">
        <ele>673</ele>
        <time>2015-12-07T07:51:27Z</time>
      </trkpt>
      <trkpt lat="44.99556" lon="4.48345">
        <ele>677</ele>
        <time>2015-12-07T07:51:37Z</time>
      </trkpt>
      <trkpt lat="44.99564" lon="4.48347">
        <ele>678</ele>
        <time>2015-12-07T07:51:44Z</time>
      </trkpt>
      <trkpt lat="44.99571" lon="4.48348">
        <ele>680</ele>
        <time>2015-12-07T07:51:49Z</time>
      </trkpt>
      <trkpt lat="44.99578" lon="4.48346">
        <ele>682</ele>
        <time>2015-12-07T07:51:55Z</time>
      </trkpt>
      <trkpt lat="44.99587" lon="4.48345">
        <ele>683</ele>
        <time>2015-12-07T07:52:02Z</time>
      </trkpt>
      <trkpt lat="44.99595" lon="4.4834">
        <ele>686</ele>
        <time>2015-12-07T07:52:09Z</time>
      </trkpt>
      <trkpt lat="44.99601" lon="4.48336">
        <ele>686</ele>
        <time>2015-12-07T07:52:14Z</time>
      </trkpt>
      <trkpt lat="44.99607" lon="4.48331">
        <ele>687</ele>
        <time>2015-12-07T07:52:19Z</time>
      </trkpt>
      <trkpt lat="44.99614" lon="4.48332">
        <ele>687</ele>
        <time>2015-12-07T07:52:24Z</time>
      </trkpt>
      <trkpt lat="44.99622" lon="4.48329">
        <ele>686</ele>
        <time>2015-12-07T07:52:32Z</time>
      </trkpt>
      <trkpt lat="44.99629" lon="4.48327">
        <ele>687</ele>
        <time>2015-12-07T07:52:38Z</time>
      </trkpt>
      <trkpt lat="44.99635" lon="4.48325">
        <ele>688</ele>
        <time>2015-12-07T07:52:43Z</time>
      </trkpt>
      <trkpt lat="44.99643" lon="4.48318">
        <ele>689</ele>
        <time>2015-12-07T07:52:50Z</time>
      </trkpt>
      <trkpt lat="44.99649" lon="4.48313">
        <ele>690</ele>
        <time>2015-12-07T07:52:56Z</time>
      </trkpt>
      <trkpt lat="44.99655" lon="4.48307">
        <ele>692</ele>
        <time>2015-12-07T07:53:05Z</time>
      </trkpt>
      <trkpt lat="44.99662" lon="4.48298">
        <ele>694</ele>
        <time>2015-12-07T07:53:15Z</time>
      </trkpt>
      <trkpt lat="44.99653" lon="4.48293">
        <ele>695</ele>
        <time>2015-12-07T07:53:33Z</time>
      </trkpt>
      <trkpt lat="44.99646" lon="4.48292">
        <ele>696</ele>
        <time>2015-12-07T07:53:40Z</time>
      </trkpt>
      <trkpt lat="44.99637" lon="4.48289">
        <ele>696</ele>
        <time>2015-12-07T07:53:45Z</time>
      </trkpt>
      <trkpt lat="44.9963" lon="4.48285">
        <ele>696</ele>
        <time>2015-12-07T07:53:50Z</time>
      </trkpt>
      <trkpt lat="44.99622" lon="4.4828">
        <ele>697</ele>
        <time>2015-12-07T07:53:58Z</time>
      </trkpt>
      <trkpt lat="44.99615" lon="4.48274">
        <ele>697</ele>
        <time>2015-12-07T07:54:05Z</time>
      </trkpt>
      <trkpt lat="44.99608" lon="4.48268">
        <ele>698</ele>
        <time>2015-12-07T07:54:13Z</time>
      </trkpt>
      <trkpt lat="44.99601" lon="4.48262">
        <ele>699</ele>
        <time>2015-12-07T07:54:23Z</time>
      </trkpt>
      <trkpt lat="44.99594" lon="4.48258">
        <ele>700</ele>
        <time>2015-12-07T07:54:28Z</time>
      </trkpt>
      <trkpt lat="44.9959" lon="4.4825">
        <ele>701</ele>
        <time>2015-12-07T07:54:37Z</time>
      </trkpt>
      <trkpt lat="44.99584" lon="4.4824">
        <ele>702</ele>
        <time>2015-12-07T07:54:44Z</time>
      </trkpt>
      <trkpt lat="44.99577" lon="4.48232">
        <ele>702</ele>
        <time>2015-12-07T07:54:49Z</time>
      </trkpt>
      <trkpt lat="44.99575" lon="4.48222">
        <ele>703</ele>
        <time>2015-12-07T07:54:55Z</time>
      </trkpt>
      <trkpt lat="44.99569" lon="4.48215">
        <ele>703</ele>
        <time>2015-12-07T07:55:00Z</time>
      </trkpt>
      <trkpt lat="44.99564" lon="4.48207">
        <ele>704</ele>
        <time>2015-12-07T07:55:07Z</time>
      </trkpt>
      <trkpt lat="44.99559" lon="4.48199">
        <ele>704</ele>
        <time>2015-12-07T07:55:13Z</time>
      </trkpt>
      <trkpt lat="44.99555" lon="4.48193">
        <ele>704</ele>
        <time>2015-12-07T07:55:20Z</time>
      </trkpt>
      <trkpt lat="44.9955" lon="4.48184">
        <ele>705</ele>
        <time>2015-12-07T07:55:26Z</time>
      </trkpt>
      <trkpt lat="44.99544" lon="4.48176">
        <ele>705</ele>
        <time>2015-12-07T07:55:32Z</time>
      </trkpt>
      <trkpt lat="44.99543" lon="4.48166">
        <ele>706</ele>
        <time>2015-12-07T07:55:37Z</time>
      </trkpt>
      <trkpt lat="44.99538" lon="4.48156">
        <ele>707</ele>
        <time>2015-12-07T07:55:54Z</time>
      </trkpt>
      <trkpt lat="44.99535" lon="4.48147">
        <ele>708</ele>
        <time>2015-12-07T07:56:01Z</time>
      </trkpt>
      <trkpt lat="44.99532" lon="4.48135">
        <ele>709</ele>
        <time>2015-12-07T07:56:08Z</time>
      </trkpt>
      <trkpt lat="44.99534" lon="4.48123">
        <ele>710</ele>
        <time>2015-12-07T07:56:16Z</time>
      </trkpt>
      <trkpt lat="44.99539" lon="4.48115">
        <ele>711</ele>
        <time>2015-12-07T07:56:23Z</time>
      </trkpt>
      <trkpt lat="44.99543" lon="4.48104">
        <ele>714</ele>
        <time>2015-12-07T07:56:36Z</time>
      </trkpt>
      <trkpt lat="44.99548" lon="4.48098">
        <ele>715</ele>
        <time>2015-12-07T07:56:41Z</time>
      </trkpt>
      <trkpt lat="44.99555" lon="4.48091">
        <ele>716</ele>
        <time>2015-12-07T07:56:49Z</time>
      </trkpt>
      <trkpt lat="44.99559" lon="4.48083">
        <ele>717</ele>
        <time>2015-12-07T07:56:55Z</time>
      </trkpt>
      <trkpt lat="44.99561" lon="4.48074">
        <ele>718</ele>
        <time>2015-12-07T07:57:00Z</time>
      </trkpt>
      <trkpt lat="44.99564" lon="4.48063">
        <ele>719</ele>
        <time>2015-12-07T07:57:07Z</time>
      </trkpt>
      <trkpt lat="44.99568" lon="4.48053">
        <ele>720</ele>
        <time>2015-12-07T07:57:16Z</time>
      </trkpt>
      <trkpt lat="44.99572" lon="4.48042">
        <ele>721</ele>
        <time>2015-12-07T07:57:23Z</time>
      </trkpt>
      <trkpt lat="44.99577" lon="4.48032">
        <ele>721</ele>
        <time>2015-12-07T07:57:32Z</time>
      </trkpt>
      <trkpt lat="44.99581" lon="4.48022">
        <ele>722</ele>
        <time>2015-12-07T07:57:43Z</time>
      </trkpt>
      <trkpt lat="44.99587" lon="4.48015">
        <ele>722</ele>
        <time>2015-12-07T07:57:48Z</time>
      </trkpt>
      <trkpt lat="44.99593" lon="4.48006">
        <ele>722</ele>
        <time>2015-12-07T07:57:56Z</time>
      </trkpt>
      <trkpt lat="44.99597" lon="4.47996">
        <ele>723</ele>
        <time>2015-12-07T07:58:03Z</time>
      </trkpt>
      <trkpt lat="44.99604" lon="4.47989">
        <ele>725</ele>
        <time>2015-12-07T07:58:08Z</time>
      </trkpt>
      <trkpt lat="44.99609" lon="4.47981">
        <ele>726</ele>
        <time>2015-12-07T07:58:15Z</time>
      </trkpt>
      <trkpt lat="44.99615" lon="4.47971">
        <ele>727</ele>
        <time>2015-12-07T07:58:23Z</time>
      </trkpt>
      <trkpt lat="44.99619" lon="4.47962">
        <ele>728</ele>
        <time>2015-12-07T07:58:32Z</time>
      </trkpt>
      <trkpt lat="44.99619" lon="4.4795">
        <ele>729</ele>
        <time>2015-12-07T07:58:43Z</time>
      </trkpt>
      <trkpt lat="44.9962" lon="4.47939">
        <ele>729</ele>
        <time>2015-12-07T07:58:49Z</time>
      </trkpt>
      <trkpt lat="44.99625" lon="4.47932">
        <ele>730</ele>
        <time>2015-12-07T07:58:54Z</time>
      </trkpt>
      <trkpt lat="44.99628" lon="4.47925">
        <ele>731</ele>
        <time>2015-12-07T07:59:10Z</time>
      </trkpt>
      <trkpt lat="44.99634" lon="4.47915">
        <ele>731</ele>
        <time>2015-12-07T07:59:16Z</time>
      </trkpt>
      <trkpt lat="44.99639" lon="4.47905">
        <ele>732</ele>
        <time>2015-12-07T07:59:26Z</time>
      </trkpt>
      <trkpt lat="44.99641" lon="4.47894">
        <ele>733</ele>
        <time>2015-12-07T07:59:35Z</time>
      </trkpt>
      <trkpt lat="44.99641" lon="4.47883">
        <ele>734</ele>
        <time>2015-12-07T07:59:42Z</time>
      </trkpt>
      <trkpt lat="44.99641" lon="4.47873">
        <ele>734</ele>
        <time>2015-12-07T07:59:49Z</time>
      </trkpt>
      <trkpt lat="44.9964" lon="4.4786">
        <ele>735</ele>
        <time>2015-12-07T07:59:59Z</time>
      </trkpt>
      <trkpt lat="44.99642" lon="4.47849">
        <ele>736</ele>
        <time>2015-12-07T08:00:06Z</time>
      </trkpt>
      <trkpt lat="44.99643" lon="4.4784">
        <ele>737</ele>
        <time>2015-12-07T08:00:12Z</time>
      </trkpt>
      <trkpt lat="44.99642" lon="4.47831">
        <ele>738</ele>
        <time>2015-12-07T08:00:21Z</time>
      </trkpt>
      <trkpt lat="44.99644" lon="4.47819">
        <ele>740</ele>
        <time>2015-12-07T08:00:29Z</time>
      </trkpt>
      <trkpt lat="44.99638" lon="4.47811">
        <ele>741</ele>
        <time>2015-12-07T08:00:37Z</time>
      </trkpt>
      <trkpt lat="44.99631" lon="4.47804">
        <ele>742</ele>
        <time>2015-12-07T08:00:43Z</time>
      </trkpt>
      <trkpt lat="44.99632" lon="4.47799">
        <ele>743</ele>
        <time>2015-12-07T08:00:55Z</time>
      </trkpt>
      <trkpt lat="44.99636" lon="4.47785">
        <ele>743</ele>
        <time>2015-12-07T08:00:59Z</time>
      </trkpt>
      <trkpt lat="44.99637" lon="4.47776">
        <ele>744</ele>
        <time>2015-12-07T08:01:04Z</time>
      </trkpt>
      <trkpt lat="44.99633" lon="4.47766">
        <ele>745</ele>
        <time>2015-12-07T08:01:09Z</time>
      </trkpt>
      <trkpt lat="44.9963" lon="4.47754">
        <ele>746</ele>
        <time>2015-12-07T08:01:16Z</time>
      </trkpt>
      <trkpt lat="44.99627" lon="4.47743">
        <ele>750</ele>
        <time>2015-12-07T08:01:27Z</time>
      </trkpt>
      <trkpt lat="44.99627" lon="4.47732">
        <ele>750</ele>
        <time>2015-12-07T08:01:35Z</time>
      </trkpt>
      <trkpt lat="44.99627" lon="4.4772">
        <ele>752</ele>
        <time>2015-12-07T08:01:43Z</time>
      </trkpt>
      <trkpt lat="44.99624" lon="4.4771">
        <ele>753</ele>
        <time>2015-12-07T08:01:52Z</time>
      </trkpt>
      <trkpt lat="44.99619" lon="4.47701">
        <ele>753</ele>
        <time>2015-12-07T08:01:58Z</time>
      </trkpt>
      <trkpt lat="44.99614" lon="4.47692">
        <ele>754</ele>
        <time>2015-12-07T08:02:15Z</time>
      </trkpt>
      <trkpt lat="44.9961" lon="4.4768">
        <ele>756</ele>
        <time>2015-12-07T08:02:19Z</time>
      </trkpt>
      <trkpt lat="44.99603" lon="4.47673">
        <ele>757</ele>
        <time>2015-12-07T08:02:24Z</time>
      </trkpt>
      <trkpt lat="44.99597" lon="4.47667">
        <ele>758</ele>
        <time>2015-12-07T08:02:31Z</time>
      </trkpt>
      <trkpt lat="44.99592" lon="4.47658">
        <ele>759</ele>
        <time>2015-12-07T08:02:38Z</time>
      </trkpt>
      <trkpt lat="44.99589" lon="4.47649">
        <ele>761</ele>
        <time>2015-12-07T08:02:44Z</time>
      </trkpt>
      <trkpt lat="44.99585" lon="4.47641">
        <ele>763</ele>
        <time>2015-12-07T08:02:50Z</time>
      </trkpt>
      <trkpt lat="44.99577" lon="4.47638">
        <ele>764</ele>
        <time>2015-12-07T08:02:57Z</time>
      </trkpt>
      <trkpt lat="44.99569" lon="4.47635">
        <ele>766</ele>
        <time>2015-12-07T08:03:03Z</time>
      </trkpt>
      <trkpt lat="44.99562" lon="4.47629">
        <ele>767</ele>
        <time>2015-12-07T08:03:17Z</time>
      </trkpt>
      <trkpt lat="44.99556" lon="4.47624">
        <ele>768</ele>
        <time>2015-12-07T08:03:23Z</time>
      </trkpt>
      <trkpt lat="44.99549" lon="4.47618">
        <ele>769</ele>
        <time>2015-12-07T08:03:30Z</time>
      </trkpt>
      <trkpt lat="44.99541" lon="4.47614">
        <ele>771</ele>
        <time>2015-12-07T08:03:39Z</time>
      </trkpt>
      <trkpt lat="44.99534" lon="4.4761">
        <ele>772</ele>
        <time>2015-12-07T08:03:46Z</time>
      </trkpt>
      <trkpt lat="44.99526" lon="4.47608">
        <ele>775</ele>
        <time>2015-12-07T08:03:52Z</time>
      </trkpt>
      <trkpt lat="44.99518" lon="4.47606">
        <ele>776</ele>
        <time>2015-12-07T08:03:57Z</time>
      </trkpt>
      <trkpt lat="44.9951" lon="4.47605">
        <ele>777</ele>
        <time>2015-12-07T08:04:03Z</time>
      </trkpt>
      <trkpt lat="44.99502" lon="4.47605">
        <ele>779</ele>
        <time>2015-12-07T08:04:09Z</time>
      </trkpt>
      <trkpt lat="44.99495" lon="4.47604">
        <ele>781</ele>
        <time>2015-12-07T08:04:16Z</time>
      </trkpt>
      <trkpt lat="44.99488" lon="4.476">
        <ele>782</ele>
        <time>2015-12-07T08:04:21Z</time>
      </trkpt>
      <trkpt lat="44.9948" lon="4.47597">
        <ele>784</ele>
        <time>2015-12-07T08:04:29Z</time>
      </trkpt>
      <trkpt lat="44.99472" lon="4.47594">
        <ele>785</ele>
        <time>2015-12-07T08:04:35Z</time>
      </trkpt>
      <trkpt lat="44.99466" lon="4.47585">
        <ele>788</ele>
        <time>2015-12-07T08:04:47Z</time>
      </trkpt>
      <trkpt lat="44.99459" lon="4.4758">
        <ele>789</ele>
        <time>2015-12-07T08:04:52Z</time>
      </trkpt>
      <trkpt lat="44.99453" lon="4.47573">
        <ele>790</ele>
        <time>2015-12-07T08:05:02Z</time>
      </trkpt>
      <trkpt lat="44.99448" lon="4.47563">
        <ele>792</ele>
        <time>2015-12-07T08:05:09Z</time>
      </trkpt>
      <trkpt lat="44.99443" lon="4.47554">
        <ele>793</ele>
        <time>2015-12-07T08:05:15Z</time>
      </trkpt>
      <trkpt lat="44.99439" lon="4.47546">
        <ele>794</ele>
        <time>2015-12-07T08:05:21Z</time>
      </trkpt>
      <trkpt lat="44.99431" lon="4.4754">
        <ele>795</ele>
        <time>2015-12-07T08:05:27Z</time>
      </trkpt>
      <trkpt lat="44.99427" lon="4.47533">
        <ele>796</ele>
        <time>2015-12-07T08:05:37Z</time>
      </trkpt>
      <trkpt lat="44.99421" lon="4.47525">
        <ele>798</ele>
        <time>2015-12-07T08:05:43Z</time>
      </trkpt>
      <trkpt lat="44.99414" lon="4.47517">
        <ele>799</ele>
        <time>2015-12-07T08:05:50Z</time>
      </trkpt>
      <trkpt lat="44.99411" lon="4.47505">
        <ele>800</ele>
        <time>2015-12-07T08:05:59Z</time>
      </trkpt>
      <trkpt lat="44.99406" lon="4.47496">
        <ele>802</ele>
        <time>2015-12-07T08:06:04Z</time>
      </trkpt>
      <trkpt lat="44.99399" lon="4.4749">
        <ele>804</ele>
        <time>2015-12-07T08:06:10Z</time>
      </trkpt>
      <trkpt lat="44.99393" lon="4.47483">
        <ele>807</ele>
        <time>2015-12-07T08:06:18Z</time>
      </trkpt>
      <trkpt lat="44.99386" lon="4.47476">
        <ele>809</ele>
        <time>2015-12-07T08:06:27Z</time>
      </trkpt>
      <trkpt lat="44.99379" lon="4.47469">
        <ele>812</ele>
        <time>2015-12-07T08:06:35Z</time>
      </trkpt>
      <trkpt lat="44.99374" lon="4.4746">
        <ele>814</ele>
        <time>2015-12-07T08:06:44Z</time>
      </trkpt>
      <trkpt lat="44.9937" lon="4.47449">
        <ele>818</ele>
        <time>2015-12-07T08:06:54Z</time>
      </trkpt>
      <trkpt lat="44.99366" lon="4.47438">
        <ele>820</ele>
        <time>2015-12-07T08:07:01Z</time>
      </trkpt>
      <trkpt lat="44.99365" lon="4.47429">
        <ele>821</ele>
        <time>2015-12-07T08:07:05Z</time>
      </trkpt>
      <trkpt lat="44.99363" lon="4.4742">
        <ele>821</ele>
        <time>2015-12-07T08:07:09Z</time>
      </trkpt>
      <trkpt lat="44.99359" lon="4.4741">
        <ele>823</ele>
        <time>2015-12-07T08:07:16Z</time>
      </trkpt>
      <trkpt lat="44.99359" lon="4.47397">
        <ele>824</ele>
        <time>2015-12-07T08:07:23Z</time>
      </trkpt>
      <trkpt lat="44.99359" lon="4.47385">
        <ele>825</ele>
        <time>2015-12-07T08:07:31Z</time>
      </trkpt>
      <trkpt lat="44.99359" lon="4.47375">
        <ele>826</ele>
        <time>2015-12-07T08:07:34Z</time>
      </trkpt>
      <trkpt lat="44.99359" lon="4.47361">
        <ele>826</ele>
        <time>2015-12-07T08:07:39Z</time>
      </trkpt>
      <trkpt lat="44.9936" lon="4.47351">
        <ele>827</ele>
        <time>2015-12-07T08:07:43Z</time>
      </trkpt>
      <trkpt lat="44.99359" lon="4.47337">
        <ele>827</ele>
        <time>2015-12-07T08:07:48Z</time>
      </trkpt>
      <trkpt lat="44.99359" lon="4.47329">
        <ele>827</ele>
        <time>2015-12-07T08:07:51Z</time>
      </trkpt>
      <trkpt lat="44.99359" lon="4.47317">
        <ele>827</ele>
        <time>2015-12-07T08:07:55Z</time>
      </trkpt>
      <trkpt lat="44.9936" lon="4.47301">
        <ele>826</ele>
        <time>2015-12-07T08:08:00Z</time>
      </trkpt>
      <trkpt lat="44.99359" lon="4.47291">
        <ele>825</ele>
        <time>2015-12-07T08:08:03Z</time>
      </trkpt>
      <trkpt lat="44.99358" lon="4.47279">
        <ele>825</ele>
        <time>2015-12-07T08:08:08Z</time>
      </trkpt>
      <trkpt lat="44.9936" lon="4.47269">
        <ele>825</ele>
        <time>2015-12-07T08:08:12Z</time>
      </trkpt>
      <trkpt lat="44.99361" lon="4.47257">
        <ele>824</ele>
        <time>2015-12-07T08:08:16Z</time>
      </trkpt>
      <trkpt lat="44.99362" lon="4.47245">
        <ele>825</ele>
        <time>2015-12-07T08:08:21Z</time>
      </trkpt>
      <trkpt lat="44.99362" lon="4.47234">
        <ele>825</ele>
        <time>2015-12-07T08:08:25Z</time>
      </trkpt>
      <trkpt lat="44.99364" lon="4.47222">
        <ele>826</ele>
        <time>2015-12-07T08:08:30Z</time>
      </trkpt>
      <trkpt lat="44.99364" lon="4.47207">
        <ele>826</ele>
        <time>2015-12-07T08:08:35Z</time>
      </trkpt>
      <trkpt lat="44.99364" lon="4.47196">
        <ele>827</ele>
        <time>2015-12-07T08:08:39Z</time>
      </trkpt>
      <trkpt lat="44.99365" lon="4.47186">
        <ele>827</ele>
        <time>2015-12-07T08:08:43Z</time>
      </trkpt>
      <trkpt lat="44.99366" lon="4.47173">
        <ele>828</ele>
        <time>2015-12-07T08:08:47Z</time>
      </trkpt>
      <trkpt lat="44.99369" lon="4.47161">
        <ele>829</ele>
        <time>2015-12-07T08:08:51Z</time>
      </trkpt>
      <trkpt lat="44.9937" lon="4.47151">
        <ele>829</ele>
        <time>2015-12-07T08:08:54Z</time>
      </trkpt>
      <trkpt lat="44.99371" lon="4.47139">
        <ele>830</ele>
        <time>2015-12-07T08:08:58Z</time>
      </trkpt>
      <trkpt lat="44.99371" lon="4.47124">
        <ele>831</ele>
        <time>2015-12-07T08:09:02Z</time>
      </trkpt>
      <trkpt lat="44.99372" lon="4.47111">
        <ele>832</ele>
        <time>2015-12-07T08:09:06Z</time>
      </trkpt>
      <trkpt lat="44.99371" lon="4.47094">
        <ele>833</ele>
        <time>2015-12-07T08:09:11Z</time>
      </trkpt>
      <trkpt lat="44.99367" lon="4.47087">
        <ele>833</ele>
        <time>2015-12-07T08:09:14Z</time>
      </trkpt>
      <trkpt lat="44.99362" lon="4.47079">
        <ele>833</ele>
        <time>2015-12-07T08:09:18Z</time>
      </trkpt>
      <trkpt lat="44.99357" lon="4.47072">
        <ele>833</ele>
        <time>2015-12-07T08:09:21Z</time>
      </trkpt>
      <trkpt lat="44.99352" lon="4.47061">
        <ele>832</ele>
        <time>2015-12-07T08:09:25Z</time>
      </trkpt>
      <trkpt lat="44.99349" lon="4.47054">
        <ele>832</ele>
        <time>2015-12-07T08:09:28Z</time>
      </trkpt>
      <trkpt lat="44.99345" lon="4.47044">
        <ele>831</ele>
        <time>2015-12-07T08:09:32Z</time>
      </trkpt>
      <trkpt lat="44.99341" lon="4.47035">
        <ele>831</ele>
        <time>2015-12-07T08:09:36Z</time>
      </trkpt>
      <trkpt lat="44.99337" lon="4.47025">
        <ele>832</ele>
        <time>2015-12-07T08:09:40Z</time>
      </trkpt>
      <trkpt lat="44.99333" lon="4.47017">
        <ele>833</ele>
        <time>2015-12-07T08:09:44Z</time>
      </trkpt>
      <trkpt lat="44.99329" lon="4.47001">
        <ele>832</ele>
        <time>2015-12-07T08:09:49Z</time>
      </trkpt>
      <trkpt lat="44.99325" lon="4.46991">
        <ele>832</ele>
        <time>2015-12-07T08:09:53Z</time>
      </trkpt>
      <trkpt lat="44.9932" lon="4.46983">
        <ele>833</ele>
        <time>2015-12-07T08:09:58Z</time>
      </trkpt>
      <trkpt lat="44.99319" lon="4.46973">
        <ele>834</ele>
        <time>2015-12-07T08:10:03Z</time>
      </trkpt>
      <trkpt lat="44.99316" lon="4.46964">
        <ele>834</ele>
        <time>2015-12-07T08:10:07Z</time>
      </trkpt>
      <trkpt lat="44.99311" lon="4.46951">
        <ele>835</ele>
        <time>2015-12-07T08:10:12Z</time>
      </trkpt>
      <trkpt lat="44.99305" lon="4.46943">
        <ele>835</ele>
        <time>2015-12-07T08:10:16Z</time>
      </trkpt>
      <trkpt lat="44.993" lon="4.46935">
        <ele>836</ele>
        <time>2015-12-07T08:10:20Z</time>
      </trkpt>
      <trkpt lat="44.9929" lon="4.46923">
        <ele>837</ele>
        <time>2015-12-07T08:10:25Z</time>
      </trkpt>
      <trkpt lat="44.99286" lon="4.46915">
        <ele>838</ele>
        <time>2015-12-07T08:10:29Z</time>
      </trkpt>
      <trkpt lat="44.99281" lon="4.46908">
        <ele>839</ele>
        <time>2015-12-07T08:10:34Z</time>
      </trkpt>
      <trkpt lat="44.99273" lon="4.46904">
        <ele>841</ele>
        <time>2015-12-07T08:10:43Z</time>
      </trkpt>
      <trkpt lat="44.99271" lon="4.46894">
        <ele>843</ele>
        <time>2015-12-07T08:10:57Z</time>
      </trkpt>
      <trkpt lat="44.99268" lon="4.46886">
        <ele>844</ele>
        <time>2015-12-07T08:11:00Z</time>
      </trkpt>
      <trkpt lat="44.99261" lon="4.46881">
        <ele>845</ele>
        <time>2015-12-07T08:11:04Z</time>
      </trkpt>
      <trkpt lat="44.99256" lon="4.46875">
        <ele>845</ele>
        <time>2015-12-07T08:11:09Z</time>
      </trkpt>
      <trkpt lat="44.99253" lon="4.46872">
        <ele>845</ele>
        <time>2015-12-07T08:11:14Z</time>
      </trkpt>
      <trkpt lat="44.99247" lon="4.46859">
        <ele>846</ele>
        <time>2015-12-07T08:11:18Z</time>
      </trkpt>
      <trkpt lat="44.99245" lon="4.46854">
        <ele>846</ele>
        <time>2015-12-07T08:11:20Z</time>
      </trkpt>
      <trkpt lat="44.99234" lon="4.46814">
        <ele>846</ele>
        <time>2015-12-07T08:11:28Z</time>
      </trkpt>
      <trkpt lat="44.99224" lon="4.46819">
        <ele>846</ele>
        <time>2015-12-07T08:11:32Z</time>
      </trkpt>
      <trkpt lat="44.99218" lon="4.46812">
        <ele>847</ele>
        <time>2015-12-07T08:11:37Z</time>
      </trkpt>
      <trkpt lat="44.99214" lon="4.46805">
        <ele>847</ele>
        <time>2015-12-07T08:11:41Z</time>
      </trkpt>
      <trkpt lat="44.99211" lon="4.46795">
        <ele>847</ele>
        <time>2015-12-07T08:11:45Z</time>
      </trkpt>
      <trkpt lat="44.99208" lon="4.46784">
        <ele>847</ele>
        <time>2015-12-07T08:11:50Z</time>
      </trkpt>
      <trkpt lat="44.99203" lon="4.46775">
        <ele>846</ele>
        <time>2015-12-07T08:11:55Z</time>
      </trkpt>
      <trkpt lat="44.992" lon="4.46764">
        <ele>846</ele>
        <time>2015-12-07T08:12:00Z</time>
      </trkpt>
      <trkpt lat="44.99201" lon="4.46755">
        <ele>846</ele>
        <time>2015-12-07T08:12:04Z</time>
      </trkpt>
      <trkpt lat="44.99198" lon="4.46744">
        <ele>847</ele>
        <time>2015-12-07T08:12:08Z</time>
      </trkpt>
      <trkpt lat="44.99189" lon="4.46732">
        <ele>847</ele>
        <time>2015-12-07T08:12:13Z</time>
      </trkpt>
      <trkpt lat="44.99181" lon="4.4672">
        <ele>847</ele>
        <time>2015-12-07T08:12:17Z</time>
      </trkpt>
      <trkpt lat="44.99174" lon="4.46706">
        <ele>848</ele>
        <time>2015-12-07T08:12:22Z</time>
      </trkpt>
      <trkpt lat="44.99169" lon="4.46698">
        <ele>848</ele>
        <time>2015-12-07T08:12:25Z</time>
      </trkpt>
      <trkpt lat="44.99164" lon="4.46684">
        <ele>848</ele>
        <time>2015-12-07T08:12:29Z</time>
      </trkpt>
      <trkpt lat="44.99159" lon="4.46674">
        <ele>849</ele>
        <time>2015-12-07T08:12:34Z</time>
      </trkpt>
      <trkpt lat="44.99152" lon="4.46665">
        <ele>849</ele>
        <time>2015-12-07T08:12:39Z</time>
      </trkpt>
      <trkpt lat="44.99145" lon="4.46661">
        <ele>850</ele>
        <time>2015-12-07T08:12:43Z</time>
      </trkpt>
      <trkpt lat="44.99134" lon="4.46658">
        <ele>850</ele>
        <time>2015-12-07T08:12:48Z</time>
      </trkpt>
      <trkpt lat="44.99123" lon="4.46658">
        <ele>851</ele>
        <time>2015-12-07T08:12:52Z</time>
      </trkpt>
      <trkpt lat="44.99115" lon="4.46658">
        <ele>851</ele>
        <time>2015-12-07T08:12:55Z</time>
      </trkpt>
      <trkpt lat="44.99107" lon="4.46656">
        <ele>852</ele>
        <time>2015-12-07T08:12:59Z</time>
      </trkpt>
      <trkpt lat="44.99097" lon="4.46659">
        <ele>852</ele>
        <time>2015-12-07T08:13:03Z</time>
      </trkpt>
      <trkpt lat="44.99088" lon="4.46663">
        <ele>852</ele>
        <time>2015-12-07T08:13:07Z</time>
      </trkpt>
      <trkpt lat="44.99076" lon="4.46665">
        <ele>853</ele>
        <time>2015-12-07T08:13:11Z</time>
      </trkpt>
      <trkpt lat="44.99065" lon="4.46664">
        <ele>853</ele>
        <time>2015-12-07T08:13:15Z</time>
      </trkpt>
      <trkpt lat="44.99054" lon="4.46658">
        <ele>854</ele>
        <time>2015-12-07T08:13:19Z</time>
      </trkpt>
      <trkpt lat="44.99046" lon="4.4665">
        <ele>855</ele>
        <time>2015-12-07T08:13:23Z</time>
      </trkpt>
      <trkpt lat="44.9904" lon="4.46638">
        <ele>855</ele>
        <time>2015-12-07T08:13:27Z</time>
      </trkpt>
      <trkpt lat="44.99032" lon="4.46628">
        <ele>856</ele>
        <time>2015-12-07T08:13:30Z</time>
      </trkpt>
      <trkpt lat="44.9903" lon="4.46617">
        <ele>857</ele>
        <time>2015-12-07T08:13:34Z</time>
      </trkpt>
      <trkpt lat="44.99026" lon="4.46605">
        <ele>858</ele>
        <time>2015-12-07T08:13:38Z</time>
      </trkpt>
      <trkpt lat="44.99022" lon="4.46597">
        <ele>859</ele>
        <time>2015-12-07T08:13:41Z</time>
      </trkpt>
      <trkpt lat="44.9902" lon="4.46585">
        <ele>860</ele>
        <time>2015-12-07T08:13:45Z</time>
      </trkpt>
      <trkpt lat="44.99016" lon="4.46572">
        <ele>861</ele>
        <time>2015-12-07T08:13:49Z</time>
      </trkpt>
      <trkpt lat="44.99015" lon="4.46558">
        <ele>862</ele>
        <time>2015-12-07T08:13:54Z</time>
      </trkpt>
      <trkpt lat="44.99014" lon="4.4655">
        <ele>862</ele>
        <time>2015-12-07T08:13:57Z</time>
      </trkpt>
      <trkpt lat="44.99008" lon="4.46534">
        <ele>863</ele>
        <time>2015-12-07T08:14:01Z</time>
      </trkpt>
      <trkpt lat="44.99002" lon="4.46521">
        <ele>864</ele>
        <time>2015-12-07T08:14:05Z</time>
      </trkpt>
      <trkpt lat="44.98998" lon="4.46508">
        <ele>864</ele>
        <time>2015-12-07T08:14:09Z</time>
      </trkpt>
      <trkpt lat="44.98992" lon="4.46492">
        <ele>865</ele>
        <time>2015-12-07T08:14:13Z</time>
      </trkpt>
      <trkpt lat="44.98986" lon="4.46479">
        <ele>866</ele>
        <time>2015-12-07T08:14:17Z</time>
      </trkpt>
      <trkpt lat="44.98982" lon="4.46469">
        <ele>867</ele>
        <time>2015-12-07T08:14:21Z</time>
      </trkpt>
      <trkpt lat="44.98978" lon="4.46457">
        <ele>867</ele>
        <time>2015-12-07T08:14:25Z</time>
      </trkpt>
      <trkpt lat="44.98969" lon="4.4644">
        <ele>868</ele>
        <time>2015-12-07T08:14:29Z</time>
      </trkpt>
      <trkpt lat="44.98963" lon="4.46426">
        <ele>870</ele>
        <time>2015-12-07T08:14:33Z</time>
      </trkpt>
      <trkpt lat="44.98955" lon="4.46409">
        <ele>870</ele>
        <time>2015-12-07T08:14:37Z</time>
      </trkpt>
      <trkpt lat="44.9895" lon="4.46395">
        <ele>871</ele>
        <time>2015-12-07T08:14:41Z</time>
      </trkpt>
      <trkpt lat="44.98943" lon="4.46378">
        <ele>870</ele>
        <time>2015-12-07T08:14:44Z</time>
      </trkpt>
      <trkpt lat="44.98936" lon="4.46365">
        <ele>869</ele>
        <time>2015-12-07T08:14:48Z</time>
      </trkpt>
      <trkpt lat="44.98926" lon="4.46349">
        <ele>871</ele>
        <time>2015-12-07T08:14:53Z</time>
      </trkpt>
      <trkpt lat="44.98918" lon="4.46337">
        <ele>872</ele>
        <time>2015-12-07T08:14:58Z</time>
      </trkpt>
      <trkpt lat="44.98914" lon="4.4633">
        <ele>872</ele>
        <time>2015-12-07T08:15:01Z</time>
      </trkpt>
      <trkpt lat="44.98906" lon="4.46318">
        <ele>872</ele>
        <time>2015-12-07T08:15:05Z</time>
      </trkpt>
      <trkpt lat="44.98901" lon="4.4631">
        <ele>873</ele>
        <time>2015-12-07T08:15:08Z</time>
      </trkpt>
      <trkpt lat="44.98894" lon="4.46297">
        <ele>874</ele>
        <time>2015-12-07T08:15:13Z</time>
      </trkpt>
      <trkpt lat="44.98888" lon="4.46288">
        <ele>874</ele>
        <time>2015-12-07T08:15:17Z</time>
      </trkpt>
      <trkpt lat="44.98882" lon="4.46277">
        <ele>874</ele>
        <time>2015-12-07T08:15:21Z</time>
      </trkpt>
      <trkpt lat="44.98879" lon="4.46267">
        <ele>874</ele>
        <time>2015-12-07T08:15:25Z</time>
      </trkpt>
      <trkpt lat="44.98877" lon="4.4626">
        <ele>874</ele>
        <time>2015-12-07T08:15:28Z</time>
      </trkpt>
      <trkpt lat="44.9887" lon="4.46248">
        <ele>875</ele>
        <time>2015-12-07T08:15:33Z</time>
      </trkpt>
      <trkpt lat="44.98864" lon="4.46237">
        <ele>876</ele>
        <time>2015-12-07T08:15:37Z</time>
      </trkpt>
      <trkpt lat="44.98861" lon="4.46225">
        <ele>878</ele>
        <time>2015-12-07T08:15:41Z</time>
      </trkpt>
      <trkpt lat="44.98857" lon="4.46214">
        <ele>878</ele>
        <time>2015-12-07T08:15:45Z</time>
      </trkpt>
      <trkpt lat="44.98854" lon="4.462">
        <ele>879</ele>
        <time>2015-12-07T08:15:49Z</time>
      </trkpt>
      <trkpt lat="44.9885" lon="4.46186">
        <ele>879</ele>
        <time>2015-12-07T08:15:53Z</time>
      </trkpt>
      <trkpt lat="44.98846" lon="4.46174">
        <ele>881</ele>
        <time>2015-12-07T08:15:57Z</time>
      </trkpt>
      <trkpt lat="44.98843" lon="4.46163">
        <ele>881</ele>
        <time>2015-12-07T08:16:01Z</time>
      </trkpt>
      <trkpt lat="44.98839" lon="4.46153">
        <ele>882</ele>
        <time>2015-12-07T08:16:04Z</time>
      </trkpt>
      <trkpt lat="44.98837" lon="4.46139">
        <ele>882</ele>
        <time>2015-12-07T08:16:08Z</time>
      </trkpt>
      <trkpt lat="44.98836" lon="4.46129">
        <ele>883</ele>
        <time>2015-12-07T08:16:11Z</time>
      </trkpt>
      <trkpt lat="44.98837" lon="4.46113">
        <ele>884</ele>
        <time>2015-12-07T08:16:16Z</time>
      </trkpt>
      <trkpt lat="44.98839" lon="4.46101">
        <ele>885</ele>
        <time>2015-12-07T08:16:19Z</time>
      </trkpt>
      <trkpt lat="44.98841" lon="4.46082">
        <ele>885</ele>
        <time>2015-12-07T08:16:23Z</time>
      </trkpt>
      <trkpt lat="44.98841" lon="4.46065">
        <ele>885</ele>
        <time>2015-12-07T08:16:27Z</time>
      </trkpt>
      <trkpt lat="44.98841" lon="4.46049">
        <ele>885</ele>
        <time>2015-12-07T08:16:31Z</time>
      </trkpt>
      <trkpt lat="44.9884" lon="4.46036">
        <ele>886</ele>
        <time>2015-12-07T08:16:35Z</time>
      </trkpt>
      <trkpt lat="44.9884" lon="4.46022">
        <ele>887</ele>
        <time>2015-12-07T08:16:38Z</time>
      </trkpt>
      <trkpt lat="44.98837" lon="4.46009">
        <ele>888</ele>
        <time>2015-12-07T08:16:41Z</time>
      </trkpt>
      <trkpt lat="44.98838" lon="4.45993">
        <ele>888</ele>
        <time>2015-12-07T08:16:45Z</time>
      </trkpt>
      <trkpt lat="44.98844" lon="4.45975">
        <ele>888</ele>
        <time>2015-12-07T08:16:50Z</time>
      </trkpt>
      <trkpt lat="44.98847" lon="4.4595">
        <ele>886</ele>
        <time>2015-12-07T08:16:54Z</time>
      </trkpt>
      <trkpt lat="44.98849" lon="4.45928">
        <ele>884</ele>
        <time>2015-12-07T08:16:58Z</time>
      </trkpt>
      <trkpt lat="44.98852" lon="4.45907">
        <ele>883</ele>
        <time>2015-12-07T08:17:02Z</time>
      </trkpt>
      <trkpt lat="44.98854" lon="4.45893">
        <ele>882</ele>
        <time>2015-12-07T08:17:05Z</time>
      </trkpt>
      <trkpt lat="44.98858" lon="4.45875">
        <ele>881</ele>
        <time>2015-12-07T08:17:09Z</time>
      </trkpt>
      <trkpt lat="44.98859" lon="4.45855">
        <ele>879</ele>
        <time>2015-12-07T08:17:13Z</time>
      </trkpt>
      <trkpt lat="44.98859" lon="4.45834">
        <ele>878</ele>
        <time>2015-12-07T08:17:17Z</time>
      </trkpt>
      <trkpt lat="44.98858" lon="4.45808">
        <ele>876</ele>
        <time>2015-12-07T08:17:22Z</time>
      </trkpt>
      <trkpt lat="44.9886" lon="4.45789">
        <ele>876</ele>
        <time>2015-12-07T08:17:26Z</time>
      </trkpt>
      <trkpt lat="44.98859" lon="4.45776">
        <ele>875</ele>
        <time>2015-12-07T08:17:29Z</time>
      </trkpt>
      <trkpt lat="44.98862" lon="4.45758">
        <ele>875</ele>
        <time>2015-12-07T08:17:33Z</time>
      </trkpt>
      <trkpt lat="44.98863" lon="4.4574">
        <ele>875</ele>
        <time>2015-12-07T08:17:37Z</time>
      </trkpt>
      <trkpt lat="44.98862" lon="4.4572">
        <ele>874</ele>
        <time>2015-12-07T08:17:41Z</time>
      </trkpt>
      <trkpt lat="44.98862" lon="4.45699">
        <ele>874</ele>
        <time>2015-12-07T08:17:45Z</time>
      </trkpt>
      <trkpt lat="44.98862" lon="4.4568">
        <ele>874</ele>
        <time>2015-12-07T08:17:49Z</time>
      </trkpt>
      <trkpt lat="44.98861" lon="4.45656">
        <ele>874</ele>
        <time>2015-12-07T08:17:54Z</time>
      </trkpt>
      <trkpt lat="44.98859" lon="4.45639">
        <ele>873</ele>
        <time>2015-12-07T08:17:58Z</time>
      </trkpt>
      <trkpt lat="44.98858" lon="4.45619">
        <ele>873</ele>
        <time>2015-12-07T08:18:02Z</time>
      </trkpt>
      <trkpt lat="44.98854" lon="4.45608">
        <ele>873</ele>
        <time>2015-12-07T08:18:05Z</time>
      </trkpt>
      <trkpt lat="44.98847" lon="4.45598">
        <ele>873</ele>
        <time>2015-12-07T08:18:10Z</time>
      </trkpt>
      <trkpt lat="44.9884" lon="4.45589">
        <ele>874</ele>
        <time>2015-12-07T08:18:14Z</time>
      </trkpt>
      <trkpt lat="44.98833" lon="4.45576">
        <ele>876</ele>
        <time>2015-12-07T08:18:19Z</time>
      </trkpt>
      <trkpt lat="44.98828" lon="4.45564">
        <ele>877</ele>
        <time>2015-12-07T08:18:23Z</time>
      </trkpt>
      <trkpt lat="44.98821" lon="4.45553">
        <ele>877</ele>
        <time>2015-12-07T08:18:27Z</time>
      </trkpt>
      <trkpt lat="44.98812" lon="4.45542">
        <ele>878</ele>
        <time>2015-12-07T08:18:31Z</time>
      </trkpt>
      <trkpt lat="44.98805" lon="4.45531">
        <ele>878</ele>
        <time>2015-12-07T08:18:35Z</time>
      </trkpt>
      <trkpt lat="44.98795" lon="4.45523">
        <ele>878</ele>
        <time>2015-12-07T08:18:39Z</time>
      </trkpt>
      <trkpt lat="44.98786" lon="4.45517">
        <ele>878</ele>
        <time>2015-12-07T08:18:43Z</time>
      </trkpt>
      <trkpt lat="44.98777" lon="4.45515">
        <ele>881</ele>
        <time>2015-12-07T08:18:48Z</time>
      </trkpt>
      <trkpt lat="44.98769" lon="4.45514">
        <ele>882</ele>
        <time>2015-12-07T08:18:55Z</time>
      </trkpt>
      <trkpt lat="44.98762" lon="4.45513">
        <ele>883</ele>
        <time>2015-12-07T08:19:02Z</time>
      </trkpt>
      <trkpt lat="44.98755" lon="4.45513">
        <ele>883</ele>
        <time>2015-12-07T08:19:07Z</time>
      </trkpt>
      <trkpt lat="44.98747" lon="4.45512">
        <ele>884</ele>
        <time>2015-12-07T08:19:13Z</time>
      </trkpt>
      <trkpt lat="44.9874" lon="4.4551">
        <ele>885</ele>
        <time>2015-12-07T08:19:21Z</time>
      </trkpt>
      <trkpt lat="44.98734" lon="4.4551">
        <ele>886</ele>
        <time>2015-12-07T08:19:27Z</time>
      </trkpt>
      <trkpt lat="44.98726" lon="4.45511">
        <ele>887</ele>
        <time>2015-12-07T08:19:33Z</time>
      </trkpt>
      <trkpt lat="44.98718" lon="4.45513">
        <ele>887</ele>
        <time>2015-12-07T08:19:42Z</time>
      </trkpt>
      <trkpt lat="44.98711" lon="4.45508">
        <ele>889</ele>
        <time>2015-12-07T08:19:49Z</time>
      </trkpt>
      <trkpt lat="44.98703" lon="4.45505">
        <ele>890</ele>
        <time>2015-12-07T08:19:57Z</time>
      </trkpt>
      <trkpt lat="44.98695" lon="4.45503">
        <ele>891</ele>
        <time>2015-12-07T08:20:03Z</time>
      </trkpt>
      <trkpt lat="44.98689" lon="4.45504">
        <ele>892</ele>
        <time>2015-12-07T08:20:07Z</time>
      </trkpt>
      <trkpt lat="44.98682" lon="4.45506">
        <ele>893</ele>
        <time>2015-12-07T08:20:11Z</time>
      </trkpt>
      <trkpt lat="44.98675" lon="4.45507">
        <ele>894</ele>
        <time>2015-12-07T08:20:17Z</time>
      </trkpt>
      <trkpt lat="44.9867" lon="4.45508">
        <ele>896</ele>
        <time>2015-12-07T08:20:23Z</time>
      </trkpt>
      <trkpt lat="44.98663" lon="4.45507">
        <ele>896</ele>
        <time>2015-12-07T08:20:27Z</time>
      </trkpt>
      <trkpt lat="44.98657" lon="4.45507">
        <ele>897</ele>
        <time>2015-12-07T08:20:31Z</time>
      </trkpt>
      <trkpt lat="44.9865" lon="4.45509">
        <ele>898</ele>
        <time>2015-12-07T08:20:35Z</time>
      </trkpt>
      <trkpt lat="44.98643" lon="4.45508">
        <ele>899</ele>
        <time>2015-12-07T08:20:43Z</time>
      </trkpt>
      <trkpt lat="44.98635" lon="4.45506">
        <ele>901</ele>
        <time>2015-12-07T08:20:49Z</time>
      </trkpt>
      <trkpt lat="44.98628" lon="4.45503">
        <ele>902</ele>
        <time>2015-12-07T08:20:55Z</time>
      </trkpt>
      <trkpt lat="44.98622" lon="4.45503">
        <ele>903</ele>
        <time>2015-12-07T08:21:01Z</time>
      </trkpt>
      <trkpt lat="44.98615" lon="4.455">
        <ele>904</ele>
        <time>2015-12-07T08:21:08Z</time>
      </trkpt>
      <trkpt lat="44.98608" lon="4.45498">
        <ele>905</ele>
        <time>2015-12-07T08:21:13Z</time>
      </trkpt>
      <trkpt lat="44.986" lon="4.45495">
        <ele>905</ele>
        <time>2015-12-07T08:21:16Z</time>
      </trkpt>
      <trkpt lat="44.98591" lon="4.45488">
        <ele>906</ele>
        <time>2015-12-07T08:21:21Z</time>
      </trkpt>
      <trkpt lat="44.98584" lon="4.45481">
        <ele>907</ele>
        <time>2015-12-07T08:21:25Z</time>
      </trkpt>
      <trkpt lat="44.98577" lon="4.4547">
        <ele>907</ele>
        <time>2015-12-07T08:21:30Z</time>
      </trkpt>
      <trkpt lat="44.98572" lon="4.45462">
        <ele>908</ele>
        <time>2015-12-07T08:21:33Z</time>
      </trkpt>
      <trkpt lat="44.98566" lon="4.45453">
        <ele>908</ele>
        <time>2015-12-07T08:21:37Z</time>
      </trkpt>
      <trkpt lat="44.98557" lon="4.45441">
        <ele>909</ele>
        <time>2015-12-07T08:21:42Z</time>
      </trkpt>
      <trkpt lat="44.98551" lon="4.4543">
        <ele>910</ele>
        <time>2015-12-07T08:21:46Z</time>
      </trkpt>
      <trkpt lat="44.98543" lon="4.45413">
        <ele>910</ele>
        <time>2015-12-07T08:21:51Z</time>
      </trkpt>
      <trkpt lat="44.98539" lon="4.45402">
        <ele>911</ele>
        <time>2015-12-07T08:21:55Z</time>
      </trkpt>
      <trkpt lat="44.98536" lon="4.4539">
        <ele>912</ele>
        <time>2015-12-07T08:21:59Z</time>
      </trkpt>
      <trkpt lat="44.98532" lon="4.45376">
        <ele>912</ele>
        <time>2015-12-07T08:22:03Z</time>
      </trkpt>
      <trkpt lat="44.98528" lon="4.45358">
        <ele>913</ele>
        <time>2015-12-07T08:22:08Z</time>
      </trkpt>
      <trkpt lat="44.98528" lon="4.45343">
        <ele>913</ele>
        <time>2015-12-07T08:22:12Z</time>
      </trkpt>
      <trkpt lat="44.98526" lon="4.45328">
        <ele>914</ele>
        <time>2015-12-07T08:22:16Z</time>
      </trkpt>
      <trkpt lat="44.98521" lon="4.45312">
        <ele>914</ele>
        <time>2015-12-07T08:22:20Z</time>
      </trkpt>
      <trkpt lat="44.98514" lon="4.45295">
        <ele>914</ele>
        <time>2015-12-07T08:22:24Z</time>
      </trkpt>
      <trkpt lat="44.98514" lon="4.45284">
        <ele>914</ele>
        <time>2015-12-07T08:22:28Z</time>
      </trkpt>
      <trkpt lat="44.98508" lon="4.45263">
        <ele>915</ele>
        <time>2015-12-07T08:22:33Z</time>
      </trkpt>
      <trkpt lat="44.98508" lon="4.45247">
        <ele>915</ele>
        <time>2015-12-07T08:22:37Z</time>
      </trkpt>
      <trkpt lat="44.98507" lon="4.45233">
        <ele>915</ele>
        <time>2015-12-07T08:22:41Z</time>
      </trkpt>
      <trkpt lat="44.98505" lon="4.45216">
        <ele>914</ele>
        <time>2015-12-07T08:22:45Z</time>
      </trkpt>
      <trkpt lat="44.98502" lon="4.45198">
        <ele>912</ele>
        <time>2015-12-07T08:22:49Z</time>
      </trkpt>
      <trkpt lat="44.98504" lon="4.45178">
        <ele>911</ele>
        <time>2015-12-07T08:22:53Z</time>
      </trkpt>
      <trkpt lat="44.98504" lon="4.45153">
        <ele>910</ele>
        <time>2015-12-07T08:22:58Z</time>
      </trkpt>
      <trkpt lat="44.98504" lon="4.45135">
        <ele>909</ele>
        <time>2015-12-07T08:23:01Z</time>
      </trkpt>
      <trkpt lat="44.98506" lon="4.45108">
        <ele>909</ele>
        <time>2015-12-07T08:23:05Z</time>
      </trkpt>
      <trkpt lat="44.98509" lon="4.45084">
        <ele>908</ele>
        <time>2015-12-07T08:23:09Z</time>
      </trkpt>
      <trkpt lat="44.98514" lon="4.45062">
        <ele>906</ele>
        <time>2015-12-07T08:23:14Z</time>
      </trkpt>
      <trkpt lat="44.98519" lon="4.4504">
        <ele>906</ele>
        <time>2015-12-07T08:23:17Z</time>
      </trkpt>
      <trkpt lat="44.98519" lon="4.4502">
        <ele>905</ele>
        <time>2015-12-07T08:23:21Z</time>
      </trkpt>
      <trkpt lat="44.98512" lon="4.44999">
        <ele>905</ele>
        <time>2015-12-07T08:23:25Z</time>
      </trkpt>
      <trkpt lat="44.98505" lon="4.44976">
        <ele>905</ele>
        <time>2015-12-07T08:23:30Z</time>
      </trkpt>
      <trkpt lat="44.98504" lon="4.44962">
        <ele>905</ele>
        <time>2015-12-07T08:23:33Z</time>
      </trkpt>
      <trkpt lat="44.98497" lon="4.44939">
        <ele>905</ele>
        <time>2015-12-07T08:23:38Z</time>
      </trkpt>
      <trkpt lat="44.98495" lon="4.44925">
        <ele>905</ele>
        <time>2015-12-07T08:23:41Z</time>
      </trkpt>
      <trkpt lat="44.98492" lon="4.44913">
        <ele>905</ele>
        <time>2015-12-07T08:23:43Z</time>
      </trkpt>
      <trkpt lat="44.98483" lon="4.44888">
        <ele>905</ele>
        <time>2015-12-07T08:23:47Z</time>
      </trkpt>
      <trkpt lat="44.98477" lon="4.44867">
        <ele>905</ele>
        <time>2015-12-07T08:23:51Z</time>
      </trkpt>
      <trkpt lat="44.98475" lon="4.4484">
        <ele>905</ele>
        <time>2015-12-07T08:23:55Z</time>
      </trkpt>
      <trkpt lat="44.9847" lon="4.44805">
        <ele>905</ele>
        <time>2015-12-07T08:23:59Z</time>
      </trkpt>
      <trkpt lat="44.98468" lon="4.44776">
        <ele>905</ele>
        <time>2015-12-07T08:24:03Z</time>
      </trkpt>
      <trkpt lat="44.98458" lon="4.44745">
        <ele>905</ele>
        <time>2015-12-07T08:24:07Z</time>
      </trkpt>
      <trkpt lat="44.98453" lon="4.44725">
        <ele>906</ele>
        <time>2015-12-07T08:24:11Z</time>
      </trkpt>
      <trkpt lat="44.98446" lon="4.44695">
        <ele>907</ele>
        <time>2015-12-07T08:24:15Z</time>
      </trkpt>
      <trkpt lat="44.98435" lon="4.44671">
        <ele>907</ele>
        <time>2015-12-07T08:24:19Z</time>
      </trkpt>
      <trkpt lat="44.98431" lon="4.44653">
        <ele>907</ele>
        <time>2015-12-07T08:24:22Z</time>
      </trkpt>
      <trkpt lat="44.98425" lon="4.44635">
        <ele>908</ele>
        <time>2015-12-07T08:24:25Z</time>
      </trkpt>
      <trkpt lat="44.98418" lon="4.44615">
        <ele>907</ele>
        <time>2015-12-07T08:24:29Z</time>
      </trkpt>
      <trkpt lat="44.98407" lon="4.44589">
        <ele>907</ele>
        <time>2015-12-07T08:24:34Z</time>
      </trkpt>
      <trkpt lat="44.98399" lon="4.44576">
        <ele>907</ele>
        <time>2015-12-07T08:24:37Z</time>
      </trkpt>
      <trkpt lat="44.98387" lon="4.44564">
        <ele>907</ele>
        <time>2015-12-07T08:24:41Z</time>
      </trkpt>
      <trkpt lat="44.98378" lon="4.44556">
        <ele>906</ele>
        <time>2015-12-07T08:24:45Z</time>
      </trkpt>
      <trkpt lat="44.98367" lon="4.44552">
        <ele>906</ele>
        <time>2015-12-07T08:24:49Z</time>
      </trkpt>
      <trkpt lat="44.98353" lon="4.44545">
        <ele>905</ele>
        <time>2015-12-07T08:24:54Z</time>
      </trkpt>
      <trkpt lat="44.9835" lon="4.44534">
        <ele>904</ele>
        <time>2015-12-07T08:25:00Z</time>
      </trkpt>
      <trkpt lat="44.98343" lon="4.44528">
        <ele>905</ele>
        <time>2015-12-07T08:25:09Z</time>
      </trkpt>
      <trkpt lat="44.98337" lon="4.44522">
        <ele>905</ele>
        <time>2015-12-07T08:25:13Z</time>
      </trkpt>
      <trkpt lat="44.98331" lon="4.44514">
        <ele>905</ele>
        <time>2015-12-07T08:25:21Z</time>
      </trkpt>
      <trkpt lat="44.98323" lon="4.44509">
        <ele>906</ele>
        <time>2015-12-07T08:25:32Z</time>
      </trkpt>
      <trkpt lat="44.98316" lon="4.44503">
        <ele>907</ele>
        <time>2015-12-07T08:25:39Z</time>
      </trkpt>
      <trkpt lat="44.98311" lon="4.44497">
        <ele>908</ele>
        <time>2015-12-07T08:25:43Z</time>
      </trkpt>
      <trkpt lat="44.98304" lon="4.4449">
        <ele>909</ele>
        <time>2015-12-07T08:25:47Z</time>
      </trkpt>
      <trkpt lat="44.98301" lon="4.44479">
        <ele>909</ele>
        <time>2015-12-07T08:25:53Z</time>
      </trkpt>
      <trkpt lat="44.98296" lon="4.4447">
        <ele>909</ele>
        <time>2015-12-07T08:26:00Z</time>
      </trkpt>
      <trkpt lat="44.9829" lon="4.44462">
        <ele>909</ele>
        <time>2015-12-07T08:26:05Z</time>
      </trkpt>
      <trkpt lat="44.98279" lon="4.44459">
        <ele>910</ele>
        <time>2015-12-07T08:26:09Z</time>
      </trkpt>
      <trkpt lat="44.9827" lon="4.44455">
        <ele>909</ele>
        <time>2015-12-07T08:26:13Z</time>
      </trkpt>
      <trkpt lat="44.98262" lon="4.44454">
        <ele>909</ele>
        <time>2015-12-07T08:26:17Z</time>
      </trkpt>
      <trkpt lat="44.98243" lon="4.44451">
        <ele>909</ele>
        <time>2015-12-07T08:26:21Z</time>
      </trkpt>
      <trkpt lat="44.98227" lon="4.44448">
        <ele>910</ele>
        <time>2015-12-07T08:26:26Z</time>
      </trkpt>
      <trkpt lat="44.9822" lon="4.44452">
        <ele>910</ele>
        <time>2015-12-07T08:26:33Z</time>
      </trkpt>
      <trkpt lat="44.98212" lon="4.44457">
        <ele>910</ele>
        <time>2015-12-07T08:26:41Z</time>
      </trkpt>
      <trkpt lat="44.98205" lon="4.44456">
        <ele>910</ele>
        <time>2015-12-07T08:26:45Z</time>
      </trkpt>
      <trkpt lat="44.98197" lon="4.4446">
        <ele>911</ele>
        <time>2015-12-07T08:26:53Z</time>
      </trkpt>
      <trkpt lat="44.98189" lon="4.44464">
        <ele>912</ele>
        <time>2015-12-07T08:27:01Z</time>
      </trkpt>
      <trkpt lat="44.98182" lon="4.44466">
        <ele>912</ele>
        <time>2015-12-07T08:27:07Z</time>
      </trkpt>
      <trkpt lat="44.98173" lon="4.44468">
        <ele>913</ele>
        <time>2015-12-07T08:27:12Z</time>
      </trkpt>
      <trkpt lat="44.98168" lon="4.44474">
        <ele>914</ele>
        <time>2015-12-07T08:27:17Z</time>
      </trkpt>
      <trkpt lat="44.98162" lon="4.44477">
        <ele>915</ele>
        <time>2015-12-07T08:27:23Z</time>
      </trkpt>
      <trkpt lat="44.98157" lon="4.4448">
        <ele>915</ele>
        <time>2015-12-07T08:27:29Z</time>
      </trkpt>
      <trkpt lat="44.9815" lon="4.44485">
        <ele>915</ele>
        <time>2015-12-07T08:27:35Z</time>
      </trkpt>
      <trkpt lat="44.98145" lon="4.44488">
        <ele>915</ele>
        <time>2015-12-07T08:27:39Z</time>
      </trkpt>
      <trkpt lat="44.98137" lon="4.44491">
        <ele>916</ele>
        <time>2015-12-07T08:27:43Z</time>
      </trkpt>
      <trkpt lat="44.98129" lon="4.44492">
        <ele>916</ele>
        <time>2015-12-07T08:27:49Z</time>
      </trkpt>
      <trkpt lat="44.98123" lon="4.44499">
        <ele>919</ele>
        <time>2015-12-07T08:27:57Z</time>
      </trkpt>
      <trkpt lat="44.98114" lon="4.44499">
        <ele>921</ele>
        <time>2015-12-07T08:28:03Z</time>
      </trkpt>
      <trkpt lat="44.98106" lon="4.44502">
        <ele>923</ele>
        <time>2015-12-07T08:28:10Z</time>
      </trkpt>
      <trkpt lat="44.981" lon="4.44507">
        <ele>924</ele>
        <time>2015-12-07T08:28:17Z</time>
      </trkpt>
      <trkpt lat="44.98094" lon="4.44514">
        <ele>925</ele>
        <time>2015-12-07T08:28:23Z</time>
      </trkpt>
      <trkpt lat="44.9809" lon="4.44518">
        <ele>925</ele>
        <time>2015-12-07T08:28:27Z</time>
      </trkpt>
      <trkpt lat="44.98085" lon="4.44521">
        <ele>925</ele>
        <time>2015-12-07T08:28:31Z</time>
      </trkpt>
      <trkpt lat="44.98078" lon="4.44523">
        <ele>925</ele>
        <time>2015-12-07T08:28:35Z</time>
      </trkpt>
      <trkpt lat="44.98072" lon="4.44531">
        <ele>926</ele>
        <time>2015-12-07T08:28:41Z</time>
      </trkpt>
      <trkpt lat="44.98066" lon="4.44537">
        <ele>928</ele>
        <time>2015-12-07T08:28:48Z</time>
      </trkpt>
      <trkpt lat="44.9806" lon="4.44545">
        <ele>929</ele>
        <time>2015-12-07T08:28:55Z</time>
      </trkpt>
      <trkpt lat="44.98054" lon="4.44554">
        <ele>931</ele>
        <time>2015-12-07T08:29:03Z</time>
      </trkpt>
      <trkpt lat="44.98048" lon="4.44564">
        <ele>934</ele>
        <time>2015-12-07T08:29:13Z</time>
      </trkpt>
      <trkpt lat="44.98043" lon="4.44555">
        <ele>937</ele>
        <time>2015-12-07T08:29:29Z</time>
      </trkpt>
      <trkpt lat="44.98048" lon="4.44548">
        <ele>938</ele>
        <time>2015-12-07T08:29:35Z</time>
      </trkpt>
      <trkpt lat="44.98053" lon="4.44538">
        <ele>941</ele>
        <time>2015-12-07T08:29:44Z</time>
      </trkpt>
      <trkpt lat="44.98054" lon="4.44527">
        <ele>942</ele>
        <time>2015-12-07T08:29:51Z</time>
      </trkpt>
      <trkpt lat="44.98055" lon="4.44516">
        <ele>944</ele>
        <time>2015-12-07T08:30:01Z</time>
      </trkpt>
      <trkpt lat="44.98061" lon="4.44508">
        <ele>945</ele>
        <time>2015-12-07T08:30:08Z</time>
      </trkpt>
      <trkpt lat="44.98067" lon="4.44501">
        <ele>947</ele>
        <time>2015-12-07T08:30:16Z</time>
      </trkpt>
      <trkpt lat="44.98069" lon="4.44492">
        <ele>948</ele>
        <time>2015-12-07T08:30:21Z</time>
      </trkpt>
      <trkpt lat="44.98071" lon="4.44482">
        <ele>949</ele>
        <time>2015-12-07T08:30:26Z</time>
      </trkpt>
      <trkpt lat="44.98074" lon="4.44473">
        <ele>950</ele>
        <time>2015-12-07T08:30:33Z</time>
      </trkpt>
      <trkpt lat="44.9808" lon="4.44466">
        <ele>951</ele>
        <time>2015-12-07T08:30:39Z</time>
      </trkpt>
      <trkpt lat="44.98074" lon="4.44458">
        <ele>952</ele>
        <time>2015-12-07T08:30:42Z</time>
      </trkpt>
      <trkpt lat="44.98077" lon="4.44445">
        <ele>954</ele>
        <time>2015-12-07T08:30:47Z</time>
      </trkpt>
      <trkpt lat="44.98076" lon="4.44435">
        <ele>955</ele>
        <time>2015-12-07T08:30:52Z</time>
      </trkpt>
      <trkpt lat="44.98073" lon="4.44425">
        <ele>957</ele>
        <time>2015-12-07T08:30:57Z</time>
      </trkpt>
      <trkpt lat="44.98073" lon="4.44413">
        <ele>958</ele>
        <time>2015-12-07T08:31:03Z</time>
      </trkpt>
      <trkpt lat="44.98075" lon="4.44401">
        <ele>959</ele>
        <time>2015-12-07T08:31:11Z</time>
      </trkpt>
      <trkpt lat="44.98071" lon="4.44393">
        <ele>963</ele>
        <time>2015-12-07T08:31:21Z</time>
      </trkpt>
      <trkpt lat="44.98067" lon="4.44382">
        <ele>966</ele>
        <time>2015-12-07T08:31:30Z</time>
      </trkpt>
      <trkpt lat="44.98065" lon="4.4437">
        <ele>969</ele>
        <time>2015-12-07T08:31:40Z</time>
      </trkpt>
      <trkpt lat="44.98062" lon="4.44361">
        <ele>971</ele>
        <time>2015-12-07T08:31:45Z</time>
      </trkpt>
      <trkpt lat="44.98061" lon="4.4435">
        <ele>974</ele>
        <time>2015-12-07T08:31:53Z</time>
      </trkpt>
      <trkpt lat="44.98056" lon="4.44341">
        <ele>976</ele>
        <time>2015-12-07T08:31:59Z</time>
      </trkpt>
      <trkpt lat="44.9805" lon="4.44334">
        <ele>978</ele>
        <time>2015-12-07T08:32:06Z</time>
      </trkpt>
      <trkpt lat="44.98047" lon="4.44324">
        <ele>979</ele>
        <time>2015-12-07T08:32:12Z</time>
      </trkpt>
      <trkpt lat="44.98043" lon="4.44315">
        <ele>982</ele>
        <time>2015-12-07T08:32:20Z</time>
      </trkpt>
      <trkpt lat="44.98037" lon="4.44307">
        <ele>986</ele>
        <time>2015-12-07T08:32:28Z</time>
      </trkpt>
      <trkpt lat="44.98031" lon="4.44299">
        <ele>988</ele>
        <time>2015-12-07T08:32:35Z</time>
      </trkpt>
      <trkpt lat="44.98025" lon="4.44291">
        <ele>991</ele>
        <time>2015-12-07T08:32:43Z</time>
      </trkpt>
      <trkpt lat="44.98019" lon="4.44287">
        <ele>994</ele>
        <time>2015-12-07T08:32:51Z</time>
      </trkpt>
      <trkpt lat="44.98015" lon="4.44276">
        <ele>997</ele>
        <time>2015-12-07T08:32:57Z</time>
      </trkpt>
      <trkpt lat="44.98008" lon="4.44269">
        <ele>1000</ele>
        <time>2015-12-07T08:33:12Z</time>
      </trkpt>
      <trkpt lat="44.98005" lon="4.44269">
        <ele>997</ele>
        <time>2015-12-07T08:33:32Z</time>
      </trkpt>
      <trkpt lat="44.97995" lon="4.44275">
        <ele>993</ele>
        <time>2015-12-07T08:33:36Z</time>
      </trkpt>
      <trkpt lat="44.97989" lon="4.44283">
        <ele>992</ele>
        <time>2015-12-07T08:33:49Z</time>
      </trkpt>
      <trkpt lat="44.97991" lon="4.44272">
        <ele>992</ele>
        <time>2015-12-07T08:33:55Z</time>
      </trkpt>
      <trkpt lat="44.97997" lon="4.44265">
        <ele>992</ele>
        <time>2015-12-07T08:34:15Z</time>
      </trkpt>
      <trkpt lat="44.98001" lon="4.44273">
        <ele>993</ele>
        <time>2015-12-07T08:34:28Z</time>
      </trkpt>
      <trkpt lat="44.97995" lon="4.44273">
        <ele>992</ele>
        <time>2015-12-07T08:34:52Z</time>
      </trkpt>
      <trkpt lat="44.97988" lon="4.4427">
        <ele>992</ele>
        <time>2015-12-07T08:34:55Z</time>
      </trkpt>
      <trkpt lat="44.97981" lon="4.44264">
        <ele>992</ele>
        <time>2015-12-07T08:34:59Z</time>
      </trkpt>
      <trkpt lat="44.97976" lon="4.44256">
        <ele>992</ele>
        <time>2015-12-07T08:35:03Z</time>
      </trkpt>
      <trkpt lat="44.97968" lon="4.44246">
        <ele>992</ele>
        <time>2015-12-07T08:35:07Z</time>
      </trkpt>
      <trkpt lat="44.97958" lon="4.44237">
        <ele>994</ele>
        <time>2015-12-07T08:35:12Z</time>
      </trkpt>
      <trkpt lat="44.97951" lon="4.44228">
        <ele>995</ele>
        <time>2015-12-07T08:35:17Z</time>
      </trkpt>
      <trkpt lat="44.97944" lon="4.44222">
        <ele>995</ele>
        <time>2015-12-07T08:35:21Z</time>
      </trkpt>
      <trkpt lat="44.97938" lon="4.44216">
        <ele>996</ele>
        <time>2015-12-07T08:35:24Z</time>
      </trkpt>
      <trkpt lat="44.97932" lon="4.44212">
        <ele>996</ele>
        <time>2015-12-07T08:35:28Z</time>
      </trkpt>
      <trkpt lat="44.97925" lon="4.44207">
        <ele>997</ele>
        <time>2015-12-07T08:35:32Z</time>
      </trkpt>
      <trkpt lat="44.97917" lon="4.44203">
        <ele>999</ele>
        <time>2015-12-07T08:35:36Z</time>
      </trkpt>
      <trkpt lat="44.97913" lon="4.44198">
        <ele>999</ele>
        <time>2015-12-07T08:35:41Z</time>
      </trkpt>
      <trkpt lat="44.97904" lon="4.44189">
        <ele>1001</ele>
        <time>2015-12-07T08:35:46Z</time>
      </trkpt>
      <trkpt lat="44.97897" lon="4.44183">
        <ele>1002</ele>
        <time>2015-12-07T08:35:50Z</time>
      </trkpt>
      <trkpt lat="44.9789" lon="4.44176">
        <ele>1003</ele>
        <time>2015-12-07T08:35:55Z</time>
      </trkpt>
      <trkpt lat="44.97884" lon="4.4417">
        <ele>1004</ele>
        <time>2015-12-07T08:35:59Z</time>
      </trkpt>
      <trkpt lat="44.97878" lon="4.44164">
        <ele>1005</ele>
        <time>2015-12-07T08:36:03Z</time>
      </trkpt>
      <trkpt lat="44.9787" lon="4.44161">
        <ele>1006</ele>
        <time>2015-12-07T08:36:07Z</time>
      </trkpt>
      <trkpt lat="44.97864" lon="4.44155">
        <ele>1006</ele>
        <time>2015-12-07T08:36:11Z</time>
      </trkpt>
      <trkpt lat="44.97859" lon="4.44143">
        <ele>1006</ele>
        <time>2015-12-07T08:36:16Z</time>
      </trkpt>
      <trkpt lat="44.97856" lon="4.44129">
        <ele>1005</ele>
        <time>2015-12-07T08:36:21Z</time>
      </trkpt>
      <trkpt lat="44.97857" lon="4.44119">
        <ele>1005</ele>
        <time>2015-12-07T08:36:25Z</time>
      </trkpt>
      <trkpt lat="44.97859" lon="4.44108">
        <ele>1004</ele>
        <time>2015-12-07T08:36:29Z</time>
      </trkpt>
      <trkpt lat="44.97861" lon="4.44096">
        <ele>1005</ele>
        <time>2015-12-07T08:36:34Z</time>
      </trkpt>
      <trkpt lat="44.97866" lon="4.44085">
        <ele>1005</ele>
        <time>2015-12-07T08:36:39Z</time>
      </trkpt>
      <trkpt lat="44.97866" lon="4.44074">
        <ele>1005</ele>
        <time>2015-12-07T08:36:43Z</time>
      </trkpt>
      <trkpt lat="44.97866" lon="4.44064">
        <ele>1006</ele>
        <time>2015-12-07T08:36:47Z</time>
      </trkpt>
      <trkpt lat="44.97869" lon="4.44055">
        <ele>1007</ele>
        <time>2015-12-07T08:36:51Z</time>
      </trkpt>
      <trkpt lat="44.97871" lon="4.44045">
        <ele>1008</ele>
        <time>2015-12-07T08:36:55Z</time>
      </trkpt>
      <trkpt lat="44.9787" lon="4.44033">
        <ele>1009</ele>
        <time>2015-12-07T08:37:00Z</time>
      </trkpt>
      <trkpt lat="44.9787" lon="4.44019">
        <ele>1009</ele>
        <time>2015-12-07T08:37:05Z</time>
      </trkpt>
      <trkpt lat="44.97868" lon="4.44006">
        <ele>1009</ele>
        <time>2015-12-07T08:37:09Z</time>
      </trkpt>
      <trkpt lat="44.97866" lon="4.43995">
        <ele>1010</ele>
        <time>2015-12-07T08:37:13Z</time>
      </trkpt>
      <trkpt lat="44.97863" lon="4.43985">
        <ele>1011</ele>
        <time>2015-12-07T08:37:17Z</time>
      </trkpt>
      <trkpt lat="44.97861" lon="4.43976">
        <ele>1012</ele>
        <time>2015-12-07T08:37:22Z</time>
      </trkpt>
      <trkpt lat="44.97857" lon="4.43962">
        <ele>1013</ele>
        <time>2015-12-07T08:37:26Z</time>
      </trkpt>
      <trkpt lat="44.97852" lon="4.4395">
        <ele>1014</ele>
        <time>2015-12-07T08:37:31Z</time>
      </trkpt>
      <trkpt lat="44.97848" lon="4.43936">
        <ele>1015</ele>
        <time>2015-12-07T08:37:36Z</time>
      </trkpt>
      <trkpt lat="44.97843" lon="4.43926">
        <ele>1015</ele>
        <time>2015-12-07T08:37:39Z</time>
      </trkpt>
      <trkpt lat="44.9784" lon="4.43915">
        <ele>1015</ele>
        <time>2015-12-07T08:37:43Z</time>
      </trkpt>
      <trkpt lat="44.97838" lon="4.43907">
        <ele>1015</ele>
        <time>2015-12-07T08:37:46Z</time>
      </trkpt>
      <trkpt lat="44.97834" lon="4.43894">
        <ele>1015</ele>
        <time>2015-12-07T08:37:51Z</time>
      </trkpt>
      <trkpt lat="44.9783" lon="4.43882">
        <ele>1015</ele>
        <time>2015-12-07T08:37:55Z</time>
      </trkpt>
      <trkpt lat="44.97825" lon="4.43872">
        <ele>1016</ele>
        <time>2015-12-07T08:37:59Z</time>
      </trkpt>
      <trkpt lat="44.97817" lon="4.43861">
        <ele>1016</ele>
        <time>2015-12-07T08:38:04Z</time>
      </trkpt>
      <trkpt lat="44.9781" lon="4.43852">
        <ele>1018</ele>
        <time>2015-12-07T08:38:08Z</time>
      </trkpt>
      <trkpt lat="44.97803" lon="4.43844">
        <ele>1019</ele>
        <time>2015-12-07T08:38:12Z</time>
      </trkpt>
      <trkpt lat="44.97796" lon="4.43836">
        <ele>1020</ele>
        <time>2015-12-07T08:38:16Z</time>
      </trkpt>
      <trkpt lat="44.97788" lon="4.43826">
        <ele>1022</ele>
        <time>2015-12-07T08:38:21Z</time>
      </trkpt>
      <trkpt lat="44.97783" lon="4.43817">
        <ele>1023</ele>
        <time>2015-12-07T08:38:25Z</time>
      </trkpt>
      <trkpt lat="44.97775" lon="4.43816">
        <ele>1024</ele>
        <time>2015-12-07T08:38:35Z</time>
      </trkpt>
      <trkpt lat="44.97772" lon="4.43827">
        <ele>1024</ele>
        <time>2015-12-07T08:38:43Z</time>
      </trkpt>
      <trkpt lat="44.97771" lon="4.43838">
        <ele>1024</ele>
        <time>2015-12-07T08:38:49Z</time>
      </trkpt>
      <trkpt lat="44.9777" lon="4.43851">
        <ele>1024</ele>
        <time>2015-12-07T08:38:57Z</time>
      </trkpt>
      <trkpt lat="44.97768" lon="4.43862">
        <ele>1025</ele>
        <time>2015-12-07T08:39:04Z</time>
      </trkpt>
      <trkpt lat="44.97765" lon="4.43873">
        <ele>1026</ele>
        <time>2015-12-07T08:39:14Z</time>
      </trkpt>
      <trkpt lat="44.97762" lon="4.43883">
        <ele>1027</ele>
        <time>2015-12-07T08:39:20Z</time>
      </trkpt>
      <trkpt lat="44.97758" lon="4.43894">
        <ele>1028</ele>
        <time>2015-12-07T08:39:26Z</time>
      </trkpt>
      <trkpt lat="44.97755" lon="4.43903">
        <ele>1029</ele>
        <time>2015-12-07T08:39:31Z</time>
      </trkpt>
      <trkpt lat="44.97751" lon="4.43913">
        <ele>1029</ele>
        <time>2015-12-07T08:39:39Z</time>
      </trkpt>
      <trkpt lat="44.97744" lon="4.43921">
        <ele>1031</ele>
        <time>2015-12-07T08:39:49Z</time>
      </trkpt>
      <trkpt lat="44.97741" lon="4.43926">
        <ele>1031</ele>
        <time>2015-12-07T08:39:53Z</time>
      </trkpt>
      <trkpt lat="44.97736" lon="4.43937">
        <ele>1032</ele>
        <time>2015-12-07T08:39:57Z</time>
      </trkpt>
      <trkpt lat="44.9773" lon="4.43946">
        <ele>1034</ele>
        <time>2015-12-07T08:40:05Z</time>
      </trkpt>
      <trkpt lat="44.97726" lon="4.43957">
        <ele>1035</ele>
        <time>2015-12-07T08:40:15Z</time>
      </trkpt>
      <trkpt lat="44.97723" lon="4.43965">
        <ele>1037</ele>
        <time>2015-12-07T08:40:21Z</time>
      </trkpt>
      <trkpt lat="44.97718" lon="4.43973">
        <ele>1038</ele>
        <time>2015-12-07T08:40:29Z</time>
      </trkpt>
      <trkpt lat="44.97711" lon="4.43979">
        <ele>1040</ele>
        <time>2015-12-07T08:40:36Z</time>
      </trkpt>
      <trkpt lat="44.97706" lon="4.43987">
        <ele>1041</ele>
        <time>2015-12-07T08:40:43Z</time>
      </trkpt>
      <trkpt lat="44.977" lon="4.43995">
        <ele>1043</ele>
        <time>2015-12-07T08:40:50Z</time>
      </trkpt>
      <trkpt lat="44.97694" lon="4.44004">
        <ele>1045</ele>
        <time>2015-12-07T08:40:58Z</time>
      </trkpt>
      <trkpt lat="44.97689" lon="4.44014">
        <ele>1048</ele>
        <time>2015-12-07T08:41:09Z</time>
      </trkpt>
      <trkpt lat="44.97687" lon="4.44023">
        <ele>1049</ele>
        <time>2015-12-07T08:41:15Z</time>
      </trkpt>
      <trkpt lat="44.97682" lon="4.44033">
        <ele>1051</ele>
        <time>2015-12-07T08:41:22Z</time>
      </trkpt>
      <trkpt lat="44.97675" lon="4.4404">
        <ele>1053</ele>
        <time>2015-12-07T08:41:29Z</time>
      </trkpt>
      <trkpt lat="44.97668" lon="4.44046">
        <ele>1054</ele>
        <time>2015-12-07T08:41:36Z</time>
      </trkpt>
      <trkpt lat="44.97662" lon="4.44053">
        <ele>1056</ele>
        <time>2015-12-07T08:41:43Z</time>
      </trkpt>
      <trkpt lat="44.97655" lon="4.4406">
        <ele>1057</ele>
        <time>2015-12-07T08:41:51Z</time>
      </trkpt>
      <trkpt lat="44.97649" lon="4.44066">
        <ele>1058</ele>
        <time>2015-12-07T08:41:57Z</time>
      </trkpt>
      <trkpt lat="44.97642" lon="4.44072">
        <ele>1059</ele>
        <time>2015-12-07T08:42:04Z</time>
      </trkpt>
      <trkpt lat="44.97636" lon="4.44079">
        <ele>1061</ele>
        <time>2015-12-07T08:42:12Z</time>
      </trkpt>
      <trkpt lat="44.9763" lon="4.44086">
        <ele>1062</ele>
        <time>2015-12-07T08:42:19Z</time>
      </trkpt>
      <trkpt lat="44.97623" lon="4.44089">
        <ele>1063</ele>
        <time>2015-12-07T08:42:24Z</time>
      </trkpt>
      <trkpt lat="44.97615" lon="4.44094">
        <ele>1064</ele>
        <time>2015-12-07T08:42:29Z</time>
      </trkpt>
      <trkpt lat="44.97608" lon="4.441">
        <ele>1066</ele>
        <time>2015-12-07T08:42:36Z</time>
      </trkpt>
      <trkpt lat="44.97606" lon="4.44109">
        <ele>1068</ele>
        <time>2015-12-07T08:42:44Z</time>
      </trkpt>
      <trkpt lat="44.97599" lon="4.44118">
        <ele>1069</ele>
        <time>2015-12-07T08:42:49Z</time>
      </trkpt>
      <trkpt lat="44.97592" lon="4.44123">
        <ele>1070</ele>
        <time>2015-12-07T08:42:54Z</time>
      </trkpt>
      <trkpt lat="44.97585" lon="4.44132">
        <ele>1071</ele>
        <time>2015-12-07T08:42:59Z</time>
      </trkpt>
      <trkpt lat="44.97581" lon="4.44141">
        <ele>1072</ele>
        <time>2015-12-07T08:43:03Z</time>
      </trkpt>
      <trkpt lat="44.9758" lon="4.44151">
        <ele>1072</ele>
        <time>2015-12-07T08:43:07Z</time>
      </trkpt>
      <trkpt lat="44.97574" lon="4.44159">
        <ele>1074</ele>
        <time>2015-12-07T08:43:13Z</time>
      </trkpt>
      <trkpt lat="44.97569" lon="4.44163">
        <ele>1074</ele>
        <time>2015-12-07T08:43:16Z</time>
      </trkpt>
      <trkpt lat="44.97563" lon="4.44169">
        <ele>1075</ele>
        <time>2015-12-07T08:43:20Z</time>
      </trkpt>
      <trkpt lat="44.97558" lon="4.44183">
        <ele>1075</ele>
        <time>2015-12-07T08:43:25Z</time>
      </trkpt>
      <trkpt lat="44.97556" lon="4.44194">
        <ele>1076</ele>
        <time>2015-12-07T08:43:28Z</time>
      </trkpt>
      <trkpt lat="44.97554" lon="4.44202">
        <ele>1076</ele>
        <time>2015-12-07T08:43:31Z</time>
      </trkpt>
      <trkpt lat="44.9755" lon="4.44209">
        <ele>1077</ele>
        <time>2015-12-07T08:43:34Z</time>
      </trkpt>
      <trkpt lat="44.97549" lon="4.4422">
        <ele>1078</ele>
        <time>2015-12-07T08:43:39Z</time>
      </trkpt>
      <trkpt lat="44.97547" lon="4.44233">
        <ele>1079</ele>
        <time>2015-12-07T08:43:43Z</time>
      </trkpt>
      <trkpt lat="44.97545" lon="4.44249">
        <ele>1080</ele>
        <time>2015-12-07T08:43:47Z</time>
      </trkpt>
      <trkpt lat="44.9754" lon="4.44262">
        <ele>1081</ele>
        <time>2015-12-07T08:43:52Z</time>
      </trkpt>
      <trkpt lat="44.97539" lon="4.44274">
        <ele>1082</ele>
        <time>2015-12-07T08:43:56Z</time>
      </trkpt>
      <trkpt lat="44.97539" lon="4.44286">
        <ele>1082</ele>
        <time>2015-12-07T08:44:00Z</time>
      </trkpt>
      <trkpt lat="44.97543" lon="4.44303">
        <ele>1082</ele>
        <time>2015-12-07T08:44:05Z</time>
      </trkpt>
      <trkpt lat="44.97543" lon="4.44315">
        <ele>1083</ele>
        <time>2015-12-07T08:44:09Z</time>
      </trkpt>
      <trkpt lat="44.97544" lon="4.44331">
        <ele>1083</ele>
        <time>2015-12-07T08:44:13Z</time>
      </trkpt>
      <trkpt lat="44.97546" lon="4.44341">
        <ele>1083</ele>
        <time>2015-12-07T08:44:17Z</time>
      </trkpt>
      <trkpt lat="44.97546" lon="4.44354">
        <ele>1084</ele>
        <time>2015-12-07T08:44:21Z</time>
      </trkpt>
      <trkpt lat="44.97548" lon="4.44369">
        <ele>1084</ele>
        <time>2015-12-07T08:44:26Z</time>
      </trkpt>
      <trkpt lat="44.97549" lon="4.44377">
        <ele>1084</ele>
        <time>2015-12-07T08:44:29Z</time>
      </trkpt>
      <trkpt lat="44.97549" lon="4.44388">
        <ele>1085</ele>
        <time>2015-12-07T08:44:33Z</time>
      </trkpt>
      <trkpt lat="44.9755" lon="4.44399">
        <ele>1085</ele>
        <time>2015-12-07T08:44:37Z</time>
      </trkpt>
      <trkpt lat="44.97552" lon="4.44411">
        <ele>1085</ele>
        <time>2015-12-07T08:44:42Z</time>
      </trkpt>
      <trkpt lat="44.97553" lon="4.44423">
        <ele>1085</ele>
        <time>2015-12-07T08:44:50Z</time>
      </trkpt>
      <trkpt lat="44.97556" lon="4.44437">
        <ele>1086</ele>
        <time>2015-12-07T08:44:55Z</time>
      </trkpt>
      <trkpt lat="44.97559" lon="4.44448">
        <ele>1087</ele>
        <time>2015-12-07T08:44:59Z</time>
      </trkpt>
      <trkpt lat="44.97561" lon="4.4446">
        <ele>1088</ele>
        <time>2015-12-07T08:45:07Z</time>
      </trkpt>
      <trkpt lat="44.97562" lon="4.4447">
        <ele>1089</ele>
        <time>2015-12-07T08:45:11Z</time>
      </trkpt>
      <trkpt lat="44.97563" lon="4.44483">
        <ele>1090</ele>
        <time>2015-12-07T08:45:15Z</time>
      </trkpt>
      <trkpt lat="44.97564" lon="4.44494">
        <ele>1090</ele>
        <time>2015-12-07T08:45:19Z</time>
      </trkpt>
      <trkpt lat="44.97564" lon="4.44506">
        <ele>1091</ele>
        <time>2015-12-07T08:45:22Z</time>
      </trkpt>
      <trkpt lat="44.97566" lon="4.44518">
        <ele>1091</ele>
        <time>2015-12-07T08:45:26Z</time>
      </trkpt>
      <trkpt lat="44.97572" lon="4.44538">
        <ele>1091</ele>
        <time>2015-12-07T08:45:31Z</time>
      </trkpt>
      <trkpt lat="44.9757" lon="4.44546">
        <ele>1092</ele>
        <time>2015-12-07T08:45:35Z</time>
      </trkpt>
      <trkpt lat="44.97568" lon="4.44556">
        <ele>1093</ele>
        <time>2015-12-07T08:45:39Z</time>
      </trkpt>
      <trkpt lat="44.97566" lon="4.4457">
        <ele>1093</ele>
        <time>2015-12-07T08:45:43Z</time>
      </trkpt>
      <trkpt lat="44.9756" lon="4.44581">
        <ele>1094</ele>
        <time>2015-12-07T08:45:47Z</time>
      </trkpt>
      <trkpt lat="44.97556" lon="4.44586">
        <ele>1094</ele>
        <time>2015-12-07T08:45:50Z</time>
      </trkpt>
      <trkpt lat="44.97549" lon="4.44596">
        <ele>1095</ele>
        <time>2015-12-07T08:45:55Z</time>
      </trkpt>
      <trkpt lat="44.97541" lon="4.44608">
        <ele>1096</ele>
        <time>2015-12-07T08:46:00Z</time>
      </trkpt>
      <trkpt lat="44.97537" lon="4.44616">
        <ele>1097</ele>
        <time>2015-12-07T08:46:03Z</time>
      </trkpt>
      <trkpt lat="44.97533" lon="4.44626">
        <ele>1098</ele>
        <time>2015-12-07T08:46:07Z</time>
      </trkpt>
      <trkpt lat="44.97526" lon="4.44638">
        <ele>1099</ele>
        <time>2015-12-07T08:46:12Z</time>
      </trkpt>
      <trkpt lat="44.97523" lon="4.44654">
        <ele>1100</ele>
        <time>2015-12-07T08:46:16Z</time>
      </trkpt>
      <trkpt lat="44.97517" lon="4.4466">
        <ele>1101</ele>
        <time>2015-12-07T08:46:21Z</time>
      </trkpt>
      <trkpt lat="44.9751" lon="4.4467">
        <ele>1102</ele>
        <time>2015-12-07T08:46:24Z</time>
      </trkpt>
      <trkpt lat="44.97504" lon="4.44679">
        <ele>1103</ele>
        <time>2015-12-07T08:46:28Z</time>
      </trkpt>
      <trkpt lat="44.97501" lon="4.44683">
        <ele>1104</ele>
        <time>2015-12-07T08:46:31Z</time>
      </trkpt>
      <trkpt lat="44.97492" lon="4.44698">
        <ele>1105</ele>
        <time>2015-12-07T08:46:35Z</time>
      </trkpt>
      <trkpt lat="44.97489" lon="4.44707">
        <ele>1105</ele>
        <time>2015-12-07T08:46:39Z</time>
      </trkpt>
      <trkpt lat="44.97481" lon="4.44737">
        <ele>1106</ele>
        <time>2015-12-07T08:46:43Z</time>
      </trkpt>
      <trkpt lat="44.97474" lon="4.44757">
        <ele>1107</ele>
        <time>2015-12-07T08:46:47Z</time>
      </trkpt>
      <trkpt lat="44.97463" lon="4.44795">
        <ele>1107</ele>
        <time>2015-12-07T08:46:51Z</time>
      </trkpt>
      <trkpt lat="44.97456" lon="4.44829">
        <ele>1108</ele>
        <time>2015-12-07T08:46:56Z</time>
      </trkpt>
      <trkpt lat="44.97448" lon="4.44856">
        <ele>1108</ele>
        <time>2015-12-07T08:47:01Z</time>
      </trkpt>
      <trkpt lat="44.97439" lon="4.44879">
        <ele>1109</ele>
        <time>2015-12-07T08:47:06Z</time>
      </trkpt>
      <trkpt lat="44.97432" lon="4.44889">
        <ele>1110</ele>
        <time>2015-12-07T08:47:10Z</time>
      </trkpt>
      <trkpt lat="44.97433" lon="4.44901">
        <ele>1111</ele>
        <time>2015-12-07T08:47:16Z</time>
      </trkpt>
      <trkpt lat="44.97433" lon="4.44909">
        <ele>1110</ele>
        <time>2015-12-07T08:47:23Z</time>
      </trkpt>
      <trkpt lat="44.9743" lon="4.44925">
        <ele>1109</ele>
        <time>2015-12-07T08:47:28Z</time>
      </trkpt>
      <trkpt lat="44.97422" lon="4.44936">
        <ele>1108</ele>
        <time>2015-12-07T08:47:32Z</time>
      </trkpt>
      <trkpt lat="44.97413" lon="4.44946">
        <ele>1108</ele>
        <time>2015-12-07T08:47:36Z</time>
      </trkpt>
      <trkpt lat="44.97399" lon="4.44958">
        <ele>1107</ele>
        <time>2015-12-07T08:47:41Z</time>
      </trkpt>
      <trkpt lat="44.97393" lon="4.44964">
        <ele>1106</ele>
        <time>2015-12-07T08:47:44Z</time>
      </trkpt>
      <trkpt lat="44.97387" lon="4.44972">
        <ele>1106</ele>
        <time>2015-12-07T08:47:50Z</time>
      </trkpt>
      <trkpt lat="44.9738" lon="4.44973">
        <ele>1107</ele>
        <time>2015-12-07T08:47:53Z</time>
      </trkpt>
      <trkpt lat="44.9737" lon="4.4498">
        <ele>1107</ele>
        <time>2015-12-07T08:47:57Z</time>
      </trkpt>
      <trkpt lat="44.97363" lon="4.44986">
        <ele>1108</ele>
        <time>2015-12-07T08:48:00Z</time>
      </trkpt>
      <trkpt lat="44.97358" lon="4.44993">
        <ele>1108</ele>
        <time>2015-12-07T08:48:04Z</time>
      </trkpt>
      <trkpt lat="44.97351" lon="4.45004">
        <ele>1108</ele>
        <time>2015-12-07T08:48:07Z</time>
      </trkpt>
      <trkpt lat="44.97342" lon="4.45019">
        <ele>1108</ele>
        <time>2015-12-07T08:48:12Z</time>
      </trkpt>
      <trkpt lat="44.97327" lon="4.45024">
        <ele>1107</ele>
        <time>2015-12-07T08:48:16Z</time>
      </trkpt>
      <trkpt lat="44.97315" lon="4.45031">
        <ele>1106</ele>
        <time>2015-12-07T08:48:19Z</time>
      </trkpt>
      <trkpt lat="44.97297" lon="4.45043">
        <ele>1104</ele>
        <time>2015-12-07T08:48:23Z</time>
      </trkpt>
      <trkpt lat="44.97286" lon="4.45053">
        <ele>1103</ele>
        <time>2015-12-07T08:48:27Z</time>
      </trkpt>
      <trkpt lat="44.97278" lon="4.45059">
        <ele>1102</ele>
        <time>2015-12-07T08:48:30Z</time>
      </trkpt>
      <trkpt lat="44.97269" lon="4.45064">
        <ele>1101</ele>
        <time>2015-12-07T08:48:34Z</time>
      </trkpt>
      <trkpt lat="44.97259" lon="4.45065">
        <ele>1100</ele>
        <time>2015-12-07T08:48:38Z</time>
      </trkpt>
      <trkpt lat="44.97247" lon="4.45065">
        <ele>1100</ele>
        <time>2015-12-07T08:48:43Z</time>
      </trkpt>
      <trkpt lat="44.97235" lon="4.45066">
        <ele>1099</ele>
        <time>2015-12-07T08:48:48Z</time>
      </trkpt>
      <trkpt lat="44.9722" lon="4.45076">
        <ele>1097</ele>
        <time>2015-12-07T08:48:53Z</time>
      </trkpt>
      <trkpt lat="44.97212" lon="4.45082">
        <ele>1096</ele>
        <time>2015-12-07T08:48:56Z</time>
      </trkpt>
      <trkpt lat="44.97198" lon="4.45089">
        <ele>1095</ele>
        <time>2015-12-07T08:49:00Z</time>
      </trkpt>
      <trkpt lat="44.97186" lon="4.45097">
        <ele>1095</ele>
        <time>2015-12-07T08:49:05Z</time>
      </trkpt>
      <trkpt lat="44.97175" lon="4.45101">
        <ele>1094</ele>
        <time>2015-12-07T08:49:09Z</time>
      </trkpt>
      <trkpt lat="44.97167" lon="4.45107">
        <ele>1094</ele>
        <time>2015-12-07T08:49:12Z</time>
      </trkpt>
      <trkpt lat="44.97158" lon="4.45113">
        <ele>1094</ele>
        <time>2015-12-07T08:49:16Z</time>
      </trkpt>
      <trkpt lat="44.97151" lon="4.45123">
        <ele>1093</ele>
        <time>2015-12-07T08:49:21Z</time>
      </trkpt>
      <trkpt lat="44.97146" lon="4.45132">
        <ele>1093</ele>
        <time>2015-12-07T08:49:25Z</time>
      </trkpt>
      <trkpt lat="44.97141" lon="4.45139">
        <ele>1093</ele>
        <time>2015-12-07T08:49:31Z</time>
      </trkpt>
      <trkpt lat="44.97135" lon="4.45148">
        <ele>1092</ele>
        <time>2015-12-07T08:49:38Z</time>
      </trkpt>
      <trkpt lat="44.97128" lon="4.45156">
        <ele>1092</ele>
        <time>2015-12-07T08:49:45Z</time>
      </trkpt>
      <trkpt lat="44.97122" lon="4.45159">
        <ele>1092</ele>
        <time>2015-12-07T08:49:49Z</time>
      </trkpt>
      <trkpt lat="44.97117" lon="4.45166">
        <ele>1091</ele>
        <time>2015-12-07T08:49:54Z</time>
      </trkpt>
      <trkpt lat="44.97112" lon="4.45174">
        <ele>1091</ele>
        <time>2015-12-07T08:50:03Z</time>
      </trkpt>
      <trkpt lat="44.97104" lon="4.45179">
        <ele>1091</ele>
        <time>2015-12-07T08:50:10Z</time>
      </trkpt>
      <trkpt lat="44.97098" lon="4.45189">
        <ele>1090</ele>
        <time>2015-12-07T08:50:15Z</time>
      </trkpt>
      <trkpt lat="44.97091" lon="4.45195">
        <ele>1089</ele>
        <time>2015-12-07T08:50:19Z</time>
      </trkpt>
      <trkpt lat="44.97084" lon="4.45202">
        <ele>1089</ele>
        <time>2015-12-07T08:50:28Z</time>
      </trkpt>
      <trkpt lat="44.97076" lon="4.45203">
        <ele>1089</ele>
        <time>2015-12-07T08:51:05Z</time>
      </trkpt>
      <trkpt lat="44.97071" lon="4.45213">
        <ele>1088</ele>
        <time>2015-12-07T08:52:45Z</time>
      </trkpt>
      <trkpt lat="44.9707" lon="4.45223">
        <ele>1088</ele>
        <time>2015-12-07T08:52:49Z</time>
      </trkpt>
      <trkpt lat="44.97067" lon="4.45231">
        <ele>1087</ele>
        <time>2015-12-07T08:52:52Z</time>
      </trkpt>
      <trkpt lat="44.97062" lon="4.45248">
        <ele>1087</ele>
        <time>2015-12-07T08:52:57Z</time>
      </trkpt>
      <trkpt lat="44.97057" lon="4.4526">
        <ele>1087</ele>
        <time>2015-12-07T08:53:01Z</time>
      </trkpt>
      <trkpt lat="44.97053" lon="4.45271">
        <ele>1087</ele>
        <time>2015-12-07T08:53:04Z</time>
      </trkpt>
      <trkpt lat="44.97047" lon="4.45287">
        <ele>1087</ele>
        <time>2015-12-07T08:53:08Z</time>
      </trkpt>
      <trkpt lat="44.97042" lon="4.45299">
        <ele>1087</ele>
        <time>2015-12-07T08:53:11Z</time>
      </trkpt>
      <trkpt lat="44.97039" lon="4.45306">
        <ele>1087</ele>
        <time>2015-12-07T08:53:14Z</time>
      </trkpt>
      <trkpt lat="44.97035" lon="4.45316">
        <ele>1087</ele>
        <time>2015-12-07T08:53:18Z</time>
      </trkpt>
      <trkpt lat="44.9703" lon="4.45334">
        <ele>1087</ele>
        <time>2015-12-07T08:53:22Z</time>
      </trkpt>
      <trkpt lat="44.97024" lon="4.45347">
        <ele>1086</ele>
        <time>2015-12-07T08:53:26Z</time>
      </trkpt>
      <trkpt lat="44.97021" lon="4.45361">
        <ele>1086</ele>
        <time>2015-12-07T08:53:29Z</time>
      </trkpt>
      <trkpt lat="44.97008" lon="4.45384">
        <ele>1086</ele>
        <time>2015-12-07T08:53:34Z</time>
      </trkpt>
      <trkpt lat="44.96999" lon="4.45403">
        <ele>1085</ele>
        <time>2015-12-07T08:53:38Z</time>
      </trkpt>
      <trkpt lat="44.96992" lon="4.45419">
        <ele>1085</ele>
        <time>2015-12-07T08:53:42Z</time>
      </trkpt>
      <trkpt lat="44.96985" lon="4.45433">
        <ele>1085</ele>
        <time>2015-12-07T08:53:46Z</time>
      </trkpt>
      <trkpt lat="44.96977" lon="4.45446">
        <ele>1084</ele>
        <time>2015-12-07T08:53:50Z</time>
      </trkpt>
      <trkpt lat="44.96969" lon="4.45463">
        <ele>1084</ele>
        <time>2015-12-07T08:53:55Z</time>
      </trkpt>
      <trkpt lat="44.96962" lon="4.45476">
        <ele>1083</ele>
        <time>2015-12-07T08:53:59Z</time>
      </trkpt>
      <trkpt lat="44.96961" lon="4.45484">
        <ele>1082</ele>
        <time>2015-12-07T08:54:02Z</time>
      </trkpt>
      <trkpt lat="44.96957" lon="4.45497">
        <ele>1081</ele>
        <time>2015-12-07T08:54:06Z</time>
      </trkpt>
      <trkpt lat="44.96955" lon="4.4551">
        <ele>1080</ele>
        <time>2015-12-07T08:54:10Z</time>
      </trkpt>
      <trkpt lat="44.96953" lon="4.4552">
        <ele>1079</ele>
        <time>2015-12-07T08:54:13Z</time>
      </trkpt>
      <trkpt lat="44.9695" lon="4.45538">
        <ele>1078</ele>
        <time>2015-12-07T08:54:18Z</time>
      </trkpt>
      <trkpt lat="44.96944" lon="4.45554">
        <ele>1077</ele>
        <time>2015-12-07T08:54:22Z</time>
      </trkpt>
      <trkpt lat="44.96941" lon="4.4557">
        <ele>1076</ele>
        <time>2015-12-07T08:54:26Z</time>
      </trkpt>
      <trkpt lat="44.96938" lon="4.4558">
        <ele>1076</ele>
        <time>2015-12-07T08:54:29Z</time>
      </trkpt>
      <trkpt lat="44.96934" lon="4.45591">
        <ele>1075</ele>
        <time>2015-12-07T08:54:32Z</time>
      </trkpt>
      <trkpt lat="44.96926" lon="4.45607">
        <ele>1074</ele>
        <time>2015-12-07T08:54:36Z</time>
      </trkpt>
      <trkpt lat="44.96916" lon="4.45619">
        <ele>1073</ele>
        <time>2015-12-07T08:54:40Z</time>
      </trkpt>
      <trkpt lat="44.96908" lon="4.45624">
        <ele>1072</ele>
        <time>2015-12-07T08:54:43Z</time>
      </trkpt>
      <trkpt lat="44.96901" lon="4.45632">
        <ele>1072</ele>
        <time>2015-12-07T08:54:47Z</time>
      </trkpt>
      <trkpt lat="44.96896" lon="4.45643">
        <ele>1070</ele>
        <time>2015-12-07T08:54:51Z</time>
      </trkpt>
      <trkpt lat="44.9689" lon="4.45661">
        <ele>1069</ele>
        <time>2015-12-07T08:54:56Z</time>
      </trkpt>
      <trkpt lat="44.96883" lon="4.45669">
        <ele>1068</ele>
        <time>2015-12-07T08:55:02Z</time>
      </trkpt>
      <trkpt lat="44.96888" lon="4.45677">
        <ele>1068</ele>
        <time>2015-12-07T08:55:16Z</time>
      </trkpt>
      <trkpt lat="44.96892" lon="4.45688">
        <ele>1067</ele>
        <time>2015-12-07T08:55:28Z</time>
      </trkpt>
      <trkpt lat="44.96887" lon="4.45698">
        <ele>1066</ele>
        <time>2015-12-07T08:55:44Z</time>
      </trkpt>
      <trkpt lat="44.96888" lon="4.45688">
        <ele>1066</ele>
        <time>2015-12-07T08:56:00Z</time>
      </trkpt>
      <trkpt lat="44.9689" lon="4.45679">
        <ele>1067</ele>
        <time>2015-12-07T08:56:06Z</time>
      </trkpt>
      <trkpt lat="44.96891" lon="4.45668">
        <ele>1067</ele>
        <time>2015-12-07T08:56:11Z</time>
      </trkpt>
      <trkpt lat="44.96891" lon="4.45658">
        <ele>1067</ele>
        <time>2015-12-07T08:56:14Z</time>
      </trkpt>
      <trkpt lat="44.96891" lon="4.45646">
        <ele>1067</ele>
        <time>2015-12-07T08:56:19Z</time>
      </trkpt>
      <trkpt lat="44.96892" lon="4.45631">
        <ele>1066</ele>
        <time>2015-12-07T08:56:24Z</time>
      </trkpt>
      <trkpt lat="44.96894" lon="4.45614">
        <ele>1066</ele>
        <time>2015-12-07T08:56:29Z</time>
      </trkpt>
      <trkpt lat="44.96895" lon="4.45606">
        <ele>1065</ele>
        <time>2015-12-07T08:56:32Z</time>
      </trkpt>
      <trkpt lat="44.96896" lon="4.45594">
        <ele>1064</ele>
        <time>2015-12-07T08:56:36Z</time>
      </trkpt>
      <trkpt lat="44.96897" lon="4.45584">
        <ele>1062</ele>
        <time>2015-12-07T08:56:40Z</time>
      </trkpt>
      <trkpt lat="44.96898" lon="4.45571">
        <ele>1060</ele>
        <time>2015-12-07T08:56:45Z</time>
      </trkpt>
      <trkpt lat="44.9689" lon="4.45569">
        <ele>1057</ele>
        <time>2015-12-07T08:56:52Z</time>
      </trkpt>
      <trkpt lat="44.96885" lon="4.45576">
        <ele>1053</ele>
        <time>2015-12-07T08:56:56Z</time>
      </trkpt>
      <trkpt lat="44.96881" lon="4.45583">
        <ele>1047</ele>
        <time>2015-12-07T08:57:00Z</time>
      </trkpt>
      <trkpt lat="44.96875" lon="4.4559">
        <ele>1042</ele>
        <time>2015-12-07T08:57:05Z</time>
      </trkpt>
      <trkpt lat="44.96872" lon="4.45601">
        <ele>1035</ele>
        <time>2015-12-07T08:57:15Z</time>
      </trkpt>
      <trkpt lat="44.96874" lon="4.45611">
        <ele>1031</ele>
        <time>2015-12-07T08:57:25Z</time>
      </trkpt>
      <trkpt lat="44.96877" lon="4.45623">
        <ele>1028</ele>
        <time>2015-12-07T08:57:32Z</time>
      </trkpt>
      <trkpt lat="44.96874" lon="4.45611">
        <ele>1026</ele>
        <time>2015-12-07T08:57:48Z</time>
      </trkpt>
      <trkpt lat="44.96869" lon="4.45616">
        <ele>1025</ele>
        <time>2015-12-07T08:58:02Z</time>
      </trkpt>
      <trkpt lat="44.96863" lon="4.45632">
        <ele>1025</ele>
        <time>2015-12-07T08:58:06Z</time>
      </trkpt>
      <trkpt lat="44.96857" lon="4.45645">
        <ele>1025</ele>
        <time>2015-12-07T08:58:10Z</time>
      </trkpt>
      <trkpt lat="44.96851" lon="4.4566">
        <ele>1025</ele>
        <time>2015-12-07T08:58:15Z</time>
      </trkpt>
      <trkpt lat="44.96844" lon="4.45673">
        <ele>1025</ele>
        <time>2015-12-07T08:58:19Z</time>
      </trkpt>
      <trkpt lat="44.9684" lon="4.45683">
        <ele>1024</ele>
        <time>2015-12-07T08:58:22Z</time>
      </trkpt>
      <trkpt lat="44.96832" lon="4.45693">
        <ele>1025</ele>
        <time>2015-12-07T08:58:26Z</time>
      </trkpt>
      <trkpt lat="44.96825" lon="4.45699">
        <ele>1025</ele>
        <time>2015-12-07T08:58:30Z</time>
      </trkpt>
      <trkpt lat="44.96818" lon="4.45705">
        <ele>1024</ele>
        <time>2015-12-07T08:58:36Z</time>
      </trkpt>
      <trkpt lat="44.9682" lon="4.45713">
        <ele>1023</ele>
        <time>2015-12-07T08:59:49Z</time>
      </trkpt>
      <trkpt lat="44.96824" lon="4.45703">
        <ele>1023</ele>
        <time>2015-12-07T09:00:17Z</time>
      </trkpt>
      <trkpt lat="44.9683" lon="4.45697">
        <ele>1023</ele>
        <time>2015-12-07T09:00:24Z</time>
      </trkpt>
      <trkpt lat="44.96836" lon="4.4569">
        <ele>1023</ele>
        <time>2015-12-07T09:00:29Z</time>
      </trkpt>
      <trkpt lat="44.96841" lon="4.45685">
        <ele>1023</ele>
        <time>2015-12-07T09:00:34Z</time>
      </trkpt>
      <trkpt lat="44.96846" lon="4.45675">
        <ele>1023</ele>
        <time>2015-12-07T09:00:38Z</time>
      </trkpt>
      <trkpt lat="44.96852" lon="4.45662">
        <ele>1023</ele>
        <time>2015-12-07T09:00:42Z</time>
      </trkpt>
      <trkpt lat="44.96858" lon="4.45648">
        <ele>1023</ele>
        <time>2015-12-07T09:00:46Z</time>
      </trkpt>
      <trkpt lat="44.96862" lon="4.45637">
        <ele>1023</ele>
        <time>2015-12-07T09:00:49Z</time>
      </trkpt>
      <trkpt lat="44.96869" lon="4.45621">
        <ele>1023</ele>
        <time>2015-12-07T09:00:54Z</time>
      </trkpt>
      <trkpt lat="44.96874" lon="4.45608">
        <ele>1022</ele>
        <time>2015-12-07T09:00:59Z</time>
      </trkpt>
      <trkpt lat="44.96877" lon="4.45596">
        <ele>1022</ele>
        <time>2015-12-07T09:01:03Z</time>
      </trkpt>
      <trkpt lat="44.96878" lon="4.45581">
        <ele>1023</ele>
        <time>2015-12-07T09:01:08Z</time>
      </trkpt>
      <trkpt lat="44.96881" lon="4.45564">
        <ele>1024</ele>
        <time>2015-12-07T09:01:12Z</time>
      </trkpt>
      <trkpt lat="44.96887" lon="4.45547">
        <ele>1025</ele>
        <time>2015-12-07T09:01:16Z</time>
      </trkpt>
      <trkpt lat="44.96891" lon="4.45531">
        <ele>1025</ele>
        <time>2015-12-07T09:01:20Z</time>
      </trkpt>
      <trkpt lat="44.96895" lon="4.45518">
        <ele>1025</ele>
        <time>2015-12-07T09:01:25Z</time>
      </trkpt>
      <trkpt lat="44.96897" lon="4.45508">
        <ele>1025</ele>
        <time>2015-12-07T09:01:30Z</time>
      </trkpt>
      <trkpt lat="44.96897" lon="4.45491">
        <ele>1025</ele>
        <time>2015-12-07T09:01:35Z</time>
      </trkpt>
      <trkpt lat="44.96898" lon="4.45466">
        <ele>1025</ele>
        <time>2015-12-07T09:01:40Z</time>
      </trkpt>
      <trkpt lat="44.96898" lon="4.4545">
        <ele>1025</ele>
        <time>2015-12-07T09:01:44Z</time>
      </trkpt>
      <trkpt lat="44.96897" lon="4.45435">
        <ele>1025</ele>
        <time>2015-12-07T09:01:48Z</time>
      </trkpt>
      <trkpt lat="44.96888" lon="4.45426">
        <ele>1025</ele>
        <time>2015-12-07T09:01:53Z</time>
      </trkpt>
      <trkpt lat="44.96875" lon="4.45422">
        <ele>1026</ele>
        <time>2015-12-07T09:01:58Z</time>
      </trkpt>
      <trkpt lat="44.9687" lon="4.45427">
        <ele>1027</ele>
        <time>2015-12-07T09:02:03Z</time>
      </trkpt>
      <trkpt lat="44.96861" lon="4.45425">
        <ele>1028</ele>
        <time>2015-12-07T09:02:08Z</time>
      </trkpt>
      <trkpt lat="44.96851" lon="4.45423">
        <ele>1028</ele>
        <time>2015-12-07T09:02:13Z</time>
      </trkpt>
      <trkpt lat="44.96842" lon="4.45426">
        <ele>1030</ele>
        <time>2015-12-07T09:02:18Z</time>
      </trkpt>
      <trkpt lat="44.96835" lon="4.45421">
        <ele>1030</ele>
        <time>2015-12-07T09:02:22Z</time>
      </trkpt>
      <trkpt lat="44.96827" lon="4.45418">
        <ele>1031</ele>
        <time>2015-12-07T09:02:26Z</time>
      </trkpt>
      <trkpt lat="44.96817" lon="4.45417">
        <ele>1032</ele>
        <time>2015-12-07T09:02:30Z</time>
      </trkpt>
      <trkpt lat="44.9681" lon="4.45419">
        <ele>1034</ele>
        <time>2015-12-07T09:02:36Z</time>
      </trkpt>
      <trkpt lat="44.96807" lon="4.45428">
        <ele>1041</ele>
        <time>2015-12-07T09:02:57Z</time>
      </trkpt>
      <trkpt lat="44.96806" lon="4.45417">
        <ele>1050</ele>
        <time>2015-12-07T09:03:22Z</time>
      </trkpt>
      <trkpt lat="44.96823" lon="4.45418">
        <ele>1051</ele>
        <time>2015-12-07T09:03:26Z</time>
      </trkpt>
      <trkpt lat="44.96825" lon="4.4543">
        <ele>1053</ele>
        <time>2015-12-07T09:03:35Z</time>
      </trkpt>
      <trkpt lat="44.96849" lon="4.45436">
        <ele>1053</ele>
        <time>2015-12-07T09:03:39Z</time>
      </trkpt>
      <trkpt lat="44.96865" lon="4.45432">
        <ele>1053</ele>
        <time>2015-12-07T09:03:43Z</time>
      </trkpt>
      <trkpt lat="44.9688" lon="4.45429">
        <ele>1053</ele>
        <time>2015-12-07T09:03:47Z</time>
      </trkpt>
      <trkpt lat="44.96887" lon="4.45437">
        <ele>1053</ele>
        <time>2015-12-07T09:03:50Z</time>
      </trkpt>
      <trkpt lat="44.96889" lon="4.45455">
        <ele>1053</ele>
        <time>2015-12-07T09:03:54Z</time>
      </trkpt>
      <trkpt lat="44.96888" lon="4.45468">
        <ele>1052</ele>
        <time>2015-12-07T09:03:58Z</time>
      </trkpt>
      <trkpt lat="44.96888" lon="4.45484">
        <ele>1051</ele>
        <time>2015-12-07T09:04:02Z</time>
      </trkpt>
      <trkpt lat="44.96889" lon="4.45501">
        <ele>1049</ele>
        <time>2015-12-07T09:04:06Z</time>
      </trkpt>
      <trkpt lat="44.96885" lon="4.45514">
        <ele>1046</ele>
        <time>2015-12-07T09:04:10Z</time>
      </trkpt>
      <trkpt lat="44.96878" lon="4.45531">
        <ele>1043</ele>
        <time>2015-12-07T09:04:14Z</time>
      </trkpt>
      <trkpt lat="44.96876" lon="4.45546">
        <ele>1041</ele>
        <time>2015-12-07T09:04:18Z</time>
      </trkpt>
      <trkpt lat="44.96863" lon="4.45566">
        <ele>1042</ele>
        <time>2015-12-07T09:04:23Z</time>
      </trkpt>
      <trkpt lat="44.96865" lon="4.45578">
        <ele>1041</ele>
        <time>2015-12-07T09:04:26Z</time>
      </trkpt>
      <trkpt lat="44.96868" lon="4.45596">
        <ele>1036</ele>
        <time>2015-12-07T09:04:30Z</time>
      </trkpt>
      <trkpt lat="44.96868" lon="4.45606">
        <ele>1035</ele>
        <time>2015-12-07T09:04:33Z</time>
      </trkpt>
      <trkpt lat="44.96865" lon="4.45621">
        <ele>1032</ele>
        <time>2015-12-07T09:04:38Z</time>
      </trkpt>
      <trkpt lat="44.96863" lon="4.45633">
        <ele>1030</ele>
        <time>2015-12-07T09:04:42Z</time>
      </trkpt>
      <trkpt lat="44.9686" lon="4.45643">
        <ele>1028</ele>
        <time>2015-12-07T09:04:45Z</time>
      </trkpt>
      <trkpt lat="44.96854" lon="4.45656">
        <ele>1027</ele>
        <time>2015-12-07T09:04:49Z</time>
      </trkpt>
      <trkpt lat="44.96844" lon="4.45678">
        <ele>1026</ele>
        <time>2015-12-07T09:04:54Z</time>
      </trkpt>
      <trkpt lat="44.96836" lon="4.45688">
        <ele>1026</ele>
        <time>2015-12-07T09:04:57Z</time>
      </trkpt>
      <trkpt lat="44.96828" lon="4.45704">
        <ele>1026</ele>
        <time>2015-12-07T09:05:01Z</time>
      </trkpt>
      <trkpt lat="44.96819" lon="4.45718">
        <ele>1025</ele>
        <time>2015-12-07T09:05:05Z</time>
      </trkpt>
      <trkpt lat="44.96813" lon="4.4573">
        <ele>1024</ele>
        <time>2015-12-07T09:05:08Z</time>
      </trkpt>
      <trkpt lat="44.968" lon="4.45744">
        <ele>1021</ele>
        <time>2015-12-07T09:05:13Z</time>
      </trkpt>
      <trkpt lat="44.96792" lon="4.4575">
        <ele>1019</ele>
        <time>2015-12-07T09:05:17Z</time>
      </trkpt>
      <trkpt lat="44.96775" lon="4.45766">
        <ele>1015</ele>
        <time>2015-12-07T09:05:22Z</time>
      </trkpt>
      <trkpt lat="44.96757" lon="4.45777">
        <ele>1013</ele>
        <time>2015-12-07T09:05:26Z</time>
      </trkpt>
      <trkpt lat="44.96736" lon="4.45785">
        <ele>1012</ele>
        <time>2015-12-07T09:05:30Z</time>
      </trkpt>
      <trkpt lat="44.96712" lon="4.45801">
        <ele>1011</ele>
        <time>2015-12-07T09:05:34Z</time>
      </trkpt>
      <trkpt lat="44.96687" lon="4.45821">
        <ele>1011</ele>
        <time>2015-12-07T09:05:38Z</time>
      </trkpt>
      <trkpt lat="44.96665" lon="4.4584">
        <ele>1009</ele>
        <time>2015-12-07T09:05:42Z</time>
      </trkpt>
      <trkpt lat="44.9664" lon="4.45859">
        <ele>1008</ele>
        <time>2015-12-07T09:05:46Z</time>
      </trkpt>
      <trkpt lat="44.96616" lon="4.45878">
        <ele>1008</ele>
        <time>2015-12-07T09:05:50Z</time>
      </trkpt>
      <trkpt lat="44.96593" lon="4.4589">
        <ele>1007</ele>
        <time>2015-12-07T09:05:54Z</time>
      </trkpt>
      <trkpt lat="44.96573" lon="4.45903">
        <ele>1006</ele>
        <time>2015-12-07T09:05:58Z</time>
      </trkpt>
      <trkpt lat="44.96556" lon="4.45911">
        <ele>1006</ele>
        <time>2015-12-07T09:06:02Z</time>
      </trkpt>
      <trkpt lat="44.96543" lon="4.45916">
        <ele>1005</ele>
        <time>2015-12-07T09:06:05Z</time>
      </trkpt>
      <trkpt lat="44.96526" lon="4.45929">
        <ele>1004</ele>
        <time>2015-12-07T09:06:10Z</time>
      </trkpt>
      <trkpt lat="44.96506" lon="4.45937">
        <ele>1004</ele>
        <time>2015-12-07T09:06:14Z</time>
      </trkpt>
      <trkpt lat="44.96492" lon="4.45932">
        <ele>1003</ele>
        <time>2015-12-07T09:06:18Z</time>
      </trkpt>
      <trkpt lat="44.96488" lon="4.45948">
        <ele>997</ele>
        <time>2015-12-07T09:06:22Z</time>
      </trkpt>
      <trkpt lat="44.96475" lon="4.45947">
        <ele>992</ele>
        <time>2015-12-07T09:06:27Z</time>
      </trkpt>
      <trkpt lat="44.96463" lon="4.4595">
        <ele>989</ele>
        <time>2015-12-07T09:06:30Z</time>
      </trkpt>
      <trkpt lat="44.96442" lon="4.45947">
        <ele>984</ele>
        <time>2015-12-07T09:06:34Z</time>
      </trkpt>
      <trkpt lat="44.96411" lon="4.45946">
        <ele>978</ele>
        <time>2015-12-07T09:06:39Z</time>
      </trkpt>
      <trkpt lat="44.9639" lon="4.45952">
        <ele>974</ele>
        <time>2015-12-07T09:06:43Z</time>
      </trkpt>
      <trkpt lat="44.96368" lon="4.45961">
        <ele>968</ele>
        <time>2015-12-07T09:06:48Z</time>
      </trkpt>
      <trkpt lat="44.9635" lon="4.45963">
        <ele>963</ele>
        <time>2015-12-07T09:06:52Z</time>
      </trkpt>
      <trkpt lat="44.96316" lon="4.45962">
        <ele>958</ele>
        <time>2015-12-07T09:06:57Z</time>
      </trkpt>
      <trkpt lat="44.96299" lon="4.45969">
        <ele>952</ele>
        <time>2015-12-07T09:07:02Z</time>
      </trkpt>
      <trkpt lat="44.96288" lon="4.45979">
        <ele>949</ele>
        <time>2015-12-07T09:07:06Z</time>
      </trkpt>
      <trkpt lat="44.96275" lon="4.45993">
        <ele>945</ele>
        <time>2015-12-07T09:07:11Z</time>
      </trkpt>
      <trkpt lat="44.96261" lon="4.46013">
        <ele>942</ele>
        <time>2015-12-07T09:07:15Z</time>
      </trkpt>
      <trkpt lat="44.96236" lon="4.4604">
        <ele>941</ele>
        <time>2015-12-07T09:07:20Z</time>
      </trkpt>
      <trkpt lat="44.96222" lon="4.46052">
        <ele>939</ele>
        <time>2015-12-07T09:07:24Z</time>
      </trkpt>
      <trkpt lat="44.96207" lon="4.46056">
        <ele>938</ele>
        <time>2015-12-07T09:07:29Z</time>
      </trkpt>
      <trkpt lat="44.96199" lon="4.46052">
        <ele>938</ele>
        <time>2015-12-07T09:07:32Z</time>
      </trkpt>
      <trkpt lat="44.96194" lon="4.46044">
        <ele>938</ele>
        <time>2015-12-07T09:07:35Z</time>
      </trkpt>
      <trkpt lat="44.96187" lon="4.46043">
        <ele>937</ele>
        <time>2015-12-07T09:07:39Z</time>
      </trkpt>
      <trkpt lat="44.96183" lon="4.46059">
        <ele>938</ele>
        <time>2015-12-07T09:07:44Z</time>
      </trkpt>
      <trkpt lat="44.96183" lon="4.46076">
        <ele>936</ele>
        <time>2015-12-07T09:07:48Z</time>
      </trkpt>
      <trkpt lat="44.96182" lon="4.46096">
        <ele>935</ele>
        <time>2015-12-07T09:07:52Z</time>
      </trkpt>
      <trkpt lat="44.9618" lon="4.4611">
        <ele>933</ele>
        <time>2015-12-07T09:07:57Z</time>
      </trkpt>
      <trkpt lat="44.96175" lon="4.46127">
        <ele>932</ele>
        <time>2015-12-07T09:08:00Z</time>
      </trkpt>
      <trkpt lat="44.9617" lon="4.46143">
        <ele>931</ele>
        <time>2015-12-07T09:08:04Z</time>
      </trkpt>
      <trkpt lat="44.96166" lon="4.46153">
        <ele>929</ele>
        <time>2015-12-07T09:08:08Z</time>
      </trkpt>
      <trkpt lat="44.96174" lon="4.46154">
        <ele>925</ele>
        <time>2015-12-07T09:08:20Z</time>
      </trkpt>
      <trkpt lat="44.9618" lon="4.46158">
        <ele>920</ele>
        <time>2015-12-07T09:08:35Z</time>
      </trkpt>
      <trkpt lat="44.96179" lon="4.46171">
        <ele>919</ele>
        <time>2015-12-07T09:08:39Z</time>
      </trkpt>
      <trkpt lat="44.96175" lon="4.46179">
        <ele>917</ele>
        <time>2015-12-07T09:08:43Z</time>
      </trkpt>
      <trkpt lat="44.96173" lon="4.46194">
        <ele>915</ele>
        <time>2015-12-07T09:08:48Z</time>
      </trkpt>
      <trkpt lat="44.96175" lon="4.46209">
        <ele>913</ele>
        <time>2015-12-07T09:08:53Z</time>
      </trkpt>
      <trkpt lat="44.96178" lon="4.46219">
        <ele>912</ele>
        <time>2015-12-07T09:08:57Z</time>
      </trkpt>
      <trkpt lat="44.96178" lon="4.4623">
        <ele>909</ele>
        <time>2015-12-07T09:09:04Z</time>
      </trkpt>
      <trkpt lat="44.96179" lon="4.46238">
        <ele>908</ele>
        <time>2015-12-07T09:09:07Z</time>
      </trkpt>
      <trkpt lat="44.9618" lon="4.4625">
        <ele>906</ele>
        <time>2015-12-07T09:09:12Z</time>
      </trkpt>
      <trkpt lat="44.96182" lon="4.4626">
        <ele>904</ele>
        <time>2015-12-07T09:09:17Z</time>
      </trkpt>
      <trkpt lat="44.96183" lon="4.4627">
        <ele>901</ele>
        <time>2015-12-07T09:09:23Z</time>
      </trkpt>
      <trkpt lat="44.96184" lon="4.46281">
        <ele>899</ele>
        <time>2015-12-07T09:09:31Z</time>
      </trkpt>
      <trkpt lat="44.96184" lon="4.46291">
        <ele>897</ele>
        <time>2015-12-07T09:09:37Z</time>
      </trkpt>
      <trkpt lat="44.96186" lon="4.46303">
        <ele>896</ele>
        <time>2015-12-07T09:09:44Z</time>
      </trkpt>
      <trkpt lat="44.96189" lon="4.4631">
        <ele>895</ele>
        <time>2015-12-07T09:09:51Z</time>
      </trkpt>
      <trkpt lat="44.96191" lon="4.46318">
        <ele>894</ele>
        <time>2015-12-07T09:09:55Z</time>
      </trkpt>
      <trkpt lat="44.96196" lon="4.46326">
        <ele>893</ele>
        <time>2015-12-07T09:09:59Z</time>
      </trkpt>
      <trkpt lat="44.96199" lon="4.46336">
        <ele>892</ele>
        <time>2015-12-07T09:10:04Z</time>
      </trkpt>
      <trkpt lat="44.96201" lon="4.46348">
        <ele>890</ele>
        <time>2015-12-07T09:10:13Z</time>
      </trkpt>
      <trkpt lat="44.96203" lon="4.46357">
        <ele>888</ele>
        <time>2015-12-07T09:10:19Z</time>
      </trkpt>
      <trkpt lat="44.962" lon="4.46368">
        <ele>886</ele>
        <time>2015-12-07T09:10:27Z</time>
      </trkpt>
      <trkpt lat="44.96191" lon="4.46371">
        <ele>885</ele>
        <time>2015-12-07T09:10:41Z</time>
      </trkpt>
      <trkpt lat="44.96191" lon="4.46383">
        <ele>885</ele>
        <time>2015-12-07T09:10:44Z</time>
      </trkpt>
      <trkpt lat="44.96198" lon="4.46393">
        <ele>885</ele>
        <time>2015-12-07T09:10:49Z</time>
      </trkpt>
      <trkpt lat="44.96203" lon="4.46401">
        <ele>886</ele>
        <time>2015-12-07T09:10:54Z</time>
      </trkpt>
      <trkpt lat="44.96206" lon="4.46412">
        <ele>886</ele>
        <time>2015-12-07T09:11:00Z</time>
      </trkpt>
      <trkpt lat="44.96212" lon="4.4642">
        <ele>886</ele>
        <time>2015-12-07T09:11:06Z</time>
      </trkpt>
      <trkpt lat="44.96218" lon="4.46429">
        <ele>886</ele>
        <time>2015-12-07T09:11:11Z</time>
      </trkpt>
      <trkpt lat="44.9622" lon="4.46439">
        <ele>886</ele>
        <time>2015-12-07T09:11:16Z</time>
      </trkpt>
      <trkpt lat="44.96221" lon="4.46451">
        <ele>886</ele>
        <time>2015-12-07T09:11:23Z</time>
      </trkpt>
      <trkpt lat="44.96223" lon="4.4646">
        <ele>886</ele>
        <time>2015-12-07T09:11:28Z</time>
      </trkpt>
      <trkpt lat="44.96229" lon="4.4647">
        <ele>885</ele>
        <time>2015-12-07T09:11:42Z</time>
      </trkpt>
      <trkpt lat="44.96231" lon="4.46481">
        <ele>885</ele>
        <time>2015-12-07T09:11:51Z</time>
      </trkpt>
      <trkpt lat="44.96227" lon="4.46492">
        <ele>886</ele>
        <time>2015-12-07T09:12:05Z</time>
      </trkpt>
      <trkpt lat="44.96229" lon="4.46503">
        <ele>887</ele>
        <time>2015-12-07T09:12:15Z</time>
      </trkpt>
      <trkpt lat="44.96231" lon="4.46515">
        <ele>887</ele>
        <time>2015-12-07T09:12:22Z</time>
      </trkpt>
      <trkpt lat="44.96233" lon="4.46525">
        <ele>886</ele>
        <time>2015-12-07T09:12:29Z</time>
      </trkpt>
      <trkpt lat="44.96235" lon="4.46539">
        <ele>886</ele>
        <time>2015-12-07T09:12:33Z</time>
      </trkpt>
      <trkpt lat="44.96236" lon="4.46554">
        <ele>885</ele>
        <time>2015-12-07T09:12:37Z</time>
      </trkpt>
      <trkpt lat="44.96241" lon="4.46566">
        <ele>884</ele>
        <time>2015-12-07T09:12:41Z</time>
      </trkpt>
      <trkpt lat="44.96245" lon="4.4658">
        <ele>883</ele>
        <time>2015-12-07T09:12:45Z</time>
      </trkpt>
      <trkpt lat="44.96245" lon="4.46595">
        <ele>882</ele>
        <time>2015-12-07T09:12:49Z</time>
      </trkpt>
      <trkpt lat="44.9625" lon="4.46616">
        <ele>881</ele>
        <time>2015-12-07T09:12:53Z</time>
      </trkpt>
      <trkpt lat="44.96251" lon="4.46633">
        <ele>879</ele>
        <time>2015-12-07T09:12:57Z</time>
      </trkpt>
      <trkpt lat="44.96253" lon="4.46646">
        <ele>878</ele>
        <time>2015-12-07T09:13:00Z</time>
      </trkpt>
      <trkpt lat="44.96252" lon="4.46658">
        <ele>876</ele>
        <time>2015-12-07T09:13:04Z</time>
      </trkpt>
      <trkpt lat="44.9625" lon="4.46666">
        <ele>874</ele>
        <time>2015-12-07T09:13:07Z</time>
      </trkpt>
      <trkpt lat="44.9625" lon="4.4668">
        <ele>871</ele>
        <time>2015-12-07T09:13:11Z</time>
      </trkpt>
      <trkpt lat="44.9625" lon="4.46691">
        <ele>870</ele>
        <time>2015-12-07T09:13:15Z</time>
      </trkpt>
      <trkpt lat="44.96252" lon="4.46701">
        <ele>868</ele>
        <time>2015-12-07T09:13:19Z</time>
      </trkpt>
      <trkpt lat="44.96253" lon="4.46712">
        <ele>866</ele>
        <time>2015-12-07T09:13:23Z</time>
      </trkpt>
      <trkpt lat="44.96254" lon="4.46726">
        <ele>865</ele>
        <time>2015-12-07T09:13:28Z</time>
      </trkpt>
      <trkpt lat="44.96252" lon="4.46735">
        <ele>863</ele>
        <time>2015-12-07T09:13:33Z</time>
      </trkpt>
      <trkpt lat="44.96251" lon="4.46744">
        <ele>861</ele>
        <time>2015-12-07T09:13:37Z</time>
      </trkpt>
      <trkpt lat="44.96247" lon="4.46752">
        <ele>859</ele>
        <time>2015-12-07T09:13:43Z</time>
      </trkpt>
      <trkpt lat="44.96244" lon="4.46762">
        <ele>857</ele>
        <time>2015-12-07T09:13:52Z</time>
      </trkpt>
      <trkpt lat="44.96241" lon="4.46773">
        <ele>855</ele>
        <time>2015-12-07T09:14:02Z</time>
      </trkpt>
      <trkpt lat="44.96239" lon="4.46783">
        <ele>854</ele>
        <time>2015-12-07T09:14:13Z</time>
      </trkpt>
      <trkpt lat="44.96239" lon="4.46793">
        <ele>853</ele>
        <time>2015-12-07T09:14:18Z</time>
      </trkpt>
      <trkpt lat="44.96242" lon="4.46805">
        <ele>852</ele>
        <time>2015-12-07T09:14:22Z</time>
      </trkpt>
      <trkpt lat="44.96239" lon="4.46817">
        <ele>851</ele>
        <time>2015-12-07T09:14:27Z</time>
      </trkpt>
      <trkpt lat="44.96238" lon="4.46829">
        <ele>850</ele>
        <time>2015-12-07T09:14:41Z</time>
      </trkpt>
      <trkpt lat="44.96239" lon="4.46839">
        <ele>849</ele>
        <time>2015-12-07T09:14:47Z</time>
      </trkpt>
      <trkpt lat="44.96242" lon="4.4685">
        <ele>848</ele>
        <time>2015-12-07T09:14:54Z</time>
      </trkpt>
      <trkpt lat="44.96242" lon="4.4686">
        <ele>847</ele>
        <time>2015-12-07T09:14:57Z</time>
      </trkpt>
      <trkpt lat="44.96245" lon="4.46868">
        <ele>846</ele>
        <time>2015-12-07T09:15:01Z</time>
      </trkpt>
      <trkpt lat="44.9625" lon="4.46876">
        <ele>844</ele>
        <time>2015-12-07T09:15:07Z</time>
      </trkpt>
      <trkpt lat="44.96251" lon="4.46887">
        <ele>843</ele>
        <time>2015-12-07T09:15:19Z</time>
      </trkpt>
      <trkpt lat="44.96254" lon="4.46897">
        <ele>842</ele>
        <time>2015-12-07T09:15:25Z</time>
      </trkpt>
      <trkpt lat="44.96258" lon="4.46907">
        <ele>842</ele>
        <time>2015-12-07T09:15:30Z</time>
      </trkpt>
      <trkpt lat="44.96259" lon="4.46918">
        <ele>840</ele>
        <time>2015-12-07T09:15:38Z</time>
      </trkpt>
      <trkpt lat="44.96261" lon="4.46928">
        <ele>838</ele>
        <time>2015-12-07T09:15:50Z</time>
      </trkpt>
      <trkpt lat="44.96264" lon="4.46939">
        <ele>837</ele>
        <time>2015-12-07T09:15:56Z</time>
      </trkpt>
      <trkpt lat="44.96266" lon="4.46952">
        <ele>836</ele>
        <time>2015-12-07T09:16:03Z</time>
      </trkpt>
      <trkpt lat="44.96267" lon="4.46963">
        <ele>835</ele>
        <time>2015-12-07T09:16:09Z</time>
      </trkpt>
      <trkpt lat="44.96269" lon="4.46973">
        <ele>834</ele>
        <time>2015-12-07T09:16:14Z</time>
      </trkpt>
      <trkpt lat="44.96275" lon="4.46986">
        <ele>832</ele>
        <time>2015-12-07T09:16:19Z</time>
      </trkpt>
      <trkpt lat="44.96276" lon="4.46994">
        <ele>831</ele>
        <time>2015-12-07T09:16:22Z</time>
      </trkpt>
      <trkpt lat="44.9628" lon="4.47005">
        <ele>830</ele>
        <time>2015-12-07T09:16:27Z</time>
      </trkpt>
      <trkpt lat="44.96286" lon="4.47015">
        <ele>828</ele>
        <time>2015-12-07T09:16:33Z</time>
      </trkpt>
      <trkpt lat="44.9629" lon="4.47024">
        <ele>827</ele>
        <time>2015-12-07T09:16:38Z</time>
      </trkpt>
      <trkpt lat="44.96294" lon="4.47035">
        <ele>825</ele>
        <time>2015-12-07T09:16:43Z</time>
      </trkpt>
      <trkpt lat="44.96298" lon="4.47044">
        <ele>823</ele>
        <time>2015-12-07T09:16:51Z</time>
      </trkpt>
      <trkpt lat="44.96302" lon="4.47053">
        <ele>822</ele>
        <time>2015-12-07T09:16:57Z</time>
      </trkpt>
      <trkpt lat="44.96308" lon="4.47061">
        <ele>821</ele>
        <time>2015-12-07T09:17:03Z</time>
      </trkpt>
      <trkpt lat="44.96314" lon="4.47067">
        <ele>819</ele>
        <time>2015-12-07T09:17:10Z</time>
      </trkpt>
      <trkpt lat="44.96322" lon="4.47075">
        <ele>818</ele>
        <time>2015-12-07T09:17:15Z</time>
      </trkpt>
      <trkpt lat="44.96328" lon="4.47079">
        <ele>817</ele>
        <time>2015-12-07T09:17:18Z</time>
      </trkpt>
      <trkpt lat="44.96334" lon="4.47084">
        <ele>816</ele>
        <time>2015-12-07T09:17:22Z</time>
      </trkpt>
      <trkpt lat="44.96336" lon="4.47095">
        <ele>812</ele>
        <time>2015-12-07T09:17:31Z</time>
      </trkpt>
      <trkpt lat="44.96329" lon="4.47102">
        <ele>810</ele>
        <time>2015-12-07T09:17:44Z</time>
      </trkpt>
      <trkpt lat="44.96324" lon="4.47114">
        <ele>809</ele>
        <time>2015-12-07T09:17:48Z</time>
      </trkpt>
      <trkpt lat="44.9632" lon="4.47118">
        <ele>808</ele>
        <time>2015-12-07T09:17:57Z</time>
      </trkpt>
      <trkpt lat="44.96309" lon="4.4712">
        <ele>808</ele>
        <time>2015-12-07T09:18:01Z</time>
      </trkpt>
      <trkpt lat="44.96296" lon="4.47126">
        <ele>808</ele>
        <time>2015-12-07T09:18:05Z</time>
      </trkpt>
      <trkpt lat="44.96284" lon="4.47133">
        <ele>809</ele>
        <time>2015-12-07T09:18:09Z</time>
      </trkpt>
      <trkpt lat="44.96273" lon="4.47142">
        <ele>810</ele>
        <time>2015-12-07T09:18:13Z</time>
      </trkpt>
      <trkpt lat="44.96281" lon="4.47177">
        <ele>811</ele>
        <time>2015-12-07T09:18:17Z</time>
      </trkpt>
      <trkpt lat="44.96288" lon="4.47183">
        <ele>808</ele>
        <time>2015-12-07T09:18:25Z</time>
      </trkpt>
      <trkpt lat="44.96296" lon="4.47187">
        <ele>802</ele>
        <time>2015-12-07T09:18:36Z</time>
      </trkpt>
      <trkpt lat="44.96301" lon="4.47177">
        <ele>800</ele>
        <time>2015-12-07T09:18:40Z</time>
      </trkpt>
      <trkpt lat="44.96307" lon="4.47167">
        <ele>799</ele>
        <time>2015-12-07T09:18:46Z</time>
      </trkpt>
      <trkpt lat="44.96316" lon="4.47165">
        <ele>797</ele>
        <time>2015-12-07T09:18:52Z</time>
      </trkpt>
      <trkpt lat="44.96325" lon="4.47172">
        <ele>796</ele>
        <time>2015-12-07T09:18:56Z</time>
      </trkpt>
      <trkpt lat="44.96337" lon="4.4718">
        <ele>794</ele>
        <time>2015-12-07T09:19:00Z</time>
      </trkpt>
      <trkpt lat="44.96348" lon="4.47187">
        <ele>791</ele>
        <time>2015-12-07T09:19:05Z</time>
      </trkpt>
      <trkpt lat="44.96355" lon="4.47188">
        <ele>786</ele>
        <time>2015-12-07T09:19:11Z</time>
      </trkpt>
      <trkpt lat="44.96364" lon="4.47185">
        <ele>784</ele>
        <time>2015-12-07T09:19:15Z</time>
      </trkpt>
      <trkpt lat="44.96371" lon="4.47182">
        <ele>781</ele>
        <time>2015-12-07T09:19:20Z</time>
      </trkpt>
      <trkpt lat="44.96377" lon="4.47183">
        <ele>778</ele>
        <time>2015-12-07T09:19:23Z</time>
      </trkpt>
      <trkpt lat="44.96383" lon="4.47188">
        <ele>776</ele>
        <time>2015-12-07T09:19:28Z</time>
      </trkpt>
      <trkpt lat="44.96389" lon="4.47193">
        <ele>770</ele>
        <time>2015-12-07T09:19:35Z</time>
      </trkpt>
      <trkpt lat="44.96396" lon="4.47193">
        <ele>769</ele>
        <time>2015-12-07T09:19:39Z</time>
      </trkpt>
      <trkpt lat="44.96405" lon="4.4719">
        <ele>767</ele>
        <time>2015-12-07T09:19:42Z</time>
      </trkpt>
      <trkpt lat="44.96412" lon="4.47183">
        <ele>765</ele>
        <time>2015-12-07T09:19:48Z</time>
      </trkpt>
      <trkpt lat="44.96418" lon="4.47172">
        <ele>763</ele>
        <time>2015-12-07T09:19:52Z</time>
      </trkpt>
      <trkpt lat="44.96425" lon="4.47157">
        <ele>761</ele>
        <time>2015-12-07T09:19:56Z</time>
      </trkpt>
      <trkpt lat="44.96425" lon="4.47142">
        <ele>759</ele>
        <time>2015-12-07T09:20:00Z</time>
      </trkpt>
      <trkpt lat="44.96428" lon="4.47132">
        <ele>758</ele>
        <time>2015-12-07T09:20:04Z</time>
      </trkpt>
      <trkpt lat="44.96431" lon="4.4712">
        <ele>756</ele>
        <time>2015-12-07T09:20:09Z</time>
      </trkpt>
      <trkpt lat="44.96433" lon="4.47114">
        <ele>755</ele>
        <time>2015-12-07T09:20:12Z</time>
      </trkpt>
      <trkpt lat="44.96437" lon="4.47106">
        <ele>754</ele>
        <time>2015-12-07T09:20:16Z</time>
      </trkpt>
      <trkpt lat="44.96443" lon="4.47112">
        <ele>751</ele>
        <time>2015-12-07T09:20:23Z</time>
      </trkpt>
      <trkpt lat="44.96451" lon="4.47116">
        <ele>749</ele>
        <time>2015-12-07T09:20:28Z</time>
      </trkpt>
      <trkpt lat="44.96458" lon="4.47119">
        <ele>749</ele>
        <time>2015-12-07T09:20:32Z</time>
      </trkpt>
      <trkpt lat="44.96463" lon="4.47122">
        <ele>748</ele>
        <time>2015-12-07T09:20:35Z</time>
      </trkpt>
      <trkpt lat="44.96471" lon="4.47126">
        <ele>747</ele>
        <time>2015-12-07T09:20:40Z</time>
      </trkpt>
      <trkpt lat="44.96479" lon="4.47129">
        <ele>747</ele>
        <time>2015-12-07T09:20:45Z</time>
      </trkpt>
      <trkpt lat="44.96488" lon="4.47131">
        <ele>747</ele>
        <time>2015-12-07T09:20:49Z</time>
      </trkpt>
      <trkpt lat="44.96494" lon="4.47132">
        <ele>747</ele>
        <time>2015-12-07T09:20:52Z</time>
      </trkpt>
      <trkpt lat="44.96503" lon="4.47136">
        <ele>747</ele>
        <time>2015-12-07T09:20:56Z</time>
      </trkpt>
      <trkpt lat="44.9651" lon="4.47138">
        <ele>747</ele>
        <time>2015-12-07T09:20:59Z</time>
      </trkpt>
      <trkpt lat="44.96521" lon="4.47144">
        <ele>749</ele>
        <time>2015-12-07T09:21:04Z</time>
      </trkpt>
      <trkpt lat="44.9653" lon="4.47147">
        <ele>749</ele>
        <time>2015-12-07T09:21:09Z</time>
      </trkpt>
      <trkpt lat="44.96537" lon="4.47151">
        <ele>750</ele>
        <time>2015-12-07T09:21:13Z</time>
      </trkpt>
      <trkpt lat="44.96546" lon="4.47154">
        <ele>752</ele>
        <time>2015-12-07T09:21:21Z</time>
      </trkpt>
      <trkpt lat="44.96552" lon="4.47161">
        <ele>754</ele>
        <time>2015-12-07T09:21:27Z</time>
      </trkpt>
      <trkpt lat="44.96558" lon="4.47166">
        <ele>756</ele>
        <time>2015-12-07T09:21:32Z</time>
      </trkpt>
      <trkpt lat="44.96565" lon="4.47171">
        <ele>756</ele>
        <time>2015-12-07T09:21:38Z</time>
      </trkpt>
      <trkpt lat="44.96571" lon="4.47177">
        <ele>756</ele>
        <time>2015-12-07T09:21:44Z</time>
      </trkpt>
      <trkpt lat="44.96575" lon="4.47182">
        <ele>756</ele>
        <time>2015-12-07T09:21:50Z</time>
      </trkpt>
      <trkpt lat="44.96579" lon="4.47193">
        <ele>757</ele>
        <time>2015-12-07T09:21:54Z</time>
      </trkpt>
      <trkpt lat="44.96586" lon="4.47205">
        <ele>759</ele>
        <time>2015-12-07T09:21:58Z</time>
      </trkpt>
      <trkpt lat="44.96595" lon="4.47211">
        <ele>759</ele>
        <time>2015-12-07T09:22:03Z</time>
      </trkpt>
      <trkpt lat="44.96601" lon="4.47217">
        <ele>759</ele>
        <time>2015-12-07T09:22:07Z</time>
      </trkpt>
      <trkpt lat="44.96608" lon="4.4722">
        <ele>760</ele>
        <time>2015-12-07T09:22:21Z</time>
      </trkpt>
      <trkpt lat="44.96616" lon="4.4722">
        <ele>760</ele>
        <time>2015-12-07T09:22:29Z</time>
      </trkpt>
      <trkpt lat="44.96622" lon="4.47218">
        <ele>760</ele>
        <time>2015-12-07T09:22:35Z</time>
      </trkpt>
      <trkpt lat="44.9663" lon="4.47221">
        <ele>760</ele>
        <time>2015-12-07T09:22:42Z</time>
      </trkpt>
      <trkpt lat="44.96631" lon="4.4723">
        <ele>761</ele>
        <time>2015-12-07T09:22:47Z</time>
      </trkpt>
      <trkpt lat="44.96631" lon="4.47242">
        <ele>762</ele>
        <time>2015-12-07T09:22:54Z</time>
      </trkpt>
      <trkpt lat="44.96628" lon="4.47253">
        <ele>763</ele>
        <time>2015-12-07T09:23:00Z</time>
      </trkpt>
      <trkpt lat="44.96627" lon="4.47261">
        <ele>764</ele>
        <time>2015-12-07T09:23:05Z</time>
      </trkpt>
      <trkpt lat="44.96624" lon="4.47272">
        <ele>765</ele>
        <time>2015-12-07T09:23:11Z</time>
      </trkpt>
      <trkpt lat="44.9662" lon="4.47282">
        <ele>765</ele>
        <time>2015-12-07T09:23:17Z</time>
      </trkpt>
      <trkpt lat="44.96616" lon="4.47291">
        <ele>765</ele>
        <time>2015-12-07T09:23:23Z</time>
      </trkpt>
      <trkpt lat="44.96613" lon="4.47303">
        <ele>765</ele>
        <time>2015-12-07T09:23:32Z</time>
      </trkpt>
      <trkpt lat="44.96614" lon="4.47314">
        <ele>765</ele>
        <time>2015-12-07T09:23:39Z</time>
      </trkpt>
      <trkpt lat="44.96614" lon="4.47323">
        <ele>765</ele>
        <time>2015-12-07T09:23:43Z</time>
      </trkpt>
      <trkpt lat="44.96615" lon="4.47332">
        <ele>766</ele>
        <time>2015-12-07T09:23:47Z</time>
      </trkpt>
      <trkpt lat="44.96616" lon="4.47344">
        <ele>767</ele>
        <time>2015-12-07T09:23:53Z</time>
      </trkpt>
      <trkpt lat="44.96618" lon="4.47354">
        <ele>768</ele>
        <time>2015-12-07T09:23:58Z</time>
      </trkpt>
      <trkpt lat="44.96617" lon="4.47364">
        <ele>769</ele>
        <time>2015-12-07T09:24:04Z</time>
      </trkpt>
      <trkpt lat="44.96617" lon="4.47377">
        <ele>769</ele>
        <time>2015-12-07T09:24:13Z</time>
      </trkpt>
      <trkpt lat="44.96615" lon="4.47385">
        <ele>770</ele>
        <time>2015-12-07T09:24:17Z</time>
      </trkpt>
      <trkpt lat="44.96615" lon="4.47398">
        <ele>770</ele>
        <time>2015-12-07T09:24:21Z</time>
      </trkpt>
      <trkpt lat="44.96614" lon="4.47411">
        <ele>769</ele>
        <time>2015-12-07T09:24:25Z</time>
      </trkpt>
      <trkpt lat="44.96614" lon="4.47423">
        <ele>769</ele>
        <time>2015-12-07T09:24:29Z</time>
      </trkpt>
      <trkpt lat="44.96614" lon="4.47434">
        <ele>768</ele>
        <time>2015-12-07T09:24:33Z</time>
      </trkpt>
      <trkpt lat="44.96616" lon="4.47447">
        <ele>768</ele>
        <time>2015-12-07T09:24:37Z</time>
      </trkpt>
      <trkpt lat="44.96618" lon="4.47459">
        <ele>767</ele>
        <time>2015-12-07T09:24:41Z</time>
      </trkpt>
      <trkpt lat="44.96621" lon="4.47468">
        <ele>767</ele>
        <time>2015-12-07T09:24:45Z</time>
      </trkpt>
      <trkpt lat="44.96631" lon="4.47488">
        <ele>766</ele>
        <time>2015-12-07T09:24:50Z</time>
      </trkpt>
      <trkpt lat="44.96639" lon="4.47496">
        <ele>766</ele>
        <time>2015-12-07T09:24:54Z</time>
      </trkpt>
      <trkpt lat="44.96649" lon="4.47503">
        <ele>765</ele>
        <time>2015-12-07T09:24:59Z</time>
      </trkpt>
      <trkpt lat="44.96658" lon="4.47509">
        <ele>764</ele>
        <time>2015-12-07T09:25:03Z</time>
      </trkpt>
      <trkpt lat="44.96664" lon="4.47514">
        <ele>763</ele>
        <time>2015-12-07T09:25:06Z</time>
      </trkpt>
      <trkpt lat="44.96673" lon="4.47521">
        <ele>762</ele>
        <time>2015-12-07T09:25:10Z</time>
      </trkpt>
      <trkpt lat="44.96686" lon="4.47527">
        <ele>762</ele>
        <time>2015-12-07T09:25:15Z</time>
      </trkpt>
      <trkpt lat="44.96698" lon="4.47532">
        <ele>761</ele>
        <time>2015-12-07T09:25:19Z</time>
      </trkpt>
      <trkpt lat="44.96708" lon="4.47536">
        <ele>761</ele>
        <time>2015-12-07T09:25:23Z</time>
      </trkpt>
      <trkpt lat="44.96714" lon="4.47545">
        <ele>762</ele>
        <time>2015-12-07T09:25:28Z</time>
      </trkpt>
      <trkpt lat="44.96714" lon="4.47557">
        <ele>763</ele>
        <time>2015-12-07T09:25:31Z</time>
      </trkpt>
      <trkpt lat="44.96713" lon="4.47572">
        <ele>764</ele>
        <time>2015-12-07T09:25:35Z</time>
      </trkpt>
      <trkpt lat="44.96713" lon="4.4759">
        <ele>766</ele>
        <time>2015-12-07T09:25:40Z</time>
      </trkpt>
      <trkpt lat="44.96711" lon="4.47601">
        <ele>767</ele>
        <time>2015-12-07T09:25:45Z</time>
      </trkpt>
      <trkpt lat="44.96709" lon="4.4761">
        <ele>770</ele>
        <time>2015-12-07T09:25:50Z</time>
      </trkpt>
      <trkpt lat="44.9671" lon="4.47622">
        <ele>772</ele>
        <time>2015-12-07T09:25:56Z</time>
      </trkpt>
      <trkpt lat="44.96711" lon="4.47631">
        <ele>773</ele>
        <time>2015-12-07T09:26:00Z</time>
      </trkpt>
      <trkpt lat="44.96716" lon="4.47647">
        <ele>774</ele>
        <time>2015-12-07T09:26:05Z</time>
      </trkpt>
      <trkpt lat="44.96721" lon="4.47655">
        <ele>775</ele>
        <time>2015-12-07T09:26:09Z</time>
      </trkpt>
      <trkpt lat="44.96726" lon="4.47664">
        <ele>777</ele>
        <time>2015-12-07T09:26:12Z</time>
      </trkpt>
      <trkpt lat="44.96733" lon="4.47674">
        <ele>778</ele>
        <time>2015-12-07T09:26:16Z</time>
      </trkpt>
      <trkpt lat="44.96739" lon="4.4768">
        <ele>780</ele>
        <time>2015-12-07T09:26:20Z</time>
      </trkpt>
      <trkpt lat="44.96745" lon="4.47688">
        <ele>781</ele>
        <time>2015-12-07T09:26:29Z</time>
      </trkpt>
      <trkpt lat="44.9675" lon="4.47694">
        <ele>782</ele>
        <time>2015-12-07T09:26:34Z</time>
      </trkpt>
      <trkpt lat="44.96754" lon="4.47704">
        <ele>783</ele>
        <time>2015-12-07T09:26:41Z</time>
      </trkpt>
      <trkpt lat="44.96756" lon="4.47714">
        <ele>785</ele>
        <time>2015-12-07T09:26:49Z</time>
      </trkpt>
      <trkpt lat="44.9676" lon="4.47724">
        <ele>786</ele>
        <time>2015-12-07T09:26:56Z</time>
      </trkpt>
      <trkpt lat="44.96764" lon="4.47735">
        <ele>787</ele>
        <time>2015-12-07T09:27:03Z</time>
      </trkpt>
      <trkpt lat="44.96763" lon="4.47747">
        <ele>788</ele>
        <time>2015-12-07T09:27:07Z</time>
      </trkpt>
      <trkpt lat="44.96761" lon="4.47767">
        <ele>788</ele>
        <time>2015-12-07T09:27:11Z</time>
      </trkpt>
      <trkpt lat="44.96764" lon="4.47786">
        <ele>787</ele>
        <time>2015-12-07T09:27:15Z</time>
      </trkpt>
      <trkpt lat="44.96773" lon="4.4781">
        <ele>787</ele>
        <time>2015-12-07T09:27:20Z</time>
      </trkpt>
      <trkpt lat="44.96775" lon="4.47824">
        <ele>786</ele>
        <time>2015-12-07T09:27:24Z</time>
      </trkpt>
      <trkpt lat="44.96776" lon="4.47843">
        <ele>785</ele>
        <time>2015-12-07T09:27:28Z</time>
      </trkpt>
      <trkpt lat="44.96776" lon="4.4786">
        <ele>784</ele>
        <time>2015-12-07T09:27:32Z</time>
      </trkpt>
      <trkpt lat="44.96778" lon="4.4788">
        <ele>782</ele>
        <time>2015-12-07T09:27:36Z</time>
      </trkpt>
      <trkpt lat="44.96782" lon="4.47904">
        <ele>781</ele>
        <time>2015-12-07T09:27:40Z</time>
      </trkpt>
      <trkpt lat="44.96781" lon="4.47918">
        <ele>780</ele>
        <time>2015-12-07T09:27:44Z</time>
      </trkpt>
      <trkpt lat="44.96778" lon="4.47931">
        <ele>779</ele>
        <time>2015-12-07T09:27:48Z</time>
      </trkpt>
      <trkpt lat="44.96784" lon="4.47958">
        <ele>778</ele>
        <time>2015-12-07T09:27:53Z</time>
      </trkpt>
      <trkpt lat="44.96794" lon="4.47972">
        <ele>775</ele>
        <time>2015-12-07T09:27:57Z</time>
      </trkpt>
      <trkpt lat="44.96809" lon="4.47971">
        <ele>773</ele>
        <time>2015-12-07T09:28:01Z</time>
      </trkpt>
      <trkpt lat="44.96827" lon="4.47966">
        <ele>769</ele>
        <time>2015-12-07T09:28:05Z</time>
      </trkpt>
      <trkpt lat="44.96841" lon="4.47959">
        <ele>768</ele>
        <time>2015-12-07T09:28:08Z</time>
      </trkpt>
      <trkpt lat="44.96863" lon="4.4795">
        <ele>765</ele>
        <time>2015-12-07T09:28:12Z</time>
      </trkpt>
      <trkpt lat="44.9689" lon="4.47938">
        <ele>763</ele>
        <time>2015-12-07T09:28:17Z</time>
      </trkpt>
      <trkpt lat="44.96913" lon="4.47926">
        <ele>762</ele>
        <time>2015-12-07T09:28:22Z</time>
      </trkpt>
      <trkpt lat="44.96922" lon="4.47926">
        <ele>761</ele>
        <time>2015-12-07T09:28:25Z</time>
      </trkpt>
      <trkpt lat="44.96926" lon="4.47938">
        <ele>761</ele>
        <time>2015-12-07T09:28:29Z</time>
      </trkpt>
      <trkpt lat="44.96924" lon="4.47948">
        <ele>762</ele>
        <time>2015-12-07T09:28:32Z</time>
      </trkpt>
      <trkpt lat="44.96922" lon="4.4797">
        <ele>762</ele>
        <time>2015-12-07T09:28:37Z</time>
      </trkpt>
      <trkpt lat="44.9693" lon="4.47994">
        <ele>761</ele>
        <time>2015-12-07T09:28:41Z</time>
      </trkpt>
      <trkpt lat="44.96946" lon="4.4801">
        <ele>759</ele>
        <time>2015-12-07T09:28:46Z</time>
      </trkpt>
      <trkpt lat="44.9695" lon="4.4803">
        <ele>758</ele>
        <time>2015-12-07T09:28:50Z</time>
      </trkpt>
      <trkpt lat="44.96942" lon="4.48038">
        <ele>757</ele>
        <time>2015-12-07T09:28:55Z</time>
      </trkpt>
      <trkpt lat="44.96938" lon="4.48049">
        <ele>758</ele>
        <time>2015-12-07T09:29:00Z</time>
      </trkpt>
      <trkpt lat="44.96935" lon="4.48062">
        <ele>758</ele>
        <time>2015-12-07T09:29:05Z</time>
      </trkpt>
      <trkpt lat="44.96934" lon="4.48069">
        <ele>758</ele>
        <time>2015-12-07T09:29:08Z</time>
      </trkpt>
      <trkpt lat="44.96934" lon="4.48084">
        <ele>758</ele>
        <time>2015-12-07T09:29:13Z</time>
      </trkpt>
      <trkpt lat="44.96931" lon="4.48094">
        <ele>758</ele>
        <time>2015-12-07T09:29:17Z</time>
      </trkpt>
      <trkpt lat="44.96928" lon="4.48102">
        <ele>758</ele>
        <time>2015-12-07T09:29:21Z</time>
      </trkpt>
      <trkpt lat="44.96926" lon="4.48111">
        <ele>759</ele>
        <time>2015-12-07T09:29:25Z</time>
      </trkpt>
      <trkpt lat="44.96925" lon="4.48121">
        <ele>759</ele>
        <time>2015-12-07T09:29:29Z</time>
      </trkpt>
      <trkpt lat="44.96923" lon="4.48134">
        <ele>759</ele>
        <time>2015-12-07T09:29:34Z</time>
      </trkpt>
      <trkpt lat="44.96921" lon="4.48144">
        <ele>760</ele>
        <time>2015-12-07T09:29:38Z</time>
      </trkpt>
      <trkpt lat="44.96919" lon="4.4816">
        <ele>760</ele>
        <time>2015-12-07T09:29:43Z</time>
      </trkpt>
      <trkpt lat="44.96915" lon="4.48181">
        <ele>760</ele>
        <time>2015-12-07T09:29:48Z</time>
      </trkpt>
      <trkpt lat="44.96912" lon="4.48189">
        <ele>761</ele>
        <time>2015-12-07T09:29:51Z</time>
      </trkpt>
      <trkpt lat="44.96907" lon="4.48199">
        <ele>762</ele>
        <time>2015-12-07T09:29:55Z</time>
      </trkpt>
      <trkpt lat="44.969" lon="4.48209">
        <ele>765</ele>
        <time>2015-12-07T09:29:59Z</time>
      </trkpt>
      <trkpt lat="44.96893" lon="4.48221">
        <ele>768</ele>
        <time>2015-12-07T09:30:04Z</time>
      </trkpt>
      <trkpt lat="44.96889" lon="4.48232">
        <ele>769</ele>
        <time>2015-12-07T09:30:08Z</time>
      </trkpt>
      <trkpt lat="44.96884" lon="4.48243">
        <ele>770</ele>
        <time>2015-12-07T09:30:12Z</time>
      </trkpt>
      <trkpt lat="44.96883" lon="4.4826">
        <ele>770</ele>
        <time>2015-12-07T09:30:17Z</time>
      </trkpt>
      <trkpt lat="44.96881" lon="4.48273">
        <ele>771</ele>
        <time>2015-12-07T09:30:21Z</time>
      </trkpt>
      <trkpt lat="44.96879" lon="4.48283">
        <ele>771</ele>
        <time>2015-12-07T09:30:25Z</time>
      </trkpt>
      <trkpt lat="44.96877" lon="4.48288">
        <ele>772</ele>
        <time>2015-12-07T09:30:42Z</time>
      </trkpt>
      <trkpt lat="44.96866" lon="4.48311">
        <ele>771</ele>
        <time>2015-12-07T09:30:47Z</time>
      </trkpt>
      <trkpt lat="44.96857" lon="4.48333">
        <ele>771</ele>
        <time>2015-12-07T09:30:51Z</time>
      </trkpt>
      <trkpt lat="44.96847" lon="4.48351">
        <ele>770</ele>
        <time>2015-12-07T09:30:55Z</time>
      </trkpt>
      <trkpt lat="44.96839" lon="4.48372">
        <ele>768</ele>
        <time>2015-12-07T09:30:59Z</time>
      </trkpt>
      <trkpt lat="44.96829" lon="4.48397">
        <ele>767</ele>
        <time>2015-12-07T09:31:03Z</time>
      </trkpt>
      <trkpt lat="44.96823" lon="4.48414">
        <ele>765</ele>
        <time>2015-12-07T09:31:07Z</time>
      </trkpt>
      <trkpt lat="44.96819" lon="4.48426">
        <ele>763</ele>
        <time>2015-12-07T09:31:23Z</time>
      </trkpt>
      <trkpt lat="44.96823" lon="4.48434">
        <ele>762</ele>
        <time>2015-12-07T09:31:35Z</time>
      </trkpt>
      <trkpt lat="44.96824" lon="4.48443">
        <ele>762</ele>
        <time>2015-12-07T09:31:39Z</time>
      </trkpt>
      <trkpt lat="44.96822" lon="4.48452">
        <ele>762</ele>
        <time>2015-12-07T09:31:44Z</time>
      </trkpt>
      <trkpt lat="44.96818" lon="4.48463">
        <ele>762</ele>
        <time>2015-12-07T09:31:53Z</time>
      </trkpt>
      <trkpt lat="44.96811" lon="4.48471">
        <ele>762</ele>
        <time>2015-12-07T09:31:58Z</time>
      </trkpt>
      <trkpt lat="44.96806" lon="4.48478">
        <ele>762</ele>
        <time>2015-12-07T09:32:01Z</time>
      </trkpt>
      <trkpt lat="44.96803" lon="4.48489">
        <ele>762</ele>
        <time>2015-12-07T09:32:05Z</time>
      </trkpt>
      <trkpt lat="44.96801" lon="4.48498">
        <ele>762</ele>
        <time>2015-12-07T09:32:08Z</time>
      </trkpt>
      <trkpt lat="44.96799" lon="4.48514">
        <ele>763</ele>
        <time>2015-12-07T09:32:13Z</time>
      </trkpt>
      <trkpt lat="44.968" lon="4.48527">
        <ele>764</ele>
        <time>2015-12-07T09:32:17Z</time>
      </trkpt>
      <trkpt lat="44.96802" lon="4.48538">
        <ele>765</ele>
        <time>2015-12-07T09:32:21Z</time>
      </trkpt>
      <trkpt lat="44.96807" lon="4.48549">
        <ele>766</ele>
        <time>2015-12-07T09:32:25Z</time>
      </trkpt>
      <trkpt lat="44.96811" lon="4.48561">
        <ele>767</ele>
        <time>2015-12-07T09:32:29Z</time>
      </trkpt>
      <trkpt lat="44.96814" lon="4.48579">
        <ele>766</ele>
        <time>2015-12-07T09:32:34Z</time>
      </trkpt>
      <trkpt lat="44.96817" lon="4.48591">
        <ele>767</ele>
        <time>2015-12-07T09:32:38Z</time>
      </trkpt>
      <trkpt lat="44.96816" lon="4.48609">
        <ele>769</ele>
        <time>2015-12-07T09:32:43Z</time>
      </trkpt>
      <trkpt lat="44.96816" lon="4.48623">
        <ele>769</ele>
        <time>2015-12-07T09:32:47Z</time>
      </trkpt>
      <trkpt lat="44.96813" lon="4.48641">
        <ele>769</ele>
        <time>2015-12-07T09:32:52Z</time>
      </trkpt>
      <trkpt lat="44.9681" lon="4.48654">
        <ele>769</ele>
        <time>2015-12-07T09:32:56Z</time>
      </trkpt>
      <trkpt lat="44.96806" lon="4.48668">
        <ele>771</ele>
        <time>2015-12-07T09:33:00Z</time>
      </trkpt>
      <trkpt lat="44.96802" lon="4.48686">
        <ele>772</ele>
        <time>2015-12-07T09:33:05Z</time>
      </trkpt>
      <trkpt lat="44.96801" lon="4.48702">
        <ele>772</ele>
        <time>2015-12-07T09:33:09Z</time>
      </trkpt>
      <trkpt lat="44.968" lon="4.48718">
        <ele>772</ele>
        <time>2015-12-07T09:33:13Z</time>
      </trkpt>
      <trkpt lat="44.96801" lon="4.48735">
        <ele>773</ele>
        <time>2015-12-07T09:33:17Z</time>
      </trkpt>
      <trkpt lat="44.96804" lon="4.48754">
        <ele>773</ele>
        <time>2015-12-07T09:33:22Z</time>
      </trkpt>
      <trkpt lat="44.96806" lon="4.48771">
        <ele>773</ele>
        <time>2015-12-07T09:33:26Z</time>
      </trkpt>
      <trkpt lat="44.96806" lon="4.48784">
        <ele>773</ele>
        <time>2015-12-07T09:33:29Z</time>
      </trkpt>
      <trkpt lat="44.96807" lon="4.48803">
        <ele>774</ele>
        <time>2015-12-07T09:33:34Z</time>
      </trkpt>
      <trkpt lat="44.96806" lon="4.48819">
        <ele>773</ele>
        <time>2015-12-07T09:33:38Z</time>
      </trkpt>
      <trkpt lat="44.96807" lon="4.4883">
        <ele>774</ele>
        <time>2015-12-07T09:33:41Z</time>
      </trkpt>
      <trkpt lat="44.96811" lon="4.48848">
        <ele>774</ele>
        <time>2015-12-07T09:33:46Z</time>
      </trkpt>
      <trkpt lat="44.96814" lon="4.48859">
        <ele>775</ele>
        <time>2015-12-07T09:33:49Z</time>
      </trkpt>
      <trkpt lat="44.96816" lon="4.48865">
        <ele>776</ele>
        <time>2015-12-07T09:35:11Z</time>
      </trkpt>
      <trkpt lat="44.96813" lon="4.48889">
        <ele>776</ele>
        <time>2015-12-07T09:35:16Z</time>
      </trkpt>
      <trkpt lat="44.96809" lon="4.48915">
        <ele>775</ele>
        <time>2015-12-07T09:35:21Z</time>
      </trkpt>
      <trkpt lat="44.9681" lon="4.48941">
        <ele>775</ele>
        <time>2015-12-07T09:35:25Z</time>
      </trkpt>
      <trkpt lat="44.96808" lon="4.4897">
        <ele>774</ele>
        <time>2015-12-07T09:35:29Z</time>
      </trkpt>
      <trkpt lat="44.96796" lon="4.49005">
        <ele>772</ele>
        <time>2015-12-07T09:35:34Z</time>
      </trkpt>
      <trkpt lat="44.96788" lon="4.4902">
        <ele>772</ele>
        <time>2015-12-07T09:35:37Z</time>
      </trkpt>
      <trkpt lat="44.96777" lon="4.49041">
        <ele>770</ele>
        <time>2015-12-07T09:35:41Z</time>
      </trkpt>
      <trkpt lat="44.96766" lon="4.49062">
        <ele>769</ele>
        <time>2015-12-07T09:35:45Z</time>
      </trkpt>
      <trkpt lat="44.96759" lon="4.49085">
        <ele>769</ele>
        <time>2015-12-07T09:35:49Z</time>
      </trkpt>
      <trkpt lat="44.96746" lon="4.49106">
        <ele>767</ele>
        <time>2015-12-07T09:35:53Z</time>
      </trkpt>
      <trkpt lat="44.96734" lon="4.49123">
        <ele>766</ele>
        <time>2015-12-07T09:35:56Z</time>
      </trkpt>
      <trkpt lat="44.96721" lon="4.49141">
        <ele>765</ele>
        <time>2015-12-07T09:36:00Z</time>
      </trkpt>
      <trkpt lat="44.9671" lon="4.49155">
        <ele>765</ele>
        <time>2015-12-07T09:36:04Z</time>
      </trkpt>
      <trkpt lat="44.96702" lon="4.49169">
        <ele>765</ele>
        <time>2015-12-07T09:36:08Z</time>
      </trkpt>
      <trkpt lat="44.96697" lon="4.49178">
        <ele>764</ele>
        <time>2015-12-07T09:36:11Z</time>
      </trkpt>
      <trkpt lat="44.96691" lon="4.49186">
        <ele>764</ele>
        <time>2015-12-07T09:36:14Z</time>
      </trkpt>
      <trkpt lat="44.96683" lon="4.492">
        <ele>763</ele>
        <time>2015-12-07T09:36:19Z</time>
      </trkpt>
      <trkpt lat="44.96676" lon="4.49204">
        <ele>765</ele>
        <time>2015-12-07T09:36:23Z</time>
      </trkpt>
      <trkpt lat="44.96668" lon="4.49211">
        <ele>766</ele>
        <time>2015-12-07T09:36:28Z</time>
      </trkpt>
      <trkpt lat="44.96663" lon="4.49216">
        <ele>766</ele>
        <time>2015-12-07T09:36:31Z</time>
      </trkpt>
      <trkpt lat="44.96658" lon="4.49219">
        <ele>767</ele>
        <time>2015-12-07T09:36:35Z</time>
      </trkpt>
      <trkpt lat="44.96653" lon="4.49227">
        <ele>770</ele>
        <time>2015-12-07T09:36:44Z</time>
      </trkpt>
      <trkpt lat="44.96649" lon="4.49237">
        <ele>771</ele>
        <time>2015-12-07T09:36:49Z</time>
      </trkpt>
      <trkpt lat="44.96646" lon="4.49246">
        <ele>772</ele>
        <time>2015-12-07T09:36:55Z</time>
      </trkpt>
      <trkpt lat="44.96641" lon="4.49256">
        <ele>774</ele>
        <time>2015-12-07T09:37:02Z</time>
      </trkpt>
      <trkpt lat="44.96636" lon="4.49264">
        <ele>776</ele>
        <time>2015-12-07T09:37:09Z</time>
      </trkpt>
      <trkpt lat="44.96629" lon="4.49266">
        <ele>778</ele>
        <time>2015-12-07T09:37:16Z</time>
      </trkpt>
      <trkpt lat="44.96621" lon="4.4927">
        <ele>779</ele>
        <time>2015-12-07T09:37:24Z</time>
      </trkpt>
      <trkpt lat="44.96616" lon="4.49263">
        <ele>781</ele>
        <time>2015-12-07T09:37:32Z</time>
      </trkpt>
      <trkpt lat="44.96608" lon="4.4926">
        <ele>782</ele>
        <time>2015-12-07T09:37:39Z</time>
      </trkpt>
      <trkpt lat="44.966" lon="4.49257">
        <ele>784</ele>
        <time>2015-12-07T09:37:49Z</time>
      </trkpt>
      <trkpt lat="44.96593" lon="4.49254">
        <ele>785</ele>
        <time>2015-12-07T09:37:57Z</time>
      </trkpt>
      <trkpt lat="44.96585" lon="4.49251">
        <ele>787</ele>
        <time>2015-12-07T09:38:05Z</time>
      </trkpt>
      <trkpt lat="44.96578" lon="4.49243">
        <ele>788</ele>
        <time>2015-12-07T09:38:12Z</time>
      </trkpt>
      <trkpt lat="44.9657" lon="4.4924">
        <ele>789</ele>
        <time>2015-12-07T09:38:21Z</time>
      </trkpt>
      <trkpt lat="44.96565" lon="4.49235">
        <ele>790</ele>
        <time>2015-12-07T09:38:25Z</time>
      </trkpt>
      <trkpt lat="44.96556" lon="4.49229">
        <ele>789</ele>
        <time>2015-12-07T09:38:30Z</time>
      </trkpt>
      <trkpt lat="44.96547" lon="4.49228">
        <ele>790</ele>
        <time>2015-12-07T09:38:37Z</time>
      </trkpt>
      <trkpt lat="44.96539" lon="4.49224">
        <ele>791</ele>
        <time>2015-12-07T09:38:44Z</time>
      </trkpt>
      <trkpt lat="44.9653" lon="4.49221">
        <ele>793</ele>
        <time>2015-12-07T09:38:51Z</time>
      </trkpt>
      <trkpt lat="44.96522" lon="4.49219">
        <ele>794</ele>
        <time>2015-12-07T09:38:57Z</time>
      </trkpt>
      <trkpt lat="44.96515" lon="4.49217">
        <ele>794</ele>
        <time>2015-12-07T09:39:02Z</time>
      </trkpt>
      <trkpt lat="44.96507" lon="4.49216">
        <ele>794</ele>
        <time>2015-12-07T09:39:07Z</time>
      </trkpt>
      <trkpt lat="44.96499" lon="4.49216">
        <ele>795</ele>
        <time>2015-12-07T09:39:13Z</time>
      </trkpt>
      <trkpt lat="44.96495" lon="4.4922">
        <ele>796</ele>
        <time>2015-12-07T09:39:18Z</time>
      </trkpt>
      <trkpt lat="44.9649" lon="4.49231">
        <ele>796</ele>
        <time>2015-12-07T09:39:24Z</time>
      </trkpt>
      <trkpt lat="44.96495" lon="4.49237">
        <ele>798</ele>
        <time>2015-12-07T09:39:31Z</time>
      </trkpt>
      <trkpt lat="44.96502" lon="4.49243">
        <ele>799</ele>
        <time>2015-12-07T09:39:38Z</time>
      </trkpt>
      <trkpt lat="44.96508" lon="4.49251">
        <ele>800</ele>
        <time>2015-12-07T09:39:44Z</time>
      </trkpt>
      <trkpt lat="44.96511" lon="4.4926">
        <ele>801</ele>
        <time>2015-12-07T09:39:50Z</time>
      </trkpt>
      <trkpt lat="44.96517" lon="4.49271">
        <ele>803</ele>
        <time>2015-12-07T09:39:55Z</time>
      </trkpt>
      <trkpt lat="44.96518" lon="4.49282">
        <ele>804</ele>
        <time>2015-12-07T09:40:00Z</time>
      </trkpt>
      <trkpt lat="44.96518" lon="4.49292">
        <ele>805</ele>
        <time>2015-12-07T09:40:05Z</time>
      </trkpt>
      <trkpt lat="44.96515" lon="4.49304">
        <ele>806</ele>
        <time>2015-12-07T09:40:11Z</time>
      </trkpt>
      <trkpt lat="44.9651" lon="4.49313">
        <ele>808</ele>
        <time>2015-12-07T09:40:22Z</time>
      </trkpt>
      <trkpt lat="44.96507" lon="4.49327">
        <ele>809</ele>
        <time>2015-12-07T09:40:27Z</time>
      </trkpt>
      <trkpt lat="44.96506" lon="4.49335">
        <ele>810</ele>
        <time>2015-12-07T09:40:30Z</time>
      </trkpt>
      <trkpt lat="44.96505" lon="4.49352">
        <ele>810</ele>
        <time>2015-12-07T09:40:35Z</time>
      </trkpt>
      <trkpt lat="44.96505" lon="4.4937">
        <ele>809</ele>
        <time>2015-12-07T09:40:40Z</time>
      </trkpt>
      <trkpt lat="44.96506" lon="4.49385">
        <ele>809</ele>
        <time>2015-12-07T09:40:44Z</time>
      </trkpt>
      <trkpt lat="44.96505" lon="4.49402">
        <ele>810</ele>
        <time>2015-12-07T09:40:49Z</time>
      </trkpt>
      <trkpt lat="44.96503" lon="4.49418">
        <ele>810</ele>
        <time>2015-12-07T09:40:53Z</time>
      </trkpt>
      <trkpt lat="44.96502" lon="4.49436">
        <ele>810</ele>
        <time>2015-12-07T09:40:57Z</time>
      </trkpt>
      <trkpt lat="44.96499" lon="4.49453">
        <ele>809</ele>
        <time>2015-12-07T09:41:01Z</time>
      </trkpt>
      <trkpt lat="44.96494" lon="4.49473">
        <ele>809</ele>
        <time>2015-12-07T09:41:05Z</time>
      </trkpt>
      <trkpt lat="44.9649" lon="4.49488">
        <ele>810</ele>
        <time>2015-12-07T09:41:08Z</time>
      </trkpt>
      <trkpt lat="44.96481" lon="4.49508">
        <ele>809</ele>
        <time>2015-12-07T09:41:12Z</time>
      </trkpt>
      <trkpt lat="44.96476" lon="4.49527">
        <ele>808</ele>
        <time>2015-12-07T09:41:15Z</time>
      </trkpt>
      <trkpt lat="44.96468" lon="4.49545">
        <ele>808</ele>
        <time>2015-12-07T09:41:18Z</time>
      </trkpt>
      <trkpt lat="44.96454" lon="4.49567">
        <ele>808</ele>
        <time>2015-12-07T09:41:22Z</time>
      </trkpt>
      <trkpt lat="44.96443" lon="4.49592">
        <ele>808</ele>
        <time>2015-12-07T09:41:26Z</time>
      </trkpt>
      <trkpt lat="44.96434" lon="4.49604">
        <ele>809</ele>
        <time>2015-12-07T09:41:29Z</time>
      </trkpt>
      <trkpt lat="44.96426" lon="4.49619">
        <ele>811</ele>
        <time>2015-12-07T09:41:33Z</time>
      </trkpt>
      <trkpt lat="44.96418" lon="4.49636">
        <ele>815</ele>
        <time>2015-12-07T09:41:38Z</time>
      </trkpt>
      <trkpt lat="44.96411" lon="4.49649">
        <ele>815</ele>
        <time>2015-12-07T09:41:43Z</time>
      </trkpt>
      <trkpt lat="44.96407" lon="4.49658">
        <ele>817</ele>
        <time>2015-12-07T09:41:51Z</time>
      </trkpt>
      <trkpt lat="44.96403" lon="4.49668">
        <ele>818</ele>
        <time>2015-12-07T09:41:57Z</time>
      </trkpt>
      <trkpt lat="44.96399" lon="4.49678">
        <ele>819</ele>
        <time>2015-12-07T09:42:04Z</time>
      </trkpt>
      <trkpt lat="44.96396" lon="4.49687">
        <ele>821</ele>
        <time>2015-12-07T09:42:11Z</time>
      </trkpt>
      <trkpt lat="44.96392" lon="4.49696">
        <ele>823</ele>
        <time>2015-12-07T09:42:17Z</time>
      </trkpt>
      <trkpt lat="44.96389" lon="4.49707">
        <ele>825</ele>
        <time>2015-12-07T09:42:24Z</time>
      </trkpt>
      <trkpt lat="44.96387" lon="4.49719">
        <ele>826</ele>
        <time>2015-12-07T09:42:29Z</time>
      </trkpt>
      <trkpt lat="44.96382" lon="4.4973">
        <ele>827</ele>
        <time>2015-12-07T09:42:36Z</time>
      </trkpt>
      <trkpt lat="44.96379" lon="4.49738">
        <ele>829</ele>
        <time>2015-12-07T09:42:41Z</time>
      </trkpt>
      <trkpt lat="44.96375" lon="4.49748">
        <ele>830</ele>
        <time>2015-12-07T09:42:47Z</time>
      </trkpt>
      <trkpt lat="44.96371" lon="4.49758">
        <ele>832</ele>
        <time>2015-12-07T09:42:55Z</time>
      </trkpt>
      <trkpt lat="44.96369" lon="4.49768">
        <ele>832</ele>
        <time>2015-12-07T09:42:59Z</time>
      </trkpt>
      <trkpt lat="44.96369" lon="4.49779">
        <ele>833</ele>
        <time>2015-12-07T09:43:05Z</time>
      </trkpt>
      <trkpt lat="44.96366" lon="4.49789">
        <ele>835</ele>
        <time>2015-12-07T09:43:12Z</time>
      </trkpt>
      <trkpt lat="44.96361" lon="4.49799">
        <ele>836</ele>
        <time>2015-12-07T09:43:19Z</time>
      </trkpt>
      <trkpt lat="44.96358" lon="4.4981">
        <ele>837</ele>
        <time>2015-12-07T09:43:26Z</time>
      </trkpt>
      <trkpt lat="44.96354" lon="4.49821">
        <ele>838</ele>
        <time>2015-12-07T09:43:32Z</time>
      </trkpt>
      <trkpt lat="44.96349" lon="4.49828">
        <ele>839</ele>
        <time>2015-12-07T09:43:37Z</time>
      </trkpt>
      <trkpt lat="44.96343" lon="4.49838">
        <ele>839</ele>
        <time>2015-12-07T09:43:42Z</time>
      </trkpt>
      <trkpt lat="44.96338" lon="4.49847">
        <ele>840</ele>
        <time>2015-12-07T09:43:47Z</time>
      </trkpt>
      <trkpt lat="44.96333" lon="4.49857">
        <ele>841</ele>
        <time>2015-12-07T09:43:52Z</time>
      </trkpt>
      <trkpt lat="44.96329" lon="4.49866">
        <ele>842</ele>
        <time>2015-12-07T09:43:56Z</time>
      </trkpt>
      <trkpt lat="44.96326" lon="4.49873">
        <ele>842</ele>
        <time>2015-12-07T09:43:59Z</time>
      </trkpt>
      <trkpt lat="44.96324" lon="4.49882">
        <ele>843</ele>
        <time>2015-12-07T09:44:02Z</time>
      </trkpt>
      <trkpt lat="44.96321" lon="4.49894">
        <ele>843</ele>
        <time>2015-12-07T09:44:06Z</time>
      </trkpt>
      <trkpt lat="44.96316" lon="4.49909">
        <ele>843</ele>
        <time>2015-12-07T09:44:11Z</time>
      </trkpt>
      <trkpt lat="44.96315" lon="4.49918">
        <ele>843</ele>
        <time>2015-12-07T09:44:15Z</time>
      </trkpt>
      <trkpt lat="44.96312" lon="4.49927">
        <ele>844</ele>
        <time>2015-12-07T09:44:19Z</time>
      </trkpt>
      <trkpt lat="44.96309" lon="4.49936">
        <ele>843</ele>
        <time>2015-12-07T09:44:23Z</time>
      </trkpt>
      <trkpt lat="44.96306" lon="4.49945">
        <ele>844</ele>
        <time>2015-12-07T09:44:27Z</time>
      </trkpt>
      <trkpt lat="44.96301" lon="4.49953">
        <ele>844</ele>
        <time>2015-12-07T09:44:31Z</time>
      </trkpt>
      <trkpt lat="44.96296" lon="4.49966">
        <ele>845</ele>
        <time>2015-12-07T09:44:36Z</time>
      </trkpt>
      <trkpt lat="44.96291" lon="4.49972">
        <ele>845</ele>
        <time>2015-12-07T09:44:39Z</time>
      </trkpt>
      <trkpt lat="44.96286" lon="4.49981">
        <ele>846</ele>
        <time>2015-12-07T09:44:45Z</time>
      </trkpt>
      <trkpt lat="44.9628" lon="4.49991">
        <ele>848</ele>
        <time>2015-12-07T09:44:52Z</time>
      </trkpt>
      <trkpt lat="44.96275" lon="4.5">
        <ele>849</ele>
        <time>2015-12-07T09:44:57Z</time>
      </trkpt>
      <trkpt lat="44.96273" lon="4.50007">
        <ele>850</ele>
        <time>2015-12-07T09:45:00Z</time>
      </trkpt>
      <trkpt lat="44.96268" lon="4.50018">
        <ele>850</ele>
        <time>2015-12-07T09:45:04Z</time>
      </trkpt>
      <trkpt lat="44.96265" lon="4.50027">
        <ele>849</ele>
        <time>2015-12-07T09:45:06Z</time>
      </trkpt>
      <trkpt lat="44.96264" lon="4.50038">
        <ele>849</ele>
        <time>2015-12-07T09:45:09Z</time>
      </trkpt>
      <trkpt lat="44.96265" lon="4.50053">
        <ele>848</ele>
        <time>2015-12-07T09:45:13Z</time>
      </trkpt>
      <trkpt lat="44.96266" lon="4.50061">
        <ele>847</ele>
        <time>2015-12-07T09:45:16Z</time>
      </trkpt>
      <trkpt lat="44.96268" lon="4.50077">
        <ele>846</ele>
        <time>2015-12-07T09:45:21Z</time>
      </trkpt>
      <trkpt lat="44.96271" lon="4.50087">
        <ele>846</ele>
        <time>2015-12-07T09:45:24Z</time>
      </trkpt>
      <trkpt lat="44.96277" lon="4.50105">
        <ele>845</ele>
        <time>2015-12-07T09:45:29Z</time>
      </trkpt>
      <trkpt lat="44.96279" lon="4.50128">
        <ele>842</ele>
        <time>2015-12-07T09:45:33Z</time>
      </trkpt>
      <trkpt lat="44.96279" lon="4.50158">
        <ele>839</ele>
        <time>2015-12-07T09:45:38Z</time>
      </trkpt>
      <trkpt lat="44.96278" lon="4.50184">
        <ele>836</ele>
        <time>2015-12-07T09:45:43Z</time>
      </trkpt>
      <trkpt lat="44.96278" lon="4.50216">
        <ele>833</ele>
        <time>2015-12-07T09:45:48Z</time>
      </trkpt>
      <trkpt lat="44.96276" lon="4.50233">
        <ele>832</ele>
        <time>2015-12-07T09:45:51Z</time>
      </trkpt>
      <trkpt lat="44.96279" lon="4.50259">
        <ele>831</ele>
        <time>2015-12-07T09:45:55Z</time>
      </trkpt>
      <trkpt lat="44.96282" lon="4.50284">
        <ele>830</ele>
        <time>2015-12-07T09:45:59Z</time>
      </trkpt>
      <trkpt lat="44.96284" lon="4.50311">
        <ele>829</ele>
        <time>2015-12-07T09:46:04Z</time>
      </trkpt>
      <trkpt lat="44.96286" lon="4.5033">
        <ele>829</ele>
        <time>2015-12-07T09:46:08Z</time>
      </trkpt>
      <trkpt lat="44.96292" lon="4.50351">
        <ele>829</ele>
        <time>2015-12-07T09:46:13Z</time>
      </trkpt>
      <trkpt lat="44.96295" lon="4.50368">
        <ele>828</ele>
        <time>2015-12-07T09:46:17Z</time>
      </trkpt>
      <trkpt lat="44.96296" lon="4.50386">
        <ele>827</ele>
        <time>2015-12-07T09:46:22Z</time>
      </trkpt>
      <trkpt lat="44.96302" lon="4.50406">
        <ele>828</ele>
        <time>2015-12-07T09:46:27Z</time>
      </trkpt>
      <trkpt lat="44.96306" lon="4.50417">
        <ele>828</ele>
        <time>2015-12-07T09:46:30Z</time>
      </trkpt>
      <trkpt lat="44.96309" lon="4.50435">
        <ele>829</ele>
        <time>2015-12-07T09:46:35Z</time>
      </trkpt>
      <trkpt lat="44.96314" lon="4.50454">
        <ele>830</ele>
        <time>2015-12-07T09:46:39Z</time>
      </trkpt>
      <trkpt lat="44.96318" lon="4.50472">
        <ele>831</ele>
        <time>2015-12-07T09:46:43Z</time>
      </trkpt>
      <trkpt lat="44.96321" lon="4.50489">
        <ele>832</ele>
        <time>2015-12-07T09:46:48Z</time>
      </trkpt>
      <trkpt lat="44.96325" lon="4.50506">
        <ele>832</ele>
        <time>2015-12-07T09:46:53Z</time>
      </trkpt>
      <trkpt lat="44.96328" lon="4.50517">
        <ele>833</ele>
        <time>2015-12-07T09:46:57Z</time>
      </trkpt>
      <trkpt lat="44.96333" lon="4.50534">
        <ele>833</ele>
        <time>2015-12-07T09:47:02Z</time>
      </trkpt>
      <trkpt lat="44.96336" lon="4.50543">
        <ele>834</ele>
        <time>2015-12-07T09:47:05Z</time>
      </trkpt>
      <trkpt lat="44.96339" lon="4.50556">
        <ele>835</ele>
        <time>2015-12-07T09:47:09Z</time>
      </trkpt>
      <trkpt lat="44.96346" lon="4.50574">
        <ele>836</ele>
        <time>2015-12-07T09:47:14Z</time>
      </trkpt>
      <trkpt lat="44.96351" lon="4.50584">
        <ele>837</ele>
        <time>2015-12-07T09:47:17Z</time>
      </trkpt>
      <trkpt lat="44.96357" lon="4.50596">
        <ele>838</ele>
        <time>2015-12-07T09:47:21Z</time>
      </trkpt>
      <trkpt lat="44.96365" lon="4.50607">
        <ele>838</ele>
        <time>2015-12-07T09:47:26Z</time>
      </trkpt>
      <trkpt lat="44.96372" lon="4.50618">
        <ele>837</ele>
        <time>2015-12-07T09:47:30Z</time>
      </trkpt>
      <trkpt lat="44.9638" lon="4.50628">
        <ele>835</ele>
        <time>2015-12-07T09:47:34Z</time>
      </trkpt>
      <trkpt lat="44.96385" lon="4.50634">
        <ele>833</ele>
        <time>2015-12-07T09:47:37Z</time>
      </trkpt>
      <trkpt lat="44.96393" lon="4.50643">
        <ele>830</ele>
        <time>2015-12-07T09:47:41Z</time>
      </trkpt>
      <trkpt lat="44.96403" lon="4.50654">
        <ele>827</ele>
        <time>2015-12-07T09:47:45Z</time>
      </trkpt>
      <trkpt lat="44.96413" lon="4.50667">
        <ele>824</ele>
        <time>2015-12-07T09:47:50Z</time>
      </trkpt>
      <trkpt lat="44.96418" lon="4.50676">
        <ele>822</ele>
        <time>2015-12-07T09:47:53Z</time>
      </trkpt>
      <trkpt lat="44.96429" lon="4.50688">
        <ele>819</ele>
        <time>2015-12-07T09:47:58Z</time>
      </trkpt>
      <trkpt lat="44.96439" lon="4.50698">
        <ele>816</ele>
        <time>2015-12-07T09:48:01Z</time>
      </trkpt>
      <trkpt lat="44.96453" lon="4.50711">
        <ele>812</ele>
        <time>2015-12-07T09:48:05Z</time>
      </trkpt>
      <trkpt lat="44.96465" lon="4.50722">
        <ele>809</ele>
        <time>2015-12-07T09:48:09Z</time>
      </trkpt>
      <trkpt lat="44.96477" lon="4.50732">
        <ele>805</ele>
        <time>2015-12-07T09:48:13Z</time>
      </trkpt>
      <trkpt lat="44.96485" lon="4.50737">
        <ele>801</ele>
        <time>2015-12-07T09:48:19Z</time>
      </trkpt>
      <trkpt lat="44.96491" lon="4.50745">
        <ele>799</ele>
        <time>2015-12-07T09:48:24Z</time>
      </trkpt>
      <trkpt lat="44.96499" lon="4.50752">
        <ele>796</ele>
        <time>2015-12-07T09:48:29Z</time>
      </trkpt>
      <trkpt lat="44.96505" lon="4.50756">
        <ele>794</ele>
        <time>2015-12-07T09:48:33Z</time>
      </trkpt>
      <trkpt lat="44.96511" lon="4.50767">
        <ele>791</ele>
        <time>2015-12-07T09:48:38Z</time>
      </trkpt>
      <trkpt lat="44.96514" lon="4.50774">
        <ele>789</ele>
        <time>2015-12-07T09:48:41Z</time>
      </trkpt>
      <trkpt lat="44.96523" lon="4.50785">
        <ele>787</ele>
        <time>2015-12-07T09:48:45Z</time>
      </trkpt>
      <trkpt lat="44.9654" lon="4.50799">
        <ele>785</ele>
        <time>2015-12-07T09:48:49Z</time>
      </trkpt>
      <trkpt lat="44.96553" lon="4.5082">
        <ele>783</ele>
        <time>2015-12-07T09:48:53Z</time>
      </trkpt>
      <trkpt lat="44.9656" lon="4.50841">
        <ele>782</ele>
        <time>2015-12-07T09:48:57Z</time>
      </trkpt>
      <trkpt lat="44.96568" lon="4.50858">
        <ele>782</ele>
        <time>2015-12-07T09:49:01Z</time>
      </trkpt>
      <trkpt lat="44.96575" lon="4.5087">
        <ele>782</ele>
        <time>2015-12-07T09:49:05Z</time>
      </trkpt>
      <trkpt lat="44.96589" lon="4.5089">
        <ele>783</ele>
        <time>2015-12-07T09:49:10Z</time>
      </trkpt>
      <trkpt lat="44.96606" lon="4.50911">
        <ele>782</ele>
        <time>2015-12-07T09:49:15Z</time>
      </trkpt>
      <trkpt lat="44.96621" lon="4.50927">
        <ele>782</ele>
        <time>2015-12-07T09:49:19Z</time>
      </trkpt>
      <trkpt lat="44.96636" lon="4.50939">
        <ele>782</ele>
        <time>2015-12-07T09:49:23Z</time>
      </trkpt>
      <trkpt lat="44.96646" lon="4.50951">
        <ele>781</ele>
        <time>2015-12-07T09:49:27Z</time>
      </trkpt>
      <trkpt lat="44.96655" lon="4.50962">
        <ele>780</ele>
        <time>2015-12-07T09:49:30Z</time>
      </trkpt>
      <trkpt lat="44.96667" lon="4.50975">
        <ele>778</ele>
        <time>2015-12-07T09:49:34Z</time>
      </trkpt>
      <trkpt lat="44.96674" lon="4.50988">
        <ele>776</ele>
        <time>2015-12-07T09:49:37Z</time>
      </trkpt>
      <trkpt lat="44.96681" lon="4.51005">
        <ele>774</ele>
        <time>2015-12-07T09:49:40Z</time>
      </trkpt>
      <trkpt lat="44.9669" lon="4.51032">
        <ele>771</ele>
        <time>2015-12-07T09:49:44Z</time>
      </trkpt>
      <trkpt lat="44.96694" lon="4.51045">
        <ele>769</ele>
        <time>2015-12-07T09:49:47Z</time>
      </trkpt>
      <trkpt lat="44.96707" lon="4.51059">
        <ele>767</ele>
        <time>2015-12-07T09:49:51Z</time>
      </trkpt>
      <trkpt lat="44.96725" lon="4.51082">
        <ele>762</ele>
        <time>2015-12-07T09:49:56Z</time>
      </trkpt>
      <trkpt lat="44.96734" lon="4.51096">
        <ele>760</ele>
        <time>2015-12-07T09:50:00Z</time>
      </trkpt>
      <trkpt lat="44.96741" lon="4.51104">
        <ele>759</ele>
        <time>2015-12-07T09:50:03Z</time>
      </trkpt>
      <trkpt lat="44.96755" lon="4.5112">
        <ele>757</ele>
        <time>2015-12-07T09:50:07Z</time>
      </trkpt>
      <trkpt lat="44.96778" lon="4.51133">
        <ele>757</ele>
        <time>2015-12-07T09:50:12Z</time>
      </trkpt>
      <trkpt lat="44.96788" lon="4.51137">
        <ele>756</ele>
        <time>2015-12-07T09:50:15Z</time>
      </trkpt>
      <trkpt lat="44.96803" lon="4.5115">
        <ele>754</ele>
        <time>2015-12-07T09:50:20Z</time>
      </trkpt>
      <trkpt lat="44.96823" lon="4.51176">
        <ele>751</ele>
        <time>2015-12-07T09:50:25Z</time>
      </trkpt>
      <trkpt lat="44.96834" lon="4.51194">
        <ele>750</ele>
        <time>2015-12-07T09:50:29Z</time>
      </trkpt>
      <trkpt lat="44.9685" lon="4.51194">
        <ele>748</ele>
        <time>2015-12-07T09:50:33Z</time>
      </trkpt>
      <trkpt lat="44.96862" lon="4.51195">
        <ele>747</ele>
        <time>2015-12-07T09:50:37Z</time>
      </trkpt>
      <trkpt lat="44.96871" lon="4.51208">
        <ele>746</ele>
        <time>2015-12-07T09:50:40Z</time>
      </trkpt>
      <trkpt lat="44.96888" lon="4.51233">
        <ele>743</ele>
        <time>2015-12-07T09:50:45Z</time>
      </trkpt>
      <trkpt lat="44.969" lon="4.51257">
        <ele>742</ele>
        <time>2015-12-07T09:50:49Z</time>
      </trkpt>
      <trkpt lat="44.96906" lon="4.51285">
        <ele>740</ele>
        <time>2015-12-07T09:50:53Z</time>
      </trkpt>
      <trkpt lat="44.96917" lon="4.51304">
        <ele>738</ele>
        <time>2015-12-07T09:50:57Z</time>
      </trkpt>
      <trkpt lat="44.96927" lon="4.51319">
        <ele>736</ele>
        <time>2015-12-07T09:51:01Z</time>
      </trkpt>
      <trkpt lat="44.96939" lon="4.51331">
        <ele>735</ele>
        <time>2015-12-07T09:51:04Z</time>
      </trkpt>
      <trkpt lat="44.96956" lon="4.5134">
        <ele>734</ele>
        <time>2015-12-07T09:51:08Z</time>
      </trkpt>
      <trkpt lat="44.96972" lon="4.5135">
        <ele>733</ele>
        <time>2015-12-07T09:51:13Z</time>
      </trkpt>
      <trkpt lat="44.9698" lon="4.51355">
        <ele>732</ele>
        <time>2015-12-07T09:51:16Z</time>
      </trkpt>
      <trkpt lat="44.96993" lon="4.51361">
        <ele>732</ele>
        <time>2015-12-07T09:51:20Z</time>
      </trkpt>
      <trkpt lat="44.97005" lon="4.51375">
        <ele>733</ele>
        <time>2015-12-07T09:51:25Z</time>
      </trkpt>
      <trkpt lat="44.97015" lon="4.51386">
        <ele>734</ele>
        <time>2015-12-07T09:51:29Z</time>
      </trkpt>
      <trkpt lat="44.97027" lon="4.514">
        <ele>735</ele>
        <time>2015-12-07T09:51:34Z</time>
      </trkpt>
      <trkpt lat="44.97037" lon="4.51413">
        <ele>736</ele>
        <time>2015-12-07T09:51:38Z</time>
      </trkpt>
      <trkpt lat="44.97045" lon="4.5142">
        <ele>736</ele>
        <time>2015-12-07T09:51:41Z</time>
      </trkpt>
      <trkpt lat="44.97054" lon="4.5143">
        <ele>738</ele>
        <time>2015-12-07T09:51:45Z</time>
      </trkpt>
      <trkpt lat="44.97062" lon="4.51444">
        <ele>738</ele>
        <time>2015-12-07T09:51:49Z</time>
      </trkpt>
      <trkpt lat="44.97068" lon="4.51466">
        <ele>739</ele>
        <time>2015-12-07T09:51:53Z</time>
      </trkpt>
      <trkpt lat="44.97073" lon="4.51486">
        <ele>738</ele>
        <time>2015-12-07T09:51:57Z</time>
      </trkpt>
      <trkpt lat="44.97082" lon="4.51508">
        <ele>738</ele>
        <time>2015-12-07T09:52:02Z</time>
      </trkpt>
      <trkpt lat="44.9709" lon="4.51524">
        <ele>737</ele>
        <time>2015-12-07T09:52:06Z</time>
      </trkpt>
      <trkpt lat="44.97096" lon="4.51538">
        <ele>736</ele>
        <time>2015-12-07T09:52:10Z</time>
      </trkpt>
      <trkpt lat="44.97105" lon="4.51554">
        <ele>735</ele>
        <time>2015-12-07T09:52:15Z</time>
      </trkpt>
      <trkpt lat="44.97117" lon="4.51575">
        <ele>735</ele>
        <time>2015-12-07T09:52:20Z</time>
      </trkpt>
      <trkpt lat="44.97123" lon="4.5159">
        <ele>735</ele>
        <time>2015-12-07T09:52:23Z</time>
      </trkpt>
      <trkpt lat="44.97133" lon="4.51608">
        <ele>735</ele>
        <time>2015-12-07T09:52:27Z</time>
      </trkpt>
      <trkpt lat="44.97149" lon="4.51634">
        <ele>734</ele>
        <time>2015-12-07T09:52:32Z</time>
      </trkpt>
      <trkpt lat="44.97157" lon="4.51649">
        <ele>733</ele>
        <time>2015-12-07T09:52:35Z</time>
      </trkpt>
      <trkpt lat="44.97169" lon="4.51669">
        <ele>733</ele>
        <time>2015-12-07T09:52:40Z</time>
      </trkpt>
      <trkpt lat="44.97178" lon="4.51693">
        <ele>732</ele>
        <time>2015-12-07T09:52:45Z</time>
      </trkpt>
      <trkpt lat="44.97186" lon="4.51716">
        <ele>732</ele>
        <time>2015-12-07T09:52:49Z</time>
      </trkpt>
      <trkpt lat="44.97191" lon="4.51756">
        <ele>730</ele>
        <time>2015-12-07T09:52:53Z</time>
      </trkpt>
      <trkpt lat="44.97199" lon="4.518">
        <ele>729</ele>
        <time>2015-12-07T09:52:58Z</time>
      </trkpt>
      <trkpt lat="44.97205" lon="4.51824">
        <ele>729</ele>
        <time>2015-12-07T09:53:01Z</time>
      </trkpt>
      <trkpt lat="44.97214" lon="4.51856">
        <ele>727</ele>
        <time>2015-12-07T09:53:05Z</time>
      </trkpt>
      <trkpt lat="44.97224" lon="4.51884">
        <ele>726</ele>
        <time>2015-12-07T09:53:09Z</time>
      </trkpt>
      <trkpt lat="44.97232" lon="4.519">
        <ele>724</ele>
        <time>2015-12-07T09:53:12Z</time>
      </trkpt>
      <trkpt lat="44.97244" lon="4.51922">
        <ele>722</ele>
        <time>2015-12-07T09:53:16Z</time>
      </trkpt>
      <trkpt lat="44.97256" lon="4.51942">
        <ele>720</ele>
        <time>2015-12-07T09:53:20Z</time>
      </trkpt>
      <trkpt lat="44.97268" lon="4.51957">
        <ele>717</ele>
        <time>2015-12-07T09:53:23Z</time>
      </trkpt>
      <trkpt lat="44.97278" lon="4.51975">
        <ele>715</ele>
        <time>2015-12-07T09:53:27Z</time>
      </trkpt>
      <trkpt lat="44.97289" lon="4.51993">
        <ele>710</ele>
        <time>2015-12-07T09:53:32Z</time>
      </trkpt>
      <trkpt lat="44.97304" lon="4.52017">
        <ele>705</ele>
        <time>2015-12-07T09:53:37Z</time>
      </trkpt>
      <trkpt lat="44.97314" lon="4.52036">
        <ele>700</ele>
        <time>2015-12-07T09:53:41Z</time>
      </trkpt>
      <trkpt lat="44.97319" lon="4.52051">
        <ele>699</ele>
        <time>2015-12-07T09:53:45Z</time>
      </trkpt>
      <trkpt lat="44.97318" lon="4.52061">
        <ele>697</ele>
        <time>2015-12-07T09:53:49Z</time>
      </trkpt>
      <trkpt lat="44.97315" lon="4.52076">
        <ele>694</ele>
        <time>2015-12-07T09:53:53Z</time>
      </trkpt>
      <trkpt lat="44.97328" lon="4.52092">
        <ele>692</ele>
        <time>2015-12-07T09:53:57Z</time>
      </trkpt>
      <trkpt lat="44.97342" lon="4.52095">
        <ele>691</ele>
        <time>2015-12-07T09:54:00Z</time>
      </trkpt>
      <trkpt lat="44.97359" lon="4.52086">
        <ele>691</ele>
        <time>2015-12-07T09:54:04Z</time>
      </trkpt>
      <trkpt lat="44.9737" lon="4.52075">
        <ele>691</ele>
        <time>2015-12-07T09:54:08Z</time>
      </trkpt>
      <trkpt lat="44.97383" lon="4.52059">
        <ele>691</ele>
        <time>2015-12-07T09:54:13Z</time>
      </trkpt>
      <trkpt lat="44.97393" lon="4.52045">
        <ele>691</ele>
        <time>2015-12-07T09:54:17Z</time>
      </trkpt>
      <trkpt lat="44.97407" lon="4.5203">
        <ele>691</ele>
        <time>2015-12-07T09:54:22Z</time>
      </trkpt>
      <trkpt lat="44.97419" lon="4.52017">
        <ele>691</ele>
        <time>2015-12-07T09:54:27Z</time>
      </trkpt>
      <trkpt lat="44.97431" lon="4.52006">
        <ele>690</ele>
        <time>2015-12-07T09:54:32Z</time>
      </trkpt>
      <trkpt lat="44.97442" lon="4.51997">
        <ele>689</ele>
        <time>2015-12-07T09:54:36Z</time>
      </trkpt>
      <trkpt lat="44.97452" lon="4.5199">
        <ele>688</ele>
        <time>2015-12-07T09:54:40Z</time>
      </trkpt>
      <trkpt lat="44.97462" lon="4.51986">
        <ele>687</ele>
        <time>2015-12-07T09:54:44Z</time>
      </trkpt>
      <trkpt lat="44.97474" lon="4.51991">
        <ele>685</ele>
        <time>2015-12-07T09:54:49Z</time>
      </trkpt>
      <trkpt lat="44.9748" lon="4.51996">
        <ele>683</ele>
        <time>2015-12-07T09:54:53Z</time>
      </trkpt>
      <trkpt lat="44.97486" lon="4.52006">
        <ele>681</ele>
        <time>2015-12-07T09:54:56Z</time>
      </trkpt>
      <trkpt lat="44.97484" lon="4.52018">
        <ele>678</ele>
        <time>2015-12-07T09:55:20Z</time>
      </trkpt>
      <trkpt lat="44.97476" lon="4.52036">
        <ele>677</ele>
        <time>2015-12-07T09:55:25Z</time>
      </trkpt>
      <trkpt lat="44.97474" lon="4.52055">
        <ele>677</ele>
        <time>2015-12-07T09:55:29Z</time>
      </trkpt>
      <trkpt lat="44.97472" lon="4.52073">
        <ele>677</ele>
        <time>2015-12-07T09:55:33Z</time>
      </trkpt>
      <trkpt lat="44.97471" lon="4.52094">
        <ele>673</ele>
        <time>2015-12-07T09:55:37Z</time>
      </trkpt>
      <trkpt lat="44.97468" lon="4.52115">
        <ele>671</ele>
        <time>2015-12-07T09:55:41Z</time>
      </trkpt>
      <trkpt lat="44.97464" lon="4.52136">
        <ele>668</ele>
        <time>2015-12-07T09:55:45Z</time>
      </trkpt>
      <trkpt lat="44.97462" lon="4.52148">
        <ele>667</ele>
        <time>2015-12-07T09:55:48Z</time>
      </trkpt>
      <trkpt lat="44.97461" lon="4.5216">
        <ele>666</ele>
        <time>2015-12-07T09:55:51Z</time>
      </trkpt>
      <trkpt lat="44.9747" lon="4.52182">
        <ele>662</ele>
        <time>2015-12-07T09:55:56Z</time>
      </trkpt>
      <trkpt lat="44.97484" lon="4.52204">
        <ele>658</ele>
        <time>2015-12-07T09:56:00Z</time>
      </trkpt>
      <trkpt lat="44.97493" lon="4.52224">
        <ele>654</ele>
        <time>2015-12-07T09:56:05Z</time>
      </trkpt>
      <trkpt lat="44.97494" lon="4.52237">
        <ele>653</ele>
        <time>2015-12-07T09:56:18Z</time>
      </trkpt>
      <trkpt lat="44.97492" lon="4.52246">
        <ele>651</ele>
        <time>2015-12-07T09:56:32Z</time>
      </trkpt>
      <trkpt lat="44.9749" lon="4.52262">
        <ele>651</ele>
        <time>2015-12-07T09:56:36Z</time>
      </trkpt>
      <trkpt lat="44.97493" lon="4.52275">
        <ele>649</ele>
        <time>2015-12-07T09:56:40Z</time>
      </trkpt>
      <trkpt lat="44.97503" lon="4.52274">
        <ele>648</ele>
        <time>2015-12-07T09:56:44Z</time>
      </trkpt>
      <trkpt lat="44.97508" lon="4.52268">
        <ele>647</ele>
        <time>2015-12-07T09:56:47Z</time>
      </trkpt>
      <trkpt lat="44.97514" lon="4.52257">
        <ele>645</ele>
        <time>2015-12-07T09:56:51Z</time>
      </trkpt>
      <trkpt lat="44.97519" lon="4.52247">
        <ele>644</ele>
        <time>2015-12-07T09:56:56Z</time>
      </trkpt>
      <trkpt lat="44.97524" lon="4.52238">
        <ele>643</ele>
        <time>2015-12-07T09:57:06Z</time>
      </trkpt>
      <trkpt lat="44.9753" lon="4.52229">
        <ele>641</ele>
        <time>2015-12-07T09:57:20Z</time>
      </trkpt>
      <trkpt lat="44.97537" lon="4.52221">
        <ele>642</ele>
        <time>2015-12-07T09:57:40Z</time>
      </trkpt>
      <trkpt lat="44.9754" lon="4.52213">
        <ele>642</ele>
        <time>2015-12-07T09:57:47Z</time>
      </trkpt>
      <trkpt lat="44.97544" lon="4.52202">
        <ele>643</ele>
        <time>2015-12-07T09:57:51Z</time>
      </trkpt>
      <trkpt lat="44.97549" lon="4.52195">
        <ele>643</ele>
        <time>2015-12-07T09:57:54Z</time>
      </trkpt>
      <trkpt lat="44.97556" lon="4.52183">
        <ele>643</ele>
        <time>2015-12-07T09:57:59Z</time>
      </trkpt>
      <trkpt lat="44.97563" lon="4.52171">
        <ele>643</ele>
        <time>2015-12-07T09:58:03Z</time>
      </trkpt>
      <trkpt lat="44.97573" lon="4.52155">
        <ele>642</ele>
        <time>2015-12-07T09:58:07Z</time>
      </trkpt>
      <trkpt lat="44.97581" lon="4.52135">
        <ele>642</ele>
        <time>2015-12-07T09:58:11Z</time>
      </trkpt>
      <trkpt lat="44.97588" lon="4.52113">
        <ele>642</ele>
        <time>2015-12-07T09:58:15Z</time>
      </trkpt>
      <trkpt lat="44.97596" lon="4.52085">
        <ele>641</ele>
        <time>2015-12-07T09:58:20Z</time>
      </trkpt>
      <trkpt lat="44.97602" lon="4.52071">
        <ele>640</ele>
        <time>2015-12-07T09:58:23Z</time>
      </trkpt>
      <trkpt lat="44.97611" lon="4.52054">
        <ele>640</ele>
        <time>2015-12-07T09:58:27Z</time>
      </trkpt>
      <trkpt lat="44.97623" lon="4.52045">
        <ele>639</ele>
        <time>2015-12-07T09:58:31Z</time>
      </trkpt>
      <trkpt lat="44.97632" lon="4.52046">
        <ele>640</ele>
        <time>2015-12-07T09:58:34Z</time>
      </trkpt>
      <trkpt lat="44.97642" lon="4.52049">
        <ele>640</ele>
        <time>2015-12-07T09:58:37Z</time>
      </trkpt>
      <trkpt lat="44.97655" lon="4.52053">
        <ele>639</ele>
        <time>2015-12-07T09:58:41Z</time>
      </trkpt>
      <trkpt lat="44.97668" lon="4.52058">
        <ele>638</ele>
        <time>2015-12-07T09:58:45Z</time>
      </trkpt>
      <trkpt lat="44.97682" lon="4.52065">
        <ele>637</ele>
        <time>2015-12-07T09:58:49Z</time>
      </trkpt>
      <trkpt lat="44.97698" lon="4.52071">
        <ele>636</ele>
        <time>2015-12-07T09:58:53Z</time>
      </trkpt>
      <trkpt lat="44.97718" lon="4.52077">
        <ele>634</ele>
        <time>2015-12-07T09:58:57Z</time>
      </trkpt>
      <trkpt lat="44.97736" lon="4.52083">
        <ele>632</ele>
        <time>2015-12-07T09:59:01Z</time>
      </trkpt>
      <trkpt lat="44.97747" lon="4.52095">
        <ele>630</ele>
        <time>2015-12-07T09:59:05Z</time>
      </trkpt>
      <trkpt lat="44.97753" lon="4.52102">
        <ele>629</ele>
        <time>2015-12-07T09:59:08Z</time>
      </trkpt>
      <trkpt lat="44.97761" lon="4.52109">
        <ele>627</ele>
        <time>2015-12-07T09:59:12Z</time>
      </trkpt>
      <trkpt lat="44.97772" lon="4.5212">
        <ele>626</ele>
        <time>2015-12-07T09:59:16Z</time>
      </trkpt>
      <trkpt lat="44.97787" lon="4.52133">
        <ele>623</ele>
        <time>2015-12-07T09:59:21Z</time>
      </trkpt>
      <trkpt lat="44.978" lon="4.52142">
        <ele>622</ele>
        <time>2015-12-07T09:59:25Z</time>
      </trkpt>
      <trkpt lat="44.97807" lon="4.52147">
        <ele>622</ele>
        <time>2015-12-07T09:59:27Z</time>
      </trkpt>
      <trkpt lat="44.97816" lon="4.52151">
        <ele>622</ele>
        <time>2015-12-07T09:59:32Z</time>
      </trkpt>
      <trkpt lat="44.97828" lon="4.52158">
        <ele>621</ele>
        <time>2015-12-07T09:59:36Z</time>
      </trkpt>
      <trkpt lat="44.97847" lon="4.52171">
        <ele>622</ele>
        <time>2015-12-07T09:59:40Z</time>
      </trkpt>
      <trkpt lat="44.97877" lon="4.52185">
        <ele>623</ele>
        <time>2015-12-07T09:59:45Z</time>
      </trkpt>
      <trkpt lat="44.97894" lon="4.52195">
        <ele>622</ele>
        <time>2015-12-07T09:59:49Z</time>
      </trkpt>
      <trkpt lat="44.97903" lon="4.52199">
        <ele>622</ele>
        <time>2015-12-07T09:59:52Z</time>
      </trkpt>
      <trkpt lat="44.97925" lon="4.52212">
        <ele>622</ele>
        <time>2015-12-07T09:59:56Z</time>
      </trkpt>
      <trkpt lat="44.97936" lon="4.52221">
        <ele>622</ele>
        <time>2015-12-07T09:59:59Z</time>
      </trkpt>
      <trkpt lat="44.97951" lon="4.5223">
        <ele>621</ele>
        <time>2015-12-07T10:00:04Z</time>
      </trkpt>
      <trkpt lat="44.97966" lon="4.52243">
        <ele>620</ele>
        <time>2015-12-07T10:00:09Z</time>
      </trkpt>
      <trkpt lat="44.97981" lon="4.52251">
        <ele>619</ele>
        <time>2015-12-07T10:00:13Z</time>
      </trkpt>
      <trkpt lat="44.97996" lon="4.52267">
        <ele>618</ele>
        <time>2015-12-07T10:00:17Z</time>
      </trkpt>
      <trkpt lat="44.98012" lon="4.52275">
        <ele>617</ele>
        <time>2015-12-07T10:00:22Z</time>
      </trkpt>
      <trkpt lat="44.98032" lon="4.52293">
        <ele>615</ele>
        <time>2015-12-07T10:00:26Z</time>
      </trkpt>
      <trkpt lat="44.98043" lon="4.52299">
        <ele>614</ele>
        <time>2015-12-07T10:00:29Z</time>
      </trkpt>
      <trkpt lat="44.98061" lon="4.52304">
        <ele>611</ele>
        <time>2015-12-07T10:00:33Z</time>
      </trkpt>
      <trkpt lat="44.98087" lon="4.52294">
        <ele>609</ele>
        <time>2015-12-07T10:00:38Z</time>
      </trkpt>
      <trkpt lat="44.98111" lon="4.52269">
        <ele>605</ele>
        <time>2015-12-07T10:00:43Z</time>
      </trkpt>
      <trkpt lat="44.98128" lon="4.52246">
        <ele>601</ele>
        <time>2015-12-07T10:00:48Z</time>
      </trkpt>
      <trkpt lat="44.98136" lon="4.52232">
        <ele>600</ele>
        <time>2015-12-07T10:00:51Z</time>
      </trkpt>
      <trkpt lat="44.98143" lon="4.52216">
        <ele>599</ele>
        <time>2015-12-07T10:00:55Z</time>
      </trkpt>
      <trkpt lat="44.98151" lon="4.52202">
        <ele>598</ele>
        <time>2015-12-07T10:00:59Z</time>
      </trkpt>
      <trkpt lat="44.98159" lon="4.52184">
        <ele>596</ele>
        <time>2015-12-07T10:01:03Z</time>
      </trkpt>
      <trkpt lat="44.98167" lon="4.52155">
        <ele>594</ele>
        <time>2015-12-07T10:01:08Z</time>
      </trkpt>
      <trkpt lat="44.98174" lon="4.52131">
        <ele>591</ele>
        <time>2015-12-07T10:01:12Z</time>
      </trkpt>
      <trkpt lat="44.98177" lon="4.52108">
        <ele>589</ele>
        <time>2015-12-07T10:01:16Z</time>
      </trkpt>
      <trkpt lat="44.98179" lon="4.52088">
        <ele>588</ele>
        <time>2015-12-07T10:01:20Z</time>
      </trkpt>
      <trkpt lat="44.98184" lon="4.52065">
        <ele>587</ele>
        <time>2015-12-07T10:01:25Z</time>
      </trkpt>
      <trkpt lat="44.9819" lon="4.52042">
        <ele>587</ele>
        <time>2015-12-07T10:01:29Z</time>
      </trkpt>
      <trkpt lat="44.98202" lon="4.52021">
        <ele>587</ele>
        <time>2015-12-07T10:01:34Z</time>
      </trkpt>
      <trkpt lat="44.98214" lon="4.52015">
        <ele>587</ele>
        <time>2015-12-07T10:01:38Z</time>
      </trkpt>
      <trkpt lat="44.98234" lon="4.51999">
        <ele>587</ele>
        <time>2015-12-07T10:01:43Z</time>
      </trkpt>
      <trkpt lat="44.98241" lon="4.51986">
        <ele>586</ele>
        <time>2015-12-07T10:01:46Z</time>
      </trkpt>
      <trkpt lat="44.98246" lon="4.51977">
        <ele>584</ele>
        <time>2015-12-07T10:01:49Z</time>
      </trkpt>
      <trkpt lat="44.98255" lon="4.51964">
        <ele>581</ele>
        <time>2015-12-07T10:01:54Z</time>
      </trkpt>
      <trkpt lat="44.98263" lon="4.51949">
        <ele>579</ele>
        <time>2015-12-07T10:01:58Z</time>
      </trkpt>
      <trkpt lat="44.98266" lon="4.51934">
        <ele>577</ele>
        <time>2015-12-07T10:02:02Z</time>
      </trkpt>
      <trkpt lat="44.98274" lon="4.51933">
        <ele>579</ele>
        <time>2015-12-07T10:02:07Z</time>
      </trkpt>
      <trkpt lat="44.98278" lon="4.51953">
        <ele>578</ele>
        <time>2015-12-07T10:02:11Z</time>
      </trkpt>
      <trkpt lat="44.98282" lon="4.51975">
        <ele>578</ele>
        <time>2015-12-07T10:02:15Z</time>
      </trkpt>
      <trkpt lat="44.98287" lon="4.51991">
        <ele>576</ele>
        <time>2015-12-07T10:02:19Z</time>
      </trkpt>
      <trkpt lat="44.98289" lon="4.52003">
        <ele>574</ele>
        <time>2015-12-07T10:02:22Z</time>
      </trkpt>
      <trkpt lat="44.98291" lon="4.52015">
        <ele>571</ele>
        <time>2015-12-07T10:02:27Z</time>
      </trkpt>
      <trkpt lat="44.98293" lon="4.52025">
        <ele>569</ele>
        <time>2015-12-07T10:02:32Z</time>
      </trkpt>
      <trkpt lat="44.98291" lon="4.52035">
        <ele>568</ele>
        <time>2015-12-07T10:02:37Z</time>
      </trkpt>
      <trkpt lat="44.98285" lon="4.52051">
        <ele>566</ele>
        <time>2015-12-07T10:02:41Z</time>
      </trkpt>
      <trkpt lat="44.98276" lon="4.52069">
        <ele>564</ele>
        <time>2015-12-07T10:02:45Z</time>
      </trkpt>
      <trkpt lat="44.98279" lon="4.52096">
        <ele>562</ele>
        <time>2015-12-07T10:02:50Z</time>
      </trkpt>
      <trkpt lat="44.9829" lon="4.52119">
        <ele>559</ele>
        <time>2015-12-07T10:02:54Z</time>
      </trkpt>
      <trkpt lat="44.98306" lon="4.52144">
        <ele>557</ele>
        <time>2015-12-07T10:02:58Z</time>
      </trkpt>
      <trkpt lat="44.98315" lon="4.52157">
        <ele>554</ele>
        <time>2015-12-07T10:03:01Z</time>
      </trkpt>
      <trkpt lat="44.9832" lon="4.52167">
        <ele>551</ele>
        <time>2015-12-07T10:03:04Z</time>
      </trkpt>
      <trkpt lat="44.98325" lon="4.52174">
        <ele>548</ele>
        <time>2015-12-07T10:03:07Z</time>
      </trkpt>
      <trkpt lat="44.98334" lon="4.52184">
        <ele>546</ele>
        <time>2015-12-07T10:03:11Z</time>
      </trkpt>
      <trkpt lat="44.98343" lon="4.52189">
        <ele>543</ele>
        <time>2015-12-07T10:03:15Z</time>
      </trkpt>
      <trkpt lat="44.98354" lon="4.52194">
        <ele>540</ele>
        <time>2015-12-07T10:03:19Z</time>
      </trkpt>
      <trkpt lat="44.98364" lon="4.52199">
        <ele>538</ele>
        <time>2015-12-07T10:03:23Z</time>
      </trkpt>
      <trkpt lat="44.98379" lon="4.52205">
        <ele>535</ele>
        <time>2015-12-07T10:03:27Z</time>
      </trkpt>
      <trkpt lat="44.98396" lon="4.5221">
        <ele>532</ele>
        <time>2015-12-07T10:03:31Z</time>
      </trkpt>
      <trkpt lat="44.9841" lon="4.52214">
        <ele>530</ele>
        <time>2015-12-07T10:03:35Z</time>
      </trkpt>
      <trkpt lat="44.98422" lon="4.52221">
        <ele>528</ele>
        <time>2015-12-07T10:03:39Z</time>
      </trkpt>
      <trkpt lat="44.98441" lon="4.52241">
        <ele>527</ele>
        <time>2015-12-07T10:03:44Z</time>
      </trkpt>
      <trkpt lat="44.98454" lon="4.52262">
        <ele>525</ele>
        <time>2015-12-07T10:03:48Z</time>
      </trkpt>
      <trkpt lat="44.98468" lon="4.52285">
        <ele>524</ele>
        <time>2015-12-07T10:03:52Z</time>
      </trkpt>
      <trkpt lat="44.98487" lon="4.52313">
        <ele>521</ele>
        <time>2015-12-07T10:03:57Z</time>
      </trkpt>
      <trkpt lat="44.98505" lon="4.52315">
        <ele>520</ele>
        <time>2015-12-07T10:04:01Z</time>
      </trkpt>
      <trkpt lat="44.98521" lon="4.52307">
        <ele>520</ele>
        <time>2015-12-07T10:04:05Z</time>
      </trkpt>
      <trkpt lat="44.98533" lon="4.52297">
        <ele>520</ele>
        <time>2015-12-07T10:04:09Z</time>
      </trkpt>
      <trkpt lat="44.98546" lon="4.52289">
        <ele>520</ele>
        <time>2015-12-07T10:04:13Z</time>
      </trkpt>
      <trkpt lat="44.98562" lon="4.5228">
        <ele>519</ele>
        <time>2015-12-07T10:04:17Z</time>
      </trkpt>
      <trkpt lat="44.98576" lon="4.52278">
        <ele>518</ele>
        <time>2015-12-07T10:04:20Z</time>
      </trkpt>
      <trkpt lat="44.98593" lon="4.52277">
        <ele>518</ele>
        <time>2015-12-07T10:04:23Z</time>
      </trkpt>
      <trkpt lat="44.9862" lon="4.52287">
        <ele>517</ele>
        <time>2015-12-07T10:04:28Z</time>
      </trkpt>
      <trkpt lat="44.98647" lon="4.52313">
        <ele>515</ele>
        <time>2015-12-07T10:04:33Z</time>
      </trkpt>
      <trkpt lat="44.98659" lon="4.52344">
        <ele>514</ele>
        <time>2015-12-07T10:04:37Z</time>
      </trkpt>
      <trkpt lat="44.98656" lon="4.5237">
        <ele>513</ele>
        <time>2015-12-07T10:04:40Z</time>
      </trkpt>
      <trkpt lat="44.98643" lon="4.52399">
        <ele>512</ele>
        <time>2015-12-07T10:04:44Z</time>
      </trkpt>
      <trkpt lat="44.98643" lon="4.52422">
        <ele>510</ele>
        <time>2015-12-07T10:04:48Z</time>
      </trkpt>
      <trkpt lat="44.98661" lon="4.52444">
        <ele>508</ele>
        <time>2015-12-07T10:04:52Z</time>
      </trkpt>
      <trkpt lat="44.98692" lon="4.52483">
        <ele>504</ele>
        <time>2015-12-07T10:04:57Z</time>
      </trkpt>
      <trkpt lat="44.98715" lon="4.52518">
        <ele>501</ele>
        <time>2015-12-07T10:05:01Z</time>
      </trkpt>
      <trkpt lat="44.98724" lon="4.52545">
        <ele>498</ele>
        <time>2015-12-07T10:05:05Z</time>
      </trkpt>
      <trkpt lat="44.98733" lon="4.52529">
        <ele>492</ele>
        <time>2015-12-07T10:05:09Z</time>
      </trkpt>
      <trkpt lat="44.98724" lon="4.52489">
        <ele>486</ele>
        <time>2015-12-07T10:05:14Z</time>
      </trkpt>
      <trkpt lat="44.98716" lon="4.5246">
        <ele>483</ele>
        <time>2015-12-07T10:05:17Z</time>
      </trkpt>
      <trkpt lat="44.98714" lon="4.52427">
        <ele>479</ele>
        <time>2015-12-07T10:05:21Z</time>
      </trkpt>
      <trkpt lat="44.98732" lon="4.52411">
        <ele>476</ele>
        <time>2015-12-07T10:05:25Z</time>
      </trkpt>
      <trkpt lat="44.98743" lon="4.524">
        <ele>474</ele>
        <time>2015-12-07T10:05:29Z</time>
      </trkpt>
      <trkpt lat="44.98747" lon="4.52388">
        <ele>472</ele>
        <time>2015-12-07T10:05:32Z</time>
      </trkpt>
      <trkpt lat="44.98753" lon="4.52361">
        <ele>469</ele>
        <time>2015-12-07T10:05:36Z</time>
      </trkpt>
      <trkpt lat="44.98766" lon="4.52335">
        <ele>468</ele>
        <time>2015-12-07T10:05:40Z</time>
      </trkpt>
      <trkpt lat="44.98782" lon="4.52324">
        <ele>468</ele>
        <time>2015-12-07T10:05:43Z</time>
      </trkpt>
      <trkpt lat="44.98806" lon="4.523">
        <ele>464</ele>
        <time>2015-12-07T10:05:48Z</time>
      </trkpt>
      <trkpt lat="44.98814" lon="4.52246">
        <ele>459</ele>
        <time>2015-12-07T10:05:53Z</time>
      </trkpt>
      <trkpt lat="44.98834" lon="4.52198">
        <ele>457</ele>
        <time>2015-12-07T10:05:58Z</time>
      </trkpt>
      <trkpt lat="44.98841" lon="4.52152">
        <ele>456</ele>
        <time>2015-12-07T10:06:01Z</time>
      </trkpt>
      <trkpt lat="44.9883" lon="4.52109">
        <ele>453</ele>
        <time>2015-12-07T10:06:06Z</time>
      </trkpt>
      <trkpt lat="44.98825" lon="4.52089">
        <ele>452</ele>
        <time>2015-12-07T10:06:10Z</time>
      </trkpt>
      <trkpt lat="44.98833" lon="4.52079">
        <ele>452</ele>
        <time>2015-12-07T10:06:13Z</time>
      </trkpt>
      <trkpt lat="44.98857" lon="4.52099">
        <ele>451</ele>
        <time>2015-12-07T10:06:17Z</time>
      </trkpt>
      <trkpt lat="44.9887" lon="4.52116">
        <ele>451</ele>
        <time>2015-12-07T10:06:20Z</time>
      </trkpt>
      <trkpt lat="44.98883" lon="4.5214">
        <ele>450</ele>
        <time>2015-12-07T10:06:24Z</time>
      </trkpt>
      <trkpt lat="44.9889" lon="4.52165">
        <ele>449</ele>
        <time>2015-12-07T10:06:28Z</time>
      </trkpt>
      <trkpt lat="44.98895" lon="4.52185">
        <ele>448</ele>
        <time>2015-12-07T10:06:31Z</time>
      </trkpt>
      <trkpt lat="44.98915" lon="4.52183">
        <ele>446</ele>
        <time>2015-12-07T10:06:34Z</time>
      </trkpt>
      <trkpt lat="44.98951" lon="4.52154">
        <ele>443</ele>
        <time>2015-12-07T10:06:39Z</time>
      </trkpt>
      <trkpt lat="44.98974" lon="4.52128">
        <ele>442</ele>
        <time>2015-12-07T10:06:43Z</time>
      </trkpt>
      <trkpt lat="44.98964" lon="4.52096">
        <ele>441</ele>
        <time>2015-12-07T10:06:47Z</time>
      </trkpt>
      <trkpt lat="44.98946" lon="4.52071">
        <ele>440</ele>
        <time>2015-12-07T10:06:52Z</time>
      </trkpt>
      <trkpt lat="44.98926" lon="4.52047">
        <ele>439</ele>
        <time>2015-12-07T10:06:57Z</time>
      </trkpt>
      <trkpt lat="44.98937" lon="4.52024">
        <ele>437</ele>
        <time>2015-12-07T10:07:01Z</time>
      </trkpt>
      <trkpt lat="44.98961" lon="4.52042">
        <ele>436</ele>
        <time>2015-12-07T10:07:05Z</time>
      </trkpt>
      <trkpt lat="44.98992" lon="4.52053">
        <ele>435</ele>
        <time>2015-12-07T10:07:09Z</time>
      </trkpt>
      <trkpt lat="44.99021" lon="4.52038">
        <ele>434</ele>
        <time>2015-12-07T10:07:13Z</time>
      </trkpt>
      <trkpt lat="44.99043" lon="4.52036">
        <ele>433</ele>
        <time>2015-12-07T10:07:17Z</time>
      </trkpt>
      <trkpt lat="44.99078" lon="4.52044">
        <ele>430</ele>
        <time>2015-12-07T10:07:22Z</time>
      </trkpt>
      <trkpt lat="44.99099" lon="4.52023">
        <ele>428</ele>
        <time>2015-12-07T10:07:25Z</time>
      </trkpt>
      <trkpt lat="44.9913" lon="4.51988">
        <ele>424</ele>
        <time>2015-12-07T10:07:29Z</time>
      </trkpt>
      <trkpt lat="44.9916" lon="4.51944">
        <ele>416</ele>
        <time>2015-12-07T10:07:33Z</time>
      </trkpt>
      <trkpt lat="44.99185" lon="4.51918">
        <ele>411</ele>
        <time>2015-12-07T10:07:37Z</time>
      </trkpt>
      <trkpt lat="44.99207" lon="4.51884">
        <ele>404</ele>
        <time>2015-12-07T10:07:42Z</time>
      </trkpt>
      <trkpt lat="44.99225" lon="4.51866">
        <ele>399</ele>
        <time>2015-12-07T10:07:47Z</time>
      </trkpt>
      <trkpt lat="44.99242" lon="4.5188">
        <ele>398</ele>
        <time>2015-12-07T10:07:52Z</time>
      </trkpt>
      <trkpt lat="44.99254" lon="4.51895">
        <ele>397</ele>
        <time>2015-12-07T10:07:56Z</time>
      </trkpt>
      <trkpt lat="44.99265" lon="4.5191">
        <ele>393</ele>
        <time>2015-12-07T10:08:00Z</time>
      </trkpt>
      <trkpt lat="44.99281" lon="4.51926">
        <ele>390</ele>
        <time>2015-12-07T10:08:05Z</time>
      </trkpt>
      <trkpt lat="44.99297" lon="4.51938">
        <ele>389</ele>
        <time>2015-12-07T10:08:09Z</time>
      </trkpt>
      <trkpt lat="44.99307" lon="4.5195">
        <ele>389</ele>
        <time>2015-12-07T10:08:13Z</time>
      </trkpt>
      <trkpt lat="44.99314" lon="4.51948">
        <ele>389</ele>
        <time>2015-12-07T10:08:16Z</time>
      </trkpt>
      <trkpt lat="44.99326" lon="4.51941">
        <ele>391</ele>
        <time>2015-12-07T10:08:21Z</time>
      </trkpt>
      <trkpt lat="44.99328" lon="4.51933">
        <ele>392</ele>
        <time>2015-12-07T10:08:27Z</time>
      </trkpt>
      <trkpt lat="44.99325" lon="4.51913">
        <ele>391</ele>
        <time>2015-12-07T10:08:31Z</time>
      </trkpt>
      <trkpt lat="44.99326" lon="4.51886">
        <ele>390</ele>
        <time>2015-12-07T10:08:36Z</time>
      </trkpt>
      <trkpt lat="44.99328" lon="4.51865">
        <ele>390</ele>
        <time>2015-12-07T10:08:40Z</time>
      </trkpt>
      <trkpt lat="44.9933" lon="4.51847">
        <ele>390</ele>
        <time>2015-12-07T10:08:44Z</time>
      </trkpt>
      <trkpt lat="44.99327" lon="4.51833">
        <ele>389</ele>
        <time>2015-12-07T10:08:47Z</time>
      </trkpt>
      <trkpt lat="44.99324" lon="4.5181">
        <ele>389</ele>
        <time>2015-12-07T10:08:52Z</time>
      </trkpt>
      <trkpt lat="44.99318" lon="4.51788">
        <ele>389</ele>
        <time>2015-12-07T10:08:57Z</time>
      </trkpt>
      <trkpt lat="44.99316" lon="4.51773">
        <ele>391</ele>
        <time>2015-12-07T10:09:01Z</time>
      </trkpt>
      <trkpt lat="44.99317" lon="4.51763">
        <ele>395</ele>
        <time>2015-12-07T10:09:09Z</time>
      </trkpt>
      <trkpt lat="44.99317" lon="4.51752">
        <ele>397</ele>
        <time>2015-12-07T10:09:15Z</time>
      </trkpt>
      <trkpt lat="44.99318" lon="4.51743">
        <ele>398</ele>
        <time>2015-12-07T10:09:20Z</time>
      </trkpt>
      <trkpt lat="44.99319" lon="4.51732">
        <ele>399</ele>
        <time>2015-12-07T10:09:25Z</time>
      </trkpt>
      <trkpt lat="44.9932" lon="4.51721">
        <ele>401</ele>
        <time>2015-12-07T10:09:31Z</time>
      </trkpt>
      <trkpt lat="44.99323" lon="4.51712">
        <ele>403</ele>
        <time>2015-12-07T10:09:37Z</time>
      </trkpt>
      <trkpt lat="44.9933" lon="4.51705">
        <ele>405</ele>
        <time>2015-12-07T10:09:42Z</time>
      </trkpt>
      <trkpt lat="44.99328" lon="4.51693">
        <ele>408</ele>
        <time>2015-12-07T10:09:47Z</time>
      </trkpt>
      <trkpt lat="44.99333" lon="4.51685">
        <ele>408</ele>
        <time>2015-12-07T10:10:03Z</time>
      </trkpt>
      <trkpt lat="44.99341" lon="4.51684">
        <ele>408</ele>
        <time>2015-12-07T10:10:10Z</time>
      </trkpt>
      <trkpt lat="44.9935" lon="4.51683">
        <ele>408</ele>
        <time>2015-12-07T10:10:15Z</time>
      </trkpt>
      <trkpt lat="44.99358" lon="4.51681">
        <ele>408</ele>
        <time>2015-12-07T10:10:21Z</time>
      </trkpt>
      <trkpt lat="44.99365" lon="4.51674">
        <ele>408</ele>
        <time>2015-12-07T10:10:29Z</time>
      </trkpt>
      <trkpt lat="44.99365" lon="4.51662">
        <ele>409</ele>
        <time>2015-12-07T10:10:38Z</time>
      </trkpt>
      <trkpt lat="44.9937" lon="4.51652">
        <ele>409</ele>
        <time>2015-12-07T10:10:44Z</time>
      </trkpt>
      <trkpt lat="44.99376" lon="4.51644">
        <ele>410</ele>
        <time>2015-12-07T10:10:51Z</time>
      </trkpt>
      <trkpt lat="44.99383" lon="4.51639">
        <ele>411</ele>
        <time>2015-12-07T10:11:00Z</time>
      </trkpt>
      <trkpt lat="44.9939" lon="4.51635">
        <ele>413</ele>
        <time>2015-12-07T10:11:08Z</time>
      </trkpt>
      <trkpt lat="44.99395" lon="4.51628">
        <ele>415</ele>
        <time>2015-12-07T10:11:13Z</time>
      </trkpt>
      <trkpt lat="44.99403" lon="4.51625">
        <ele>417</ele>
        <time>2015-12-07T10:11:20Z</time>
      </trkpt>
      <trkpt lat="44.9941" lon="4.51618">
        <ele>418</ele>
        <time>2015-12-07T10:11:26Z</time>
      </trkpt>
      <trkpt lat="44.99414" lon="4.51625">
        <ele>422</ele>
        <time>2015-12-07T10:12:37Z</time>
      </trkpt>
      <trkpt lat="44.99414" lon="4.51625">
        <ele>422</ele>
        <time>2015-12-07T10:12:38Z</time>
      </trkpt>
    </trkseg>
  </trk>
</gpx>